ECMWFNIL_250_spd_000.txt.gz
Wind_Speed
40 41 41 41 42 42 43 43 42 42 40 36 32 31 33 37 41 45 50 55 58 58 56 54 54 55 56 56 53 51 50 49 47 47 49 51 53 53 52 54 56 59
43 43 44 44 45 44 44 42 40 39 37 34 31 32 35 41 46 50 54 57 58 58 56 55 55 55 58 58 54 51 50 48 46 46 48 50 52 52 53 56 57 59
45 46 46 46 47 47 45 43 39 36 34 33 33 35 39 46 53 56 57 60 63 63 62 61 59 58 60 59 55 51 50 47 45 46 49 50 51 53 56 58 59 61
48 48 49 48 49 49 48 45 41 37 35 35 37 41 46 53 59 61 62 66 67 67 68 68 63 61 61 60 55 51 48 45 43 46 50 52 53 56 59 61 61 64
48 49 49 49 50 51 49 46 43 40 40 41 44 49 54 60 67 68 67 68 67 67 70 69 64 61 62 59 53 49 47 45 45 48 52 54 56 59 62 64 66 69
49 49 49 49 49 50 49 47 45 44 45 48 51 56 61 66 69 69 65 64 66 68 68 65 62 60 59 54 50 48 47 47 49 52 54 57 59 62 66 68 71 74
50 50 49 49 48 48 49 49 50 50 51 53 56 60 63 65 65 65 63 63 66 66 63 61 60 58 54 51 49 49 49 51 53 54 57 59 62 65 69 72 75 78
49 49 49 49 49 49 52 55 57 58 58 57 57 59 60 60 62 63 62 63 65 63 61 61 61 56 51 51 52 52 54 56 56 56 59 63 66 69 72 75 78 81
49 49 49 50 51 53 58 62 63 63 62 59 57 58 60 62 63 61 59 61 62 61 62 61 59 55 52 53 55 57 59 59 59 60 63 67 70 72 74 77 81 84
49 49 50 52 53 56 62 66 65 62 60 57 58 63 65 64 61 58 57 59 59 60 60 57 56 57 57 58 59 60 60 61 62 64 67 70 73 75 77 79 82 86
49 50 52 53 54 58 61 62 61 59 58 59 63 68 68 63 58 56 55 56 56 56 55 55 58 60 60 62 63 62 61 62 63 66 69 73 76 77 79 82 85 88
50 50 53 55 56 60 61 60 60 61 62 65 69 71 68 60 55 53 54 54 54 54 53 55 59 61 63 66 65 64 63 62 63 67 71 74 77 80 82 84 87 89
49 48 52 55 56 59 62 64 63 61 62 67 70 69 63 56 51 52 53 52 52 52 54 58 61 64 68 69 67 66 65 64 65 68 72 76 80 82 84 85 87 89
49 49 50 52 55 56 59 62 60 55 59 67 68 65 61 57 55 54 53 52 53 56 60 63 67 70 72 71 69 69 69 69 69 71 75 78 81 83 84 85 86 89
48 45 42 45 51 54 57 61 56 52 59 66 66 64 63 62 61 60 58 59 62 66 70 73 75 76 76 75 74 73 73 72 72 74 77 80 83 86 86 85 87 90
45 40 36 39 44 48 55 59 55 55 61 64 64 66 67 67 67 67 68 71 74 78 80 81 81 79 78 78 77 76 74 73 75 78 78 81 86 87 84 84 87 91
46 40 37 39 43 47 49 48 51 58 63 64 67 71 74 73 72 73 77 81 83 85 85 82 80 79 78 77 76 76 75 76 78 80 81 84 87 85 82 84 89 94
48 42 38 39 44 49 49 51 59 65 66 69 76 81 81 79 78 80 84 85 85 84 82 80 78 76 74 74 75 76 77 79 83 85 86 88 88 86 87 90 94 98
51 47 43 41 46 53 57 63 70 72 74 78 83 84 83 82 83 87 87 85 83 81 80 78 76 74 73 74 77 79 81 84 86 87 88 88 89 90 93 95 97 97
51 50 46 45 52 60 63 65 69 73 75 78 80 82 83 84 86 88 86 83 82 81 81 80 78 77 78 79 80 82 85 85 85 87 89 91 93 95 97 97 97 95
55 53 49 47 54 62 64 64 66 68 70 74 77 80 83 85 87 87 84 81 80 80 79 80 81 82 82 80 80 83 84 84 85 89 92 95 97 98 98 97 95 95
58 57 53 50 54 59 61 62 63 65 68 72 75 78 80 83 86 86 82 78 78 78 78 80 83 83 82 80 81 83 83 83 87 92 96 98 98 97 96 95 94 96
59 58 53 51 50 53 56 58 61 66 68 69 72 75 76 80 84 85 84 84 85 83 82 82 82 80 79 80 81 82 82 85 91 96 98 98 96 94 95 95 97 100
59 57 54 52 52 55 58 59 61 67 69 67 69 72 75 79 82 83 85 87 86 83 80 78 76 76 78 81 82 82 84 89 94 97 97 96 95 95 97 98 101 106
58 56 55 55 55 57 61 62 63 67 68 67 68 71 75 77 78 80 82 82 79 77 75 74 74 77 80 82 84 85 87 90 93 94 95 95 96 97 100 102 106 111
58 57 57 57 56 58 63 65 64 65 65 66 67 69 72 73 73 73 73 71 68 69 71 73 75 78 80 81 83 85 87 89 91 91 93 95 99 102 105 108 112 115

ECMWFNIL_250_spd_003.txt.gz
Wind_Speed
38 38 38 39 38 38 39 40 39 39 38 37 37 36 36 35 35 36 37 39 41 43 46 48 51 53 52 50 47 47 48 46 42 41 40 41 42 43 46 47 49 51
40 40 40 40 39 39 40 40 41 40 40 39 38 38 38 39 41 42 42 43 44 46 48 48 49 51 51 49 46 45 45 42 40 39 39 40 42 45 48 51 54 56
42 42 42 41 40 40 41 42 43 43 43 42 41 42 43 46 48 49 47 46 47 49 48 45 48 51 50 47 45 43 42 40 38 38 39 41 43 46 50 53 56 58
44 44 44 43 42 42 42 44 45 46 46 46 45 46 46 48 52 51 49 48 48 48 47 47 52 55 51 46 43 41 40 38 37 39 40 42 44 48 51 54 56 58
46 45 45 45 44 44 45 46 47 47 47 48 49 49 49 50 52 51 50 50 48 48 48 50 55 58 53 46 43 42 42 39 38 41 42 43 46 50 52 54 56 58
46 46 46 47 47 47 47 47 47 47 47 48 50 51 52 52 52 52 52 52 49 46 48 51 56 57 51 45 44 46 44 40 40 43 44 46 49 51 54 56 58 59
47 47 48 49 49 48 48 48 48 49 49 50 51 53 53 52 53 54 55 53 48 45 47 51 54 54 50 48 48 49 46 42 42 45 47 50 52 53 56 58 59 61
48 49 51 51 49 49 50 51 54 55 53 52 52 53 53 53 55 56 57 55 52 51 52 53 55 54 52 51 51 48 45 43 46 50 54 55 56 57 58 60 61 62
49 51 52 50 49 52 53 55 58 57 55 54 54 55 56 57 58 59 58 57 57 58 57 56 56 56 54 51 48 47 47 49 53 59 62 61 60 60 61 61 62 63
51 52 53 53 53 53 53 55 57 56 55 55 56 59 59 58 58 59 60 58 57 59 59 57 56 56 54 51 49 51 56 59 62 65 66 64 63 63 63 63 63 65
51 53 54 54 52 51 53 56 58 58 57 56 57 58 58 58 58 59 60 60 59 61 60 58 58 58 56 54 56 62 65 67 68 69 69 68 67 65 63 63 64 68
51 54 55 52 50 53 56 57 58 59 57 56 59 59 57 57 56 56 57 59 61 63 62 61 62 62 62 63 67 70 70 71 72 73 72 71 69 65 63 64 67 70
51 52 54 54 55 57 57 55 55 56 54 52 56 59 59 59 59 59 59 60 62 64 64 64 65 66 67 70 73 75 75 75 75 74 73 72 68 64 65 67 69 70
49 49 50 53 56 57 55 54 53 52 50 49 53 58 59 59 61 64 63 60 60 61 62 65 68 70 73 76 77 78 79 79 77 75 74 70 66 65 68 71 71 72
49 47 46 49 52 53 52 52 52 50 48 49 53 56 57 59 61 62 59 57 58 60 62 66 71 75 77 79 79 81 82 82 79 76 73 71 70 71 73 73 73 74
48 46 45 46 47 47 46 48 50 48 45 47 52 55 56 58 60 60 58 59 60 62 67 71 77 81 82 82 83 84 84 82 79 76 77 78 77 76 75 75 76 77
47 46 46 46 46 45 44 46 48 46 45 48 53 55 57 58 60 62 65 67 68 69 73 78 83 85 86 85 85 85 83 80 78 79 80 80 77 76 76 79 80 79
47 46 46 47 47 46 43 43 47 49 50 50 51 53 56 57 58 61 66 72 75 76 79 83 86 87 86 84 84 82 80 79 79 80 81 80 79 81 82 82 81 79
49 47 45 44 45 44 43 46 51 53 55 55 54 54 56 57 57 61 68 75 79 80 82 85 87 86 85 83 81 79 78 78 79 81 82 82 84 85 83 80 78 79
51 49 47 45 45 47 50 53 56 58 59 59 60 63 65 67 67 70 75 80 82 84 85 86 86 86 85 84 82 80 80 80 81 83 84 85 86 83 78 75 77 79
55 54 52 51 52 52 54 57 59 60 61 62 64 68 70 72 74 76 79 81 84 85 86 86 86 86 86 85 84 84 84 85 85 87 87 85 81 76 74 75 77 77
61 60 59 58 58 59 58 59 60 62 64 65 68 69 70 71 73 76 79 82 84 85 86 86 86 86 86 85 84 86 87 87 87 86 82 77 74 73 74 76 76 76
66 66 65 64 64 64 63 62 62 63 64 66 67 68 69 70 72 74 78 81 83 85 85 85 85 85 84 84 84 86 86 84 81 77 72 70 70 71 73 74 75 77
70 70 70 69 68 66 64 63 62 62 62 64 66 68 70 71 72 74 76 79 81 83 84 84 83 83 82 81 81 81 81 79 76 71 68 67 67 68 70 73 77 80
74 73 72 72 70 67 64 61 60 59 61 63 64 66 68 70 70 71 74 77 79 81 82 82 81 80 79 77 76 75 75 75 74 71 70 69 69 71 74 78 82 85
75 75 75 74 71 67 63 59 58 59 61 63 63 63 65 66 68 69 71 73 76 79 80 80 80 80 80 79 78 78 78 77 76 75 75 76 78 80 82 85 87 90

ECMWFNIL_250_spd_006.txt.gz
Wind_Speed
35 35 35 35 36 36 37 37 37 37 39 39 39 39 39 38 39 41 43 43 41 39 36 36 39 42 43 44 43 42 43 42 42 43 44 41 38 38 40 41 41 41
35 35 36 36 36 37 37 37 37 38 39 38 37 39 39 40 41 42 42 42 41 39 37 37 38 41 44 45 45 45 45 43 42 43 42 39 39 39 41 41 41 41
36 36 37 37 37 38 38 39 39 39 40 39 40 42 42 41 40 39 40 41 41 41 40 39 40 43 44 45 46 47 46 45 45 44 42 41 41 40 40 41 40 40
37 37 38 39 39 40 40 41 42 43 43 44 45 43 40 41 42 41 41 41 41 42 43 44 45 46 46 46 46 47 48 47 47 46 45 45 44 41 39 39 39 42
38 38 39 40 41 42 43 44 46 47 47 47 46 42 43 47 47 44 43 42 41 42 44 47 47 47 47 47 47 48 50 50 48 47 48 48 46 40 37 39 43 49
39 40 41 42 43 45 46 47 49 49 48 49 48 47 50 50 46 45 45 44 43 43 45 47 47 47 49 49 48 49 51 50 49 49 50 50 46 41 40 45 53 57
40 42 43 44 46 47 47 49 50 50 50 51 51 51 52 48 44 45 45 44 44 44 46 48 49 49 50 49 49 50 51 49 49 51 53 53 49 47 49 56 61 64
41 42 44 45 47 48 49 51 52 52 53 53 53 53 50 45 44 44 43 44 46 45 46 49 51 52 51 49 50 52 51 49 50 53 55 55 55 55 57 63 68 68
43 43 44 46 48 50 52 53 54 54 53 52 53 51 46 43 44 46 46 47 46 45 47 49 51 53 52 50 50 51 51 50 51 53 55 58 59 60 63 68 70 66
44 44 45 47 49 51 54 55 55 54 52 50 51 49 46 46 48 50 51 50 46 46 49 50 52 55 54 53 52 49 49 51 53 55 58 60 61 64 67 68 65 60
45 45 47 48 50 52 53 54 53 52 50 49 51 51 51 51 52 52 52 49 47 47 51 53 55 56 55 53 52 49 48 51 55 58 60 62 64 67 67 64 60 59
48 47 48 49 51 51 52 52 52 50 46 46 48 49 51 52 53 53 51 48 47 48 51 53 54 54 54 53 52 51 51 53 56 59 62 65 67 68 65 63 62 62
49 48 48 49 50 51 51 51 50 46 43 43 44 45 47 51 51 50 49 48 48 49 50 52 53 53 54 55 56 56 57 60 63 66 68 70 71 69 66 65 66 65
50 49 47 47 47 49 50 48 45 44 44 43 43 44 46 48 49 49 49 50 51 52 52 54 56 57 59 60 61 63 64 67 69 71 74 75 74 71 69 68 67 66
51 49 46 44 43 44 47 47 44 41 40 40 42 44 45 46 50 53 53 53 55 56 57 61 63 63 64 65 66 68 71 74 75 77 78 78 75 72 71 69 67 64
53 51 48 45 42 40 43 48 49 46 45 47 48 48 49 53 57 59 59 60 61 63 65 68 69 68 69 70 71 74 77 80 81 81 79 77 74 72 71 69 65 62
55 53 50 47 45 41 42 46 51 53 54 54 54 55 58 61 62 63 65 66 68 70 72 73 73 72 73 74 76 78 80 81 81 79 77 76 74 73 71 68 65 62
58 56 54 51 48 45 45 47 50 53 54 55 56 59 63 65 65 66 68 70 72 73 74 76 76 76 76 78 79 80 80 80 80 78 77 76 75 74 71 69 66 64
60 58 57 55 52 49 48 49 51 52 54 56 59 62 65 67 67 68 70 72 74 74 75 76 77 77 77 78 78 79 79 78 78 78 77 77 76 75 73 70 68 66
62 61 59 57 55 53 52 52 53 54 56 58 60 64 67 68 69 71 72 74 74 75 75 76 76 76 76 76 76 77 78 78 78 78 78 78 77 76 76 74 72 70
63 63 61 59 57 55 55 55 56 57 59 60 63 66 68 69 70 71 72 72 72 73 73 73 73 73 74 75 75 76 77 77 78 78 78 77 76 76 75 74 73 73
65 64 63 61 60 58 57 58 59 60 62 63 66 69 70 70 69 69 69 69 69 69 69 70 70 71 73 74 74 76 77 78 79 78 77 76 75 74 73 73 73 74
67 66 65 64 62 61 61 61 62 63 65 66 69 71 71 70 69 68 68 67 67 67 68 69 70 70 71 71 72 74 75 76 77 76 75 74 73 73 73 73 73 74
68 67 66 65 64 64 64 65 66 66 67 69 71 71 70 69 69 68 67 67 68 68 69 69 69 68 67 68 69 71 72 72 72 72 72 71 70 70 71 71 72 73
68 67 66 65 64 65 67 68 69 70 71 72 72 71 70 70 69 68 68 69 69 70 70 70 69 68 68 67 67 68 69 70 70 70 71 70 68 68 69 70 70 71
67 66 65 64 65 67 69 70 71 72 73 73 72 72 72 71 70 70 70 70 70 71 71 71 71 72 72 72 71 69 69 69 69 70 71 70 70 70 70 70 71 72

ECMWFNIL_250_spd_009.txt.gz
Wind_Speed
28 28 29 29 29 29 29 30 31 32 33 34 36 36 37 37 37 38 38 37 38 39 39 38 37 37 35 34 35 36 36 36 37 38 37 37 38 40 42 42 41 40
30 30 30 30 30 31 31 31 32 34 35 37 38 39 39 39 40 40 39 38 38 39 38 37 37 38 37 36 37 37 37 36 37 38 38 39 40 41 42 42 41 41
31 31 31 32 32 32 32 33 34 36 37 38 39 40 41 41 41 40 39 38 37 36 35 35 36 37 37 38 39 39 39 39 40 41 42 43 43 43 44 43 42 43
32 32 33 34 34 34 34 34 35 37 39 40 41 42 42 42 41 40 38 37 36 34 34 34 36 37 37 38 39 39 40 40 41 43 44 45 45 46 46 45 44 44
33 33 34 35 36 36 36 36 37 39 40 41 42 42 43 42 40 39 38 36 35 35 36 37 38 39 39 39 40 41 41 41 42 43 45 46 47 47 47 46 45 45
34 34 35 37 37 37 38 38 39 40 41 42 43 43 43 41 41 40 39 37 36 36 37 38 40 41 41 41 41 42 42 42 43 44 45 47 47 47 48 47 45 44
36 36 37 39 39 39 40 41 42 43 43 43 44 44 44 43 43 41 38 37 37 38 39 39 41 42 42 42 42 44 45 45 45 46 47 49 49 48 47 46 46 46
38 39 40 40 41 41 42 44 45 45 44 46 46 46 47 47 45 41 38 38 40 42 42 42 43 42 41 42 45 47 48 47 47 48 49 50 49 48 48 49 52 54
41 41 42 42 43 43 45 46 46 45 46 48 49 49 50 49 46 44 43 43 44 45 45 45 44 43 44 46 49 50 50 49 49 49 50 51 52 54 57 60 62 62
43 43 43 43 44 46 47 46 46 46 48 50 51 52 52 50 48 49 48 47 47 46 46 46 46 47 49 52 54 54 53 52 52 54 55 58 61 65 68 69 68 67
45 45 45 45 46 49 49 47 47 48 50 52 53 54 53 52 50 49 48 49 49 48 49 49 50 51 53 56 57 58 58 58 59 60 63 66 68 69 70 70 70 71
46 47 47 48 49 50 49 49 49 49 50 52 54 54 54 54 52 49 48 49 49 50 51 50 51 53 55 57 59 61 62 62 63 65 66 67 68 68 69 70 72 74
47 49 50 51 51 51 51 50 50 51 52 53 54 54 55 54 53 52 51 49 48 48 49 50 52 55 57 59 61 62 63 64 64 65 65 66 66 67 67 69 70 72
49 51 54 53 52 52 53 53 53 53 54 54 55 55 55 54 53 53 52 50 49 49 51 53 56 58 60 62 63 64 65 65 66 66 66 66 66 67 68 68 69 70
51 53 55 55 54 53 54 54 55 56 56 56 56 55 55 54 53 52 52 52 52 53 55 57 59 61 63 64 65 66 67 67 68 68 68 68 68 69 70 70 71 72
54 55 56 56 55 55 54 54 56 57 58 57 57 56 55 54 54 53 53 53 54 56 57 59 61 63 65 66 66 67 67 68 68 68 68 69 69 70 70 71 72 72
57 58 58 58 57 56 56 55 56 57 58 58 57 56 55 54 54 54 53 54 55 57 59 61 63 65 66 67 67 67 67 67 67 67 67 68 70 71 71 70 69 68
59 59 60 60 59 58 58 57 57 58 58 58 57 57 56 55 54 55 55 55 56 58 60 62 64 66 67 67 67 67 67 67 67 67 68 68 69 70 70 68 67 66
60 61 61 61 60 60 60 60 60 59 59 58 57 57 57 56 55 55 55 56 57 59 61 63 65 66 66 66 67 67 68 68 67 67 67 67 68 68 68 68 68 66
62 62 62 62 61 62 62 62 62 61 60 60 59 58 58 58 57 57 57 58 59 61 62 64 65 65 65 66 67 68 69 69 68 67 65 65 67 68 69 71 70 67
63 63 63 64 63 64 64 64 63 63 62 62 61 60 60 59 59 59 59 60 61 63 65 66 66 65 66 67 69 70 69 68 68 67 65 67 69 70 72 74 69 68
64 64 65 66 66 66 65 65 65 65 65 64 64 63 62 61 60 61 62 63 64 65 67 67 66 66 67 69 70 71 70 70 69 67 67 70 70 71 74 70 64 68
66 65 65 67 68 68 67 66 66 67 67 66 65 64 63 63 62 63 64 65 66 67 69 68 67 67 69 71 71 71 71 71 69 68 69 70 70 73 73 65 64 74
69 68 67 68 69 70 68 67 68 69 68 68 67 66 65 64 64 65 66 67 68 69 70 70 69 69 71 72 73 72 72 71 71 70 70 70 72 73 68 65 73 83
71 71 70 70 71 70 69 68 69 69 69 68 68 66 66 65 66 67 67 69 70 71 71 71 70 71 73 74 74 74 73 73 73 73 72 72 73 73 70 73 82 86
74 73 73 72 72 71 69 67 68 69 70 69 68 67 66 67 67 68 69 70 72 71 71 71 72 73 74 75 75 75 74 75 75 75 74 75 75 76 77 81 86 86

ECMWFNIL_250_spd_012.txt.gz
Wind_Speed
25 24 24 24 24 24 25 25 27 28 30 31 32 32 32 33 35 36 37 38 38 39 39 39 39 37 35 33 32 32 35 36 34 33 35 37 39 40 42 43 45 46
26 26 25 25 25 26 26 27 28 30 31 33 33 33 33 34 35 37 39 39 39 40 40 40 39 38 37 35 34 35 37 36 34 34 37 40 42 44 45 46 48 49
27 27 27 27 27 27 28 29 30 31 33 34 35 36 35 35 36 37 39 41 42 42 41 41 40 40 39 38 38 38 37 35 36 38 40 42 44 46 47 48 50 51
29 29 29 29 29 29 30 31 32 33 34 35 36 37 37 36 37 38 40 42 43 44 44 43 43 43 42 41 40 40 39 39 40 42 44 46 47 48 49 50 52 53
31 31 31 31 31 31 32 33 34 34 35 36 38 39 39 39 39 39 41 43 44 46 46 45 44 43 41 41 41 41 42 43 43 44 47 49 50 51 52 54 55 56
33 33 32 32 33 33 35 35 36 36 36 37 38 40 41 41 41 41 42 44 45 45 46 46 45 43 42 41 42 43 43 44 44 46 49 51 52 53 55 57 58 58
34 34 34 34 35 35 36 37 38 38 38 38 39 40 42 42 43 43 44 45 46 46 47 47 47 45 44 44 44 44 44 44 46 48 51 52 54 55 57 58 59 58
37 37 36 36 37 38 39 39 40 40 40 41 41 42 42 43 44 45 45 46 47 47 47 48 48 47 46 46 46 45 45 46 47 48 49 51 54 57 59 60 59 58
39 40 39 38 39 40 41 41 42 42 43 44 44 44 44 45 45 46 47 47 48 49 50 49 48 48 48 48 48 47 47 47 47 48 49 52 54 58 60 61 60 59
41 42 43 43 43 43 43 44 44 44 45 46 46 46 46 46 46 47 48 49 49 51 51 51 50 49 49 49 49 48 47 48 49 51 53 56 58 60 62 62 62 62
44 45 46 46 45 45 46 46 47 47 47 47 47 48 48 48 48 49 50 51 51 52 52 52 52 51 50 50 49 48 49 50 52 54 56 59 60 62 63 62 62 63
47 48 48 47 47 48 48 48 49 49 50 50 49 49 50 50 49 50 51 52 53 54 54 53 53 53 52 50 49 49 50 52 55 57 59 60 62 62 62 63 63 64
49 50 49 49 49 50 50 51 51 51 52 52 52 51 52 52 51 51 52 53 55 55 55 55 54 54 53 51 49 50 51 54 57 59 61 63 63 63 62 63 64 65
51 51 51 51 51 52 52 53 53 53 53 54 54 54 54 53 53 52 53 54 55 56 56 56 56 55 54 52 51 51 53 55 58 60 63 65 65 64 64 64 65 65
53 53 53 53 54 54 54 54 55 55 55 55 55 56 56 56 56 55 55 56 57 57 57 57 58 57 56 55 53 52 54 56 59 62 64 65 65 65 65 65 65 66
55 54 54 55 56 56 56 56 56 56 57 57 57 57 58 58 58 58 58 59 59 59 59 59 59 59 58 57 55 54 55 57 60 62 64 65 66 65 65 66 66 66
57 56 56 57 58 58 58 58 58 58 59 58 58 59 59 60 60 60 60 61 61 61 60 59 59 60 59 59 58 57 57 59 61 63 64 65 66 66 66 67 67 67
59 58 58 59 59 59 59 59 59 60 60 60 60 60 60 61 62 62 62 62 62 62 61 61 60 60 61 61 61 60 59 61 63 64 65 66 67 67 67 68 68 68
62 61 60 60 60 60 60 60 60 61 62 62 61 60 61 62 62 63 63 63 63 64 63 62 61 62 62 62 63 63 62 63 65 66 66 67 68 69 69 69 70 69
64 63 62 62 62 62 62 62 62 63 64 65 64 62 62 63 63 64 65 65 64 64 64 63 62 63 63 64 65 65 65 66 67 68 69 69 70 70 70 71 71 71
65 65 64 63 64 64 64 64 64 66 67 68 67 66 65 65 65 65 66 66 66 65 65 65 64 64 64 66 67 68 68 68 69 71 71 72 71 71 71 72 72 72
66 65 65 65 66 66 66 66 66 68 70 70 70 69 68 68 67 66 67 67 68 67 67 67 66 65 66 67 68 70 70 71 72 73 73 73 73 72 73 73 73 72
67 67 67 67 68 68 68 68 68 70 71 72 72 72 70 69 68 68 68 68 69 69 69 69 69 68 68 69 69 71 72 73 74 74 74 73 74 74 74 74 74 74
69 69 69 69 70 70 70 69 70 71 73 74 75 75 73 72 70 69 68 69 70 71 71 72 71 70 70 70 71 72 73 74 75 75 75 75 75 75 76 76 76 75
72 71 71 72 73 73 73 72 72 73 75 77 78 78 76 74 72 71 70 71 72 72 73 73 72 72 72 72 72 73 74 75 76 76 76 76 76 76 77 77 77 77
73 73 74 75 76 76 76 74 73 75 78 79 80 81 79 76 73 73 72 72 73 74 74 74 73 73 73 73 74 75 75 76 77 77 76 77 77 77 78 78 78 79

ECMWFNIL_250_spd_018.txt.gz
Wind_Speed
18 20 22 24 25 24 24 23 22 22 22 22 23 24 25 26 26 26 28 31 32 34 35 36 37 37 37 38 38 39 39 39 39 40 41 41 41 40 40 40 40 40
19 21 23 25 26 25 25 24 23 23 23 24 25 26 26 27 27 28 30 31 33 34 36 37 38 39 39 40 40 40 41 41 41 42 42 43 43 42 42 41 41 41
21 22 24 26 27 26 27 26 25 25 25 26 27 28 28 28 29 30 31 32 34 35 36 37 39 40 41 41 42 42 42 42 43 43 44 44 44 44 43 42 42 42
23 23 25 27 27 27 27 27 27 27 28 29 29 30 30 31 31 32 33 33 35 36 37 38 39 41 42 42 43 43 43 43 43 44 45 45 45 45 44 44 43 43
25 25 26 28 28 28 28 28 28 29 30 32 32 32 33 34 34 34 34 35 36 37 38 40 40 41 43 44 44 45 45 45 45 45 45 46 47 46 46 45 45 45
28 27 28 28 28 28 29 29 30 31 33 34 34 35 36 36 36 36 36 36 37 38 39 41 42 42 43 44 46 46 47 47 47 47 47 47 48 49 48 48 47 47
30 30 30 28 28 28 29 30 32 33 34 36 36 37 38 39 38 38 38 38 38 38 40 41 42 43 44 45 46 47 48 49 49 49 49 49 49 50 51 51 50 49
33 33 32 29 28 29 30 31 33 34 36 37 38 40 41 41 41 40 40 40 40 40 41 42 43 44 44 45 47 48 49 51 51 51 51 50 50 51 52 53 53 53
35 35 34 31 30 30 31 33 34 36 37 38 39 41 43 43 42 42 42 42 42 42 43 44 44 44 45 46 47 49 50 51 52 53 53 52 52 52 53 54 55 56
37 37 36 34 33 33 33 35 36 38 39 40 41 43 45 45 44 44 45 45 45 45 45 46 47 46 46 47 48 49 51 52 54 54 55 55 55 55 55 55 56 57
37 38 38 37 37 37 37 38 39 40 41 42 43 45 46 46 45 46 47 46 47 47 48 49 50 49 49 49 49 50 51 53 55 56 57 58 59 59 58 58 58 58
39 40 40 41 41 41 41 40 41 42 43 44 45 47 47 47 48 49 48 48 50 51 51 51 52 53 52 51 51 51 52 54 56 58 59 60 61 61 61 61 61 61
42 43 43 43 43 43 43 43 43 44 44 45 47 48 49 49 50 51 51 51 53 53 53 54 55 56 56 56 55 54 54 55 57 59 60 61 61 62 62 62 62 63
44 45 45 46 45 45 45 45 45 45 45 46 48 49 50 51 52 52 53 54 55 55 55 56 57 58 59 60 59 58 57 57 59 60 62 62 63 64 64 64 64 64
47 47 48 48 47 47 47 47 47 47 47 48 49 51 52 52 53 54 55 56 57 57 57 58 59 60 61 61 62 61 60 61 61 63 64 65 66 66 66 66 67 67
49 50 50 50 49 50 49 49 49 49 49 49 51 53 54 54 55 56 58 59 59 60 60 60 60 61 61 62 63 64 64 64 64 65 67 68 69 69 69 69 69 69
52 52 52 52 52 52 51 51 50 50 51 51 52 54 55 56 57 59 60 61 62 63 63 63 63 63 63 64 65 66 67 67 68 69 70 71 71 72 72 72 72 72
55 54 54 54 54 53 52 52 52 53 53 53 53 54 56 57 59 61 62 63 64 65 66 66 66 66 65 66 67 68 69 70 71 72 72 73 74 74 75 75 74 73
57 56 56 56 56 55 54 53 54 55 55 55 55 56 57 59 61 62 63 65 65 67 68 69 69 69 69 69 70 71 71 72 73 74 75 76 76 77 77 76 75 74
58 58 58 58 57 56 55 55 56 57 57 57 58 59 60 61 62 64 65 66 66 68 69 71 72 72 72 72 72 73 73 74 75 76 77 77 78 78 78 77 75 74
60 60 59 59 58 57 57 57 58 58 59 59 60 61 62 63 64 65 66 67 68 69 70 72 73 74 74 74 74 74 74 75 77 78 78 78 79 79 77 76 75 74
61 61 60 59 59 58 58 59 60 61 61 62 63 64 64 65 66 67 68 69 69 70 71 73 73 73 73 74 75 75 76 78 79 79 79 79 79 78 77 75 75 74
62 61 60 60 59 59 61 62 63 63 64 64 65 66 66 66 67 69 70 71 71 71 72 73 73 72 72 74 76 77 78 80 80 80 80 80 79 78 77 76 75 75
63 63 62 61 62 63 64 65 66 66 67 67 67 67 68 68 69 70 72 73 72 72 73 73 73 72 73 75 77 79 80 81 81 81 80 79 78 78 77 76 75 76
65 65 64 65 66 67 68 69 70 69 69 69 69 70 70 71 71 72 74 74 74 73 74 74 74 74 76 78 80 81 82 81 81 80 80 79 78 78 77 76 76 77
66 67 68 69 70 72 73 74 73 72 72 72 71 71 72 73 74 75 76 76 76 75 75 75 75 76 78 79 81 81 81 80 80 79 78 78 78 77 76 76 77 79

ECMWFNIL_250_spd_021.txt.gz
Wind_Speed
19 19 19 18 17 17 15 12 12 13 15 18 20 22 22 23 25 26 26 26 27 28 29 31 32 33 34 34 35 35 35 35 35 35 36 36 37 38 39 39 40 41
21 20 20 20 19 19 18 15 13 14 15 18 21 22 22 24 26 27 27 28 28 29 30 31 32 33 34 35 36 36 37 37 37 37 37 38 38 39 40 40 41 42
23 23 22 21 21 21 20 17 16 15 15 18 22 23 23 25 27 29 29 29 29 30 31 32 33 34 35 36 36 37 38 38 39 39 39 40 40 41 41 42 42 43
25 25 25 24 23 23 23 21 19 17 17 19 22 24 24 25 28 30 30 30 31 32 32 32 34 35 36 37 38 39 40 40 40 40 41 41 42 42 43 43 44 44
28 27 27 26 24 24 25 23 22 20 19 20 23 25 25 26 29 31 31 31 32 33 33 33 35 36 37 38 40 41 42 42 42 42 43 43 44 44 46 46 46 46
31 30 29 29 27 26 25 25 24 23 22 22 25 26 26 27 30 32 33 33 33 34 34 35 36 37 38 40 42 43 43 44 45 45 45 45 45 46 47 49 50 50
32 31 31 31 30 28 27 26 26 26 25 26 28 28 28 30 32 33 34 34 34 35 36 36 37 38 39 41 43 44 45 46 47 47 47 47 47 48 49 50 52 53
33 33 33 33 32 31 29 28 27 27 28 30 31 32 32 33 35 36 36 35 36 36 37 38 38 39 41 42 44 45 47 48 49 49 49 50 50 50 51 52 53 55
35 34 34 34 34 32 31 30 28 28 29 32 34 35 35 37 38 38 37 37 37 37 38 39 40 40 42 43 45 47 48 50 51 51 52 52 52 52 53 54 55 56
35 34 34 34 34 33 32 31 31 30 31 33 35 36 37 39 40 40 39 38 39 39 40 41 42 42 43 45 47 48 50 51 52 53 54 54 54 55 55 56 57 58
36 36 35 34 33 32 32 32 32 33 33 35 37 37 39 41 42 42 41 40 40 41 42 43 43 43 44 46 47 49 52 53 54 55 55 56 57 57 58 58 59 60
38 38 37 36 34 34 33 34 35 35 36 38 39 39 41 43 44 44 43 42 42 42 44 44 44 44 45 47 48 50 52 54 56 57 57 58 59 60 61 60 60 61
40 40 40 38 37 36 36 37 38 38 39 40 40 41 43 44 45 45 45 44 44 44 45 46 46 46 47 48 49 51 53 55 57 58 59 60 61 63 63 61 61 62
42 43 42 41 40 39 39 40 41 41 42 42 42 43 45 46 47 47 47 46 46 47 47 48 48 49 50 50 52 53 54 56 58 60 61 62 63 65 64 62 62 63
45 45 45 44 43 42 43 44 44 44 44 44 45 46 46 48 49 50 49 48 48 49 50 50 51 52 53 53 54 55 57 58 60 61 63 64 65 66 66 64 64 66
48 49 49 48 46 45 45 46 47 46 46 46 48 48 47 49 51 52 51 50 51 51 52 53 54 55 56 56 57 58 59 60 62 63 65 66 67 68 67 67 67 69
51 52 52 51 49 48 47 48 49 48 48 49 50 50 49 50 52 53 53 52 53 53 54 55 56 58 58 59 60 61 62 63 64 65 66 67 68 69 69 69 70 72
53 54 54 53 52 50 50 50 51 51 50 51 52 52 51 52 54 55 54 54 54 55 56 57 58 59 60 61 63 64 64 65 66 67 68 69 70 71 71 71 72 74
55 55 56 56 55 53 52 52 53 53 53 53 54 54 53 54 56 56 56 56 56 56 57 58 60 61 62 64 65 66 66 67 69 70 70 71 71 72 72 73 74 75
58 58 59 60 59 57 55 55 55 56 56 56 56 56 55 55 57 57 57 57 57 58 59 61 62 63 64 65 66 67 68 69 71 72 72 72 73 73 74 73 73 74
61 62 62 63 62 60 58 57 58 58 58 58 57 57 57 57 58 58 58 59 59 59 61 63 64 65 65 66 67 68 70 71 73 73 73 73 74 74 75 73 71 72
64 65 65 65 64 62 60 59 59 59 59 59 58 58 58 58 58 59 60 60 60 61 63 65 66 67 67 68 69 70 72 73 74 74 74 74 75 75 75 73 70 69
67 67 68 68 66 64 62 61 61 60 60 60 60 60 60 59 60 61 62 62 62 63 65 67 69 69 69 70 71 72 74 74 74 74 74 75 75 74 72 70 67 68
70 69 70 71 69 67 65 63 62 62 62 61 62 62 62 61 62 63 64 65 65 65 67 69 71 71 71 72 73 75 75 74 73 73 74 74 72 69 68 67 67 68
73 72 72 73 73 71 69 67 65 64 64 64 64 64 64 64 64 66 67 68 66 66 68 70 70 71 73 74 75 76 76 74 72 72 72 70 67 65 65 67 67 68
78 75 74 75 75 75 73 71 68 67 67 67 67 67 66 66 67 69 71 70 68 68 69 70 71 74 75 76 77 77 76 73 71 69 66 63 62 62 64 66 65 66

ECMWFNIL_250_spd_024.txt.gz
Wind_Speed
17 17 17 17 16 15 13 13 13 13 14 15 17 19 18 15 16 17 17 16 16 17 19 20 20 21 22 24 25 27 28 30 30 31 32 33 34 35 36 37 38 39
16 16 17 17 18 17 16 15 15 15 17 18 19 21 21 19 19 20 20 19 19 19 21 21 22 22 23 24 25 27 29 30 32 33 34 35 36 37 37 38 39 40
18 19 18 18 19 19 19 18 17 17 19 20 21 23 23 23 22 22 22 23 23 23 23 24 24 24 24 25 26 28 30 31 33 34 35 36 38 39 39 40 40 41
22 22 21 20 20 21 21 20 19 19 20 22 23 24 25 24 24 25 25 26 27 27 26 26 26 26 26 26 27 29 31 32 34 36 37 39 40 41 42 42 43 43
25 25 24 23 23 23 23 22 21 21 22 24 25 26 26 26 26 27 28 29 29 28 28 28 28 28 28 28 29 31 33 34 36 37 39 40 41 43 44 45 46 47
28 27 27 25 25 25 25 24 23 24 25 25 26 27 27 27 27 29 30 31 31 30 29 29 30 30 30 31 31 33 34 35 37 39 40 42 43 44 46 48 49 50
30 29 28 27 26 26 26 25 25 26 27 28 29 30 30 29 29 30 32 33 33 32 31 31 31 32 32 33 34 35 36 37 38 40 41 43 45 46 47 49 51 52
31 30 29 28 27 27 27 26 26 27 28 29 31 32 32 32 31 32 34 35 35 34 33 33 33 33 34 35 36 37 38 39 40 41 43 45 46 47 49 50 51 53
33 31 30 30 29 29 28 27 27 27 28 29 31 33 33 33 33 35 36 37 37 36 35 35 35 35 36 37 38 39 40 41 42 43 45 46 47 49 50 51 52 54
35 33 32 32 31 31 30 29 29 29 29 30 31 32 34 33 34 36 37 38 38 38 38 38 37 37 38 39 40 41 42 43 44 45 46 48 49 50 52 53 53 54
36 36 34 34 33 33 32 31 31 32 32 32 33 34 35 35 35 36 38 39 39 40 40 40 39 40 40 41 42 43 44 46 46 47 48 49 50 52 53 55 55 56
39 38 37 36 35 35 35 34 34 34 34 34 35 36 37 37 36 37 39 40 41 42 41 41 42 42 42 43 44 45 46 48 48 49 50 51 52 53 55 56 56 57
42 41 40 39 38 38 37 37 37 37 37 37 37 38 39 39 38 39 41 42 43 43 43 43 44 44 44 45 46 47 48 49 50 51 52 53 54 55 56 56 56 59
44 44 43 42 41 41 41 41 40 40 39 39 40 41 42 42 41 41 43 44 46 46 44 44 45 46 46 47 48 49 49 50 52 53 54 55 56 56 57 56 57 61
46 46 45 45 44 44 44 43 43 43 42 42 43 44 45 45 45 44 45 47 48 48 46 46 48 48 48 49 51 51 51 51 53 55 56 57 58 59 58 57 59 63
49 48 48 47 47 47 46 46 46 45 45 46 46 47 48 49 48 47 48 50 50 49 48 49 50 50 50 51 52 52 52 53 55 57 58 59 60 60 60 59 60 64
51 51 51 51 51 50 49 49 48 49 49 49 49 50 51 52 51 50 51 52 52 51 50 51 52 52 52 53 54 54 53 54 56 58 59 60 62 62 61 59 60 66
55 54 54 55 54 53 52 51 51 52 53 53 52 52 53 53 53 53 52 53 53 52 53 53 54 53 54 55 55 55 55 56 58 60 61 62 63 63 61 59 61 66
59 58 58 58 58 57 56 55 54 55 56 56 55 54 53 54 56 55 54 55 55 55 55 55 55 55 56 57 57 57 56 58 60 62 63 63 63 63 62 61 62 62
63 62 62 62 61 60 58 58 58 58 58 58 58 57 55 56 57 57 56 56 57 57 57 56 56 56 57 59 59 59 58 59 62 64 65 64 64 64 63 63 64 61
65 65 65 65 64 63 62 61 61 62 62 61 60 59 59 58 58 58 58 58 58 58 58 57 57 58 60 61 61 60 60 60 63 66 66 65 65 64 65 65 64 58
68 68 68 67 67 65 64 64 64 65 65 63 62 61 61 60 59 60 60 59 59 59 59 59 60 60 62 63 62 62 62 62 64 67 67 66 66 66 66 63 57 48
71 70 70 70 69 68 67 68 68 68 67 66 64 63 62 62 61 61 61 60 60 61 62 62 62 63 64 65 65 64 63 64 67 69 67 67 68 66 60 53 46 41
74 73 73 73 72 70 71 72 72 71 70 68 67 65 64 65 64 63 63 63 63 64 64 64 64 65 67 68 68 67 66 67 69 68 68 70 69 60 49 44 42 42
77 76 76 76 75 74 75 76 76 76 74 72 70 68 68 68 68 67 66 66 67 67 67 67 66 68 70 71 70 68 68 69 69 69 70 70 61 47 41 42 44 46
79 79 79 79 78 78 78 79 80 80 78 76 74 73 72 72 71 70 70 70 70 70 70 69 69 70 73 73 71 69 70 71 70 69 68 61 47 39 41 45 48 50

ECMWFNIL_250_spd_030.txt.gz
Wind_Speed
17 16 16 15 14 13 12 12 13 13 12 11 11 11 10 10 10 10 11 11 11 11 12 14 15 16 17 18 20 20 21 21 23 24 25 26 27 27 28 30 31 32
18 18 17 16 16 15 15 15 14 13 12 12 13 13 13 13 12 12 13 15 15 15 15 16 17 18 19 20 21 21 22 23 24 25 26 27 28 29 30 31 32 33
19 19 18 17 17 17 16 15 14 13 13 13 14 15 15 15 15 15 15 16 18 18 18 18 19 20 20 21 22 22 23 24 25 26 27 28 29 30 30 32 33 34
20 19 19 18 18 17 16 14 13 13 14 15 16 17 18 18 19 19 18 18 19 20 20 19 20 21 22 22 23 23 24 25 26 27 28 29 30 31 32 33 34 35
21 21 20 19 18 17 16 15 14 15 16 17 18 20 21 22 22 22 22 21 21 22 22 21 22 23 23 24 24 25 25 26 28 29 30 30 31 32 33 35 36 37
22 21 20 19 18 18 18 17 17 17 17 18 20 22 23 24 24 24 24 24 23 23 24 24 24 24 25 26 26 27 27 28 29 30 31 32 33 34 35 36 37 38
23 22 21 21 20 20 19 19 19 19 19 20 22 23 25 25 26 25 25 25 25 25 25 25 26 26 27 28 29 29 30 30 31 32 33 34 35 35 36 37 39 40
26 26 25 24 22 22 21 20 21 21 22 23 24 25 26 26 26 26 26 26 26 26 26 27 28 28 29 30 31 31 32 32 33 34 35 35 36 37 37 39 40 41
30 29 28 26 25 24 23 23 24 24 25 26 26 27 27 28 28 28 28 28 27 27 27 28 29 30 31 32 33 33 34 34 35 36 36 37 38 39 39 40 41 43
32 31 30 29 28 27 27 27 27 28 29 29 29 29 29 29 29 30 30 30 29 29 29 30 31 33 33 34 34 35 36 37 37 38 39 39 40 41 41 42 43 44
34 33 32 32 30 30 31 31 31 32 32 32 32 31 31 31 31 31 31 31 31 31 31 32 34 35 36 36 36 37 37 38 39 40 40 41 42 43 43 44 45 45
36 36 35 34 34 34 34 35 35 35 35 35 34 34 34 33 33 33 33 34 34 34 34 35 36 37 38 38 38 38 39 40 41 42 42 43 43 44 46 46 47 47
39 39 38 37 37 37 37 38 38 38 38 37 37 36 36 35 36 36 36 36 36 36 36 37 38 39 40 40 40 40 41 42 43 44 44 45 45 46 48 48 49 49
42 42 41 40 39 39 40 40 41 40 40 39 38 38 38 38 38 38 38 38 38 38 38 38 40 41 42 42 42 42 43 44 45 46 46 46 47 48 49 50 51 50
44 44 43 42 42 42 43 43 43 42 42 41 41 40 40 40 40 40 40 40 40 40 39 40 41 43 44 44 44 44 45 46 47 48 48 48 49 50 51 52 52 52
45 46 46 44 44 44 44 44 44 44 43 43 42 42 42 42 42 42 42 42 42 42 42 42 43 45 46 46 46 47 47 48 49 50 50 50 51 52 53 54 54 54
48 48 47 46 45 45 45 45 45 45 44 44 44 44 44 44 43 44 44 44 45 45 45 45 46 48 49 49 49 50 50 50 51 52 52 53 53 54 55 56 56 56
49 49 49 48 47 46 46 46 46 46 46 46 46 46 46 46 46 46 46 46 47 48 48 49 50 51 52 52 52 52 52 52 53 53 54 55 56 56 57 58 59 59
50 50 50 50 49 48 47 47 47 48 49 49 49 49 49 49 49 49 49 50 50 51 51 52 53 54 54 54 54 54 54 54 55 55 56 57 58 59 59 60 61 61
53 53 53 53 52 51 50 50 51 51 52 52 52 52 52 52 52 52 53 53 52 53 54 54 55 56 57 57 57 56 56 56 57 58 59 59 61 61 62 63 63 63
55 56 55 55 55 54 54 54 54 55 56 56 55 54 54 54 54 55 56 56 55 55 56 57 58 59 60 60 60 60 60 60 60 61 62 62 63 64 64 65 66 66
58 58 58 58 58 58 58 59 59 59 59 59 58 58 57 57 57 58 58 59 59 59 59 60 61 62 63 64 63 63 63 63 63 64 64 64 65 66 66 67 67 67
59 59 60 60 60 61 62 62 62 62 62 62 62 61 61 61 61 61 61 61 62 62 63 63 64 65 65 66 66 65 65 65 65 65 65 65 66 66 66 67 66 65
53 53 54 55 56 57 58 59 59 60 60 60 60 60 61 61 61 61 61 61 61 61 61 61 62 62 63 63 64 63 62 62 63 64 64 64 64 65 65 65 64 64
46 47 48 50 51 51 52 53 53 53 53 53 54 54 55 55 55 55 55 55 54 53 53 54 54 55 56 57 58 58 57 57 58 59 60 61 62 62 62 62 61 61
42 43 44 46 46 46 47 47 48 47 47 47 48 48 47 47 47 48 49 49 48 47 47 48 49 50 51 53 54 55 54 54 54 55 57 59 59 59 60 59 59 59

ECMWFNIL_250_spd_033.txt.gz
Wind_Speed
17 15 14 13 12 11 10 10 10 10 10 9 9 9 9 9 9 8 7 8 8 9 11 12 13 14 15 17 17 18 18 18 19 19 20 22 23 24 25 26 26 26
18 17 17 15 14 13 12 13 12 12 12 12 11 11 12 11 11 11 11 11 12 13 14 14 15 15 15 17 18 19 19 19 19 20 21 22 23 24 26 26 27 28
20 19 18 17 16 15 15 15 14 13 12 12 12 13 13 13 14 14 14 14 15 16 16 17 17 17 17 18 19 19 20 20 20 21 21 22 23 25 26 27 28 29
20 19 19 19 18 17 17 16 14 14 12 11 12 13 14 15 16 17 17 18 18 18 18 18 19 19 19 19 19 20 21 22 22 22 23 24 25 26 27 28 29 30
20 19 19 19 19 19 18 17 16 15 14 13 14 15 15 16 17 18 19 20 20 20 19 19 19 20 20 20 21 22 22 23 23 24 25 25 26 27 28 29 31 31
22 20 20 20 20 21 20 18 17 17 16 16 17 17 18 18 18 19 19 21 22 21 20 20 20 20 21 21 22 23 24 25 25 26 26 27 28 29 30 31 32 33
23 22 22 22 22 22 21 20 19 20 19 20 20 20 20 20 20 20 21 21 23 23 23 22 22 22 22 23 24 25 26 27 27 28 28 29 29 30 31 33 34 35
26 25 25 25 24 24 23 22 23 23 23 24 24 23 23 23 23 23 23 23 24 25 26 25 25 24 24 25 26 27 28 29 29 30 30 31 31 32 33 34 35 36
30 30 29 28 27 26 26 26 26 27 27 27 26 26 26 26 26 26 26 25 25 26 27 28 28 27 27 27 28 29 29 30 31 32 33 33 33 34 35 36 37 38
33 33 32 31 30 29 28 28 29 29 29 29 29 28 28 28 28 29 29 29 28 28 29 30 30 30 30 30 30 30 31 32 32 34 35 36 36 36 37 38 39 40
35 34 34 33 31 31 30 31 31 31 32 31 31 31 31 31 31 31 32 32 31 31 31 31 32 33 33 33 32 32 33 33 34 35 36 37 38 39 39 40 42 43
37 36 35 34 33 32 33 33 33 34 34 33 33 33 33 33 34 34 34 34 34 34 34 33 34 36 36 36 35 34 34 35 35 36 38 39 40 41 42 43 44 45
39 38 37 35 34 34 34 35 36 37 36 35 35 35 36 36 36 36 36 37 36 36 36 36 37 38 38 38 37 37 37 37 37 38 39 41 43 44 45 45 46 46
40 39 37 36 35 36 36 37 38 38 38 37 38 38 38 39 39 39 39 39 39 38 39 39 39 40 40 40 40 39 39 39 40 41 42 44 45 46 47 47 48 48
39 37 37 36 36 36 37 38 39 39 39 40 40 40 41 41 41 41 41 41 40 40 40 41 41 42 42 42 42 42 42 42 43 44 45 46 47 49 49 50 50 51
38 37 37 37 37 37 38 38 40 41 41 42 42 42 43 43 43 42 42 42 42 42 42 43 43 44 44 44 44 44 45 46 47 47 48 49 50 51 51 52 53 54
40 39 39 39 39 40 40 41 41 42 43 43 44 44 44 44 44 43 44 43 43 44 44 45 46 46 47 47 47 47 48 49 50 50 51 52 53 53 54 55 56 57
42 42 41 42 42 43 43 43 44 44 45 45 46 46 46 45 45 45 45 45 45 46 47 47 49 50 50 50 51 51 51 52 52 53 54 55 56 57 58 58 59 60
44 43 43 44 44 45 45 45 46 46 46 47 47 47 47 47 47 47 47 47 48 48 49 50 51 52 53 54 54 54 55 55 56 57 57 59 60 61 61 62 62 63
45 45 45 45 45 46 46 46 47 47 47 48 48 48 49 49 49 49 49 50 50 51 53 53 54 55 56 57 57 58 58 59 59 60 61 62 62 63 63 63 63 63
47 46 46 46 46 47 47 48 48 49 49 49 49 50 51 51 51 52 52 53 53 55 56 58 58 59 60 60 61 61 61 61 60 61 61 61 61 60 60 60 60 60
49 48 48 48 48 49 50 51 51 52 52 51 51 52 53 54 54 54 55 56 57 58 59 61 61 61 61 61 61 61 60 59 58 57 57 56 56 56 55 55 56 56
50 50 50 51 51 52 53 54 55 54 54 54 55 55 56 57 57 57 57 58 58 58 57 58 58 57 57 57 57 57 55 53 52 51 50 50 51 52 52 52 53 53
53 53 54 54 55 56 56 57 56 56 56 56 56 56 55 55 55 54 54 54 53 53 52 51 51 51 51 52 52 52 51 49 47 46 45 47 49 50 51 52 52 53
53 53 53 53 53 54 54 53 52 51 51 51 50 50 49 48 48 48 48 48 48 48 48 48 48 47 48 48 49 49 48 47 46 45 44 45 47 49 50 51 53 54
47 47 46 46 47 47 47 46 45 44 44 44 43 43 43 44 44 44 44 45 45 45 46 47 47 46 46 46 47 47 47 47 46 45 45 44 45 47 49 50 51 53

ECMWFNIL_250_spd_036.txt.gz
Wind_Speed
16 15 14 13 13 12 10 10 10 9 8 7 7 7 7 7 6 6 6 7 7 8 9 10 11 12 13 13 14 14 15 16 17 17 17 18 19 20 21 22 22 23
17 16 16 15 14 13 12 12 12 10 9 9 8 8 8 8 7 7 7 8 9 9 10 12 13 13 14 15 15 15 15 17 17 18 18 18 20 21 22 23 23 24
20 19 19 17 16 15 15 14 13 12 11 11 10 10 9 9 8 8 8 9 10 11 11 13 14 14 14 15 16 16 16 17 18 19 19 20 21 22 23 24 24 25
23 22 21 20 19 19 18 16 14 14 14 14 13 12 11 10 9 9 10 11 11 12 12 13 14 14 14 15 16 17 18 18 19 20 21 22 23 24 24 25 26 26
25 24 23 23 22 21 19 18 17 17 17 16 15 14 13 12 11 11 11 12 13 13 14 14 14 15 15 16 17 18 19 20 21 21 22 23 25 26 26 27 27 28
26 24 23 22 22 22 21 21 20 20 19 18 18 17 15 14 14 14 14 14 14 15 15 15 15 16 17 18 19 20 21 22 23 24 24 25 26 27 28 29 29 30
25 24 23 23 23 23 23 22 22 21 21 21 21 20 19 18 17 17 16 16 16 17 17 18 18 18 19 20 21 22 23 25 25 26 27 28 28 29 30 31 31 32
27 26 26 26 26 25 25 24 23 23 24 25 24 23 23 22 20 20 19 19 19 19 20 20 21 21 22 22 23 24 25 27 28 28 29 30 31 32 33 34 34 34
30 30 29 29 29 28 26 25 24 25 26 26 26 26 26 24 23 22 22 22 21 21 22 23 24 24 25 25 26 26 27 29 30 31 31 32 34 35 35 36 36 37
32 32 31 30 30 28 27 26 26 27 28 28 28 28 27 26 26 25 25 24 24 24 24 25 27 28 28 29 29 29 29 31 32 33 34 34 35 37 38 38 39 39
34 33 33 32 31 30 29 28 29 29 30 30 30 30 29 28 28 28 27 27 27 27 28 28 30 31 32 32 32 32 32 32 34 35 36 36 37 38 39 40 41 41
36 36 35 35 33 32 32 31 31 32 32 32 32 32 32 31 31 30 30 30 30 31 31 31 33 34 35 35 35 35 34 34 35 37 38 39 39 40 41 42 44 44
39 38 37 36 36 35 34 34 34 34 34 33 34 34 34 33 33 33 33 33 33 34 34 35 35 36 37 37 37 37 37 37 38 39 40 41 42 43 44 45 46 47
41 39 39 38 37 36 35 35 35 35 35 34 35 35 35 35 35 35 35 35 36 36 37 38 38 39 39 39 39 39 40 40 40 41 42 43 44 46 47 48 49 50
41 40 39 39 37 37 36 36 35 36 36 35 35 35 35 36 36 36 37 37 38 39 39 40 41 41 41 41 41 41 42 43 43 44 45 46 47 48 50 51 52 53
42 41 40 39 38 37 36 36 36 36 37 37 36 37 37 37 38 38 38 39 40 41 42 42 43 43 43 43 42 42 43 44 46 47 48 49 50 51 53 54 55 56
43 42 41 40 38 38 37 37 37 38 39 39 39 39 39 39 39 40 40 41 42 43 44 44 44 44 44 44 44 44 45 46 48 50 51 52 53 55 56 57 58 59
43 43 42 41 40 40 39 39 39 39 40 40 40 40 40 40 40 41 41 42 43 44 44 45 45 45 46 46 46 47 48 49 51 53 55 56 57 58 59 59 59 59
44 44 43 42 42 41 41 40 40 40 41 41 40 40 40 41 41 42 43 44 44 45 45 46 47 48 49 49 49 49 50 52 54 56 58 59 60 60 59 58 57 54
45 44 44 43 43 42 42 42 42 42 41 41 41 41 41 42 43 44 44 45 45 46 47 48 49 50 51 52 52 53 53 55 57 58 59 59 59 57 55 53 51 49
46 45 44 44 43 43 43 43 44 43 42 42 42 42 43 44 45 45 45 45 46 47 49 50 51 52 54 55 55 56 56 57 57 56 55 54 52 51 50 48 47 46
46 46 45 44 44 44 44 44 45 44 43 43 43 44 45 45 45 46 46 47 48 49 51 53 54 56 57 58 57 56 55 53 51 49 48 47 47 47 47 47 47 46
46 45 44 44 45 45 45 45 45 45 44 44 44 45 46 46 47 48 49 50 51 52 53 55 56 56 57 56 55 53 49 47 45 43 43 44 44 45 45 47 47 47
45 45 45 45 46 46 46 45 45 46 45 46 46 47 48 48 49 50 51 52 53 53 54 53 53 52 51 50 48 46 44 42 41 41 41 42 42 43 43 45 47 48
47 47 47 47 47 47 47 47 47 47 48 48 49 49 50 50 51 52 52 52 51 50 49 48 46 45 44 43 42 41 41 40 40 40 40 40 40 41 41 42 44 46
49 49 49 48 48 48 48 49 49 49 50 50 50 50 50 50 50 49 48 47 45 43 42 42 41 40 40 40 40 39 39 39 39 40 39 39 39 40 41 43 45 46

ECMWFNIL_250_spd_039.txt.gz
Wind_Speed
21 20 20 19 18 17 16 15 14 13 12 10 9 8 8 8 7 7 6 6 6 7 7 7 7 8 10 11 12 13 13 14 15 15 16 16 17 18 19 20 21 22
23 22 21 20 19 18 17 17 15 14 12 11 10 10 10 10 10 9 9 9 8 8 8 8 8 9 10 10 11 12 13 14 15 16 17 18 19 19 21 22 23 24
26 24 22 21 20 19 19 17 15 14 13 13 12 12 11 11 12 11 11 10 10 9 9 9 10 11 11 11 12 13 14 15 16 17 18 19 21 22 23 24 25 26
27 25 23 22 22 21 19 18 16 16 16 15 14 13 13 13 13 13 12 12 11 11 10 11 11 12 12 13 13 14 15 17 18 19 20 21 22 24 25 26 27 28
28 26 25 24 23 22 21 19 19 19 18 17 17 15 15 15 15 14 14 14 13 12 12 12 12 12 13 14 14 15 16 18 19 20 21 23 24 25 27 28 29 30
29 28 27 26 24 23 23 22 22 21 20 19 18 17 17 17 16 16 16 15 15 14 14 14 14 14 14 14 15 16 18 19 20 21 23 24 25 27 28 30 31 31
31 29 28 27 26 25 25 24 23 22 21 20 20 20 19 19 18 18 18 17 17 16 16 16 15 15 15 15 17 18 20 21 22 23 24 26 27 28 30 31 32 33
32 31 30 29 29 28 26 25 24 23 22 22 22 22 22 21 21 20 20 20 19 19 18 18 17 17 17 17 19 21 23 24 25 26 26 28 29 30 32 33 33 34
35 33 32 31 30 28 27 26 25 24 23 22 23 23 23 23 23 23 23 22 22 22 21 20 20 20 19 20 22 24 26 27 28 29 30 30 31 32 34 35 35 35
38 36 34 32 30 29 27 26 25 24 24 24 24 24 24 25 25 26 25 25 25 25 24 24 23 23 23 23 25 27 29 30 31 32 34 34 34 34 35 36 36 37
40 38 35 33 32 29 28 27 26 26 26 26 26 26 26 26 27 27 28 28 28 27 27 27 26 26 26 27 28 29 31 33 34 35 36 37 37 36 36 37 38 39
42 40 38 35 33 31 29 29 29 29 29 28 28 28 28 28 28 29 29 30 30 30 29 29 29 28 29 30 31 32 33 35 36 38 38 38 38 38 38 39 40 42
44 42 39 37 34 32 31 31 31 31 30 30 30 30 30 30 30 30 30 31 31 31 31 31 31 31 32 33 34 34 35 37 38 39 40 40 39 40 40 42 43 45
45 43 40 38 36 34 33 33 33 33 32 32 33 33 32 32 32 32 32 32 32 33 33 33 34 34 34 35 35 36 37 39 40 41 41 41 41 42 43 44 46 48
45 44 42 40 38 37 36 35 35 34 34 35 35 35 35 34 34 34 33 33 34 35 35 35 36 36 36 36 37 38 39 40 42 42 42 43 43 44 45 47 49 51
46 45 44 42 41 39 38 37 37 37 37 36 37 37 36 36 36 35 34 34 35 36 36 37 37 36 36 37 38 39 41 42 43 43 43 44 45 46 48 50 52 53
48 47 45 44 43 41 40 39 38 38 38 38 38 38 37 37 37 36 36 36 36 37 37 37 37 37 38 38 40 41 42 43 43 44 44 45 47 49 50 52 53 54
50 48 46 46 45 43 41 40 39 40 40 40 39 38 37 38 38 37 37 37 37 37 37 37 38 38 39 40 40 41 41 43 44 45 46 48 50 51 52 52 52 50
50 49 48 47 46 44 42 41 40 41 41 41 39 38 38 38 38 37 37 37 38 38 38 38 39 40 40 41 41 41 41 44 46 48 49 50 51 52 51 49 46 44
50 50 49 48 46 44 42 41 41 42 42 41 40 39 39 38 38 38 39 39 39 39 39 40 40 40 41 41 41 41 43 45 48 50 52 52 51 49 46 43 41 39
50 49 48 47 45 44 43 42 43 43 43 42 40 40 40 39 39 40 40 40 40 40 41 41 41 41 42 42 42 43 45 47 50 51 51 50 47 44 41 39 37 37
50 48 47 47 45 44 44 44 44 43 42 42 41 40 40 40 41 41 41 41 41 41 42 42 41 42 43 44 45 46 47 49 49 49 47 44 41 39 37 37 36 36
48 48 47 46 46 45 45 44 44 43 42 41 41 42 42 42 42 42 41 41 41 42 43 43 43 44 45 46 47 48 49 49 46 43 41 38 36 35 36 37 36 36
46 46 47 46 45 45 45 44 44 43 42 42 42 42 42 42 42 42 42 42 42 43 44 45 46 47 48 49 50 49 48 46 42 38 35 33 32 33 35 36 36 36
44 45 45 45 45 45 45 44 44 43 43 42 42 42 42 42 42 42 43 43 44 45 46 47 48 49 49 49 48 46 44 40 37 35 33 31 31 33 34 36 37 38
43 44 44 44 44 44 44 44 44 43 43 43 42 42 42 42 43 44 44 45 46 47 48 49 49 49 48 46 44 41 37 34 33 33 33 32 32 34 35 36 37 38

ECMWFNIL_250_spd_042.txt.gz
Wind_Speed
26 26 25 23 22 22 21 20 19 18 18 17 16 16 15 14 13 12 12 12 11 10 9 7 7 7 8 9 10 11 12 13 14 15 15 16 18 19 20 22 24 26
27 26 25 24 23 23 22 21 20 19 19 18 18 17 16 15 14 13 13 13 12 11 10 9 9 8 8 9 10 11 12 14 15 16 17 18 19 20 21 23 25 27
27 27 26 25 24 24 23 22 21 20 20 20 19 18 16 16 15 15 14 14 13 13 12 12 11 10 10 9 10 11 12 14 15 17 18 20 21 22 23 25 26 28
28 27 27 26 26 25 24 23 22 22 21 21 19 18 17 16 16 16 15 15 15 15 15 14 13 12 11 10 10 11 12 14 15 17 18 20 22 24 26 27 28 29
30 29 28 27 26 25 24 24 24 23 22 21 19 18 18 17 16 16 16 16 17 17 17 16 15 13 12 12 11 11 12 13 15 17 19 21 23 26 28 29 30 31
32 31 30 28 27 26 26 26 25 24 23 21 20 19 18 18 17 17 17 17 17 18 18 17 16 15 14 14 13 13 13 14 16 18 20 22 24 27 29 31 32 32
33 32 31 29 28 28 28 28 27 25 24 22 22 21 20 19 19 18 18 18 19 19 18 18 18 17 17 16 16 15 16 16 17 19 21 23 25 28 31 32 34 34
34 33 32 31 30 30 30 30 28 26 25 25 24 23 22 21 21 20 20 20 20 20 20 20 20 19 19 19 19 18 19 19 20 21 22 24 27 29 32 34 35 36
36 35 35 33 33 33 33 31 30 29 28 27 26 25 24 24 23 22 22 21 21 21 21 21 21 22 22 21 21 21 22 23 24 24 24 26 29 31 33 35 36 37
39 38 37 36 36 36 35 33 32 31 30 29 28 27 26 26 25 24 23 22 22 22 22 23 23 24 24 24 24 24 25 26 27 27 27 28 31 33 35 36 37 38
41 39 38 38 38 37 36 35 35 34 32 31 30 29 28 27 26 25 23 22 22 22 22 23 25 26 26 27 27 27 28 28 28 29 30 32 33 34 36 38 38 38
42 41 40 39 39 38 38 38 37 35 34 33 32 31 30 29 27 26 25 24 23 23 23 24 25 27 28 29 30 30 31 30 30 31 32 34 35 36 37 38 39 39
44 43 41 41 40 40 40 39 38 37 35 34 33 33 31 30 29 27 26 25 25 24 25 25 26 27 29 29 31 32 32 32 32 33 34 35 36 38 39 40 40 40
46 45 43 42 42 43 42 41 40 39 37 36 35 34 33 31 30 29 28 27 26 26 27 27 28 29 30 30 31 32 33 33 34 35 35 36 37 38 40 40 41 41
47 46 45 44 45 45 45 44 42 41 39 38 36 35 33 33 32 31 30 29 29 29 29 30 30 31 31 31 31 32 33 34 34 35 36 36 38 39 40 41 42 43
47 46 46 46 47 47 47 46 45 43 41 39 37 36 34 34 33 32 32 32 32 31 32 32 32 32 31 31 32 32 33 34 34 35 36 38 39 39 40 41 43 45
49 48 47 47 47 48 48 48 46 45 43 42 40 38 36 35 34 34 34 34 34 33 33 33 33 32 32 32 32 33 33 33 34 36 37 38 39 40 41 42 44 46
50 50 49 48 48 48 49 48 47 47 46 44 42 40 38 37 36 35 35 36 36 35 34 34 33 32 32 32 33 33 34 34 35 37 38 39 40 41 43 44 46 46
51 51 50 50 50 49 49 48 48 48 48 46 44 42 41 40 38 37 37 38 37 36 35 35 34 33 32 32 33 34 35 36 37 37 38 39 40 42 44 46 46 44
50 51 51 51 51 50 50 49 49 48 48 47 46 45 44 42 40 39 39 39 39 38 37 36 34 33 32 33 33 35 36 37 38 38 39 39 41 43 45 46 44 41
49 51 52 52 52 51 51 51 50 49 48 48 47 46 45 43 42 41 41 41 40 39 39 37 34 33 34 34 34 35 36 38 39 40 40 41 43 45 45 44 40 37
47 49 51 51 52 51 51 51 51 50 49 49 48 47 46 45 44 44 43 41 41 41 40 37 35 34 35 35 35 35 36 38 40 41 42 43 44 45 43 40 37 34
44 46 48 49 50 51 51 51 50 50 50 49 49 48 48 47 46 45 43 42 42 41 40 38 36 36 37 36 36 36 37 38 40 42 44 45 44 43 40 37 34 32
41 42 44 46 47 49 50 50 50 49 49 49 50 50 49 48 46 45 44 44 43 42 40 39 37 37 38 37 37 38 38 39 41 43 44 44 42 39 37 35 32 30
35 37 39 41 44 46 48 49 49 49 49 49 50 50 50 49 47 46 45 44 43 42 41 40 39 38 38 39 39 39 40 41 42 43 44 42 39 37 34 32 30 30
32 34 35 37 40 43 45 47 48 49 49 50 50 50 50 49 47 46 45 43 43 42 42 41 40 39 40 40 40 41 41 42 43 44 43 40 37 34 32 30 29 30

ECMWFNIL_250_spd_045.txt.gz
Wind_Speed
26 25 24 22 22 21 21 20 19 18 18 18 18 18 17 17 16 15 14 13 12 12 12 11 10 9 9 9 9 10 10 11 11 12 13 14 16 18 20 23 25 27
27 26 24 23 23 22 22 21 20 19 20 20 19 19 18 17 16 15 14 14 13 13 12 12 12 12 11 10 10 11 11 12 12 12 13 14 15 17 20 22 25 27
28 26 25 24 23 23 22 21 20 20 21 21 20 20 19 18 17 16 15 15 14 13 13 13 13 12 12 13 13 12 12 12 13 13 14 14 15 17 19 22 25 28
28 27 25 24 24 24 24 23 22 21 22 22 21 20 19 19 18 17 16 16 15 14 14 14 14 13 13 14 14 14 13 13 13 14 15 16 16 17 20 23 26 29
29 28 26 26 26 26 25 23 22 22 23 23 22 21 20 20 20 19 17 17 16 15 15 15 15 15 15 15 15 14 14 14 14 15 16 17 18 19 21 24 27 30
31 30 28 28 28 27 25 25 24 24 25 24 23 22 22 22 21 19 18 17 17 16 16 15 15 16 16 16 15 15 15 15 16 17 18 19 20 21 23 25 28 30
33 31 29 29 29 28 27 27 27 27 26 25 24 23 23 23 21 20 19 18 18 17 17 16 16 16 16 16 16 16 16 16 17 18 20 21 22 23 25 27 28 30
34 32 30 30 30 29 29 29 29 28 28 27 26 25 24 23 22 21 20 20 19 19 18 18 17 17 17 17 18 18 18 18 19 20 21 22 23 24 26 28 29 31
34 33 32 32 31 31 31 31 30 30 29 28 27 27 26 24 24 23 22 21 20 20 20 20 20 20 19 19 19 20 21 21 22 22 23 23 24 25 27 29 30 31
36 36 35 34 33 33 33 33 32 32 31 30 29 28 27 26 25 25 24 23 23 22 22 22 22 21 21 20 21 21 22 23 23 24 24 25 26 27 28 29 31 32
39 39 38 36 35 35 35 35 34 33 32 31 31 29 28 28 27 27 26 26 25 25 24 24 23 22 22 22 22 22 22 23 23 24 25 26 27 28 29 29 30 32
41 41 40 38 37 37 37 37 36 35 34 33 32 31 30 29 29 29 28 28 28 27 26 25 24 24 23 23 23 23 23 23 24 24 24 25 26 27 28 29 30 31
42 43 42 40 39 39 39 39 38 37 36 35 34 33 32 31 31 31 30 30 30 29 28 27 26 25 25 24 24 24 24 24 24 24 24 25 26 27 28 28 30 32
42 42 42 42 41 41 41 41 40 39 38 37 37 36 34 33 33 32 31 31 31 30 29 28 27 27 27 26 26 25 25 25 25 25 26 26 27 27 27 28 30 32
42 42 42 43 43 43 44 43 42 41 40 39 39 37 36 35 35 33 32 32 31 31 30 30 29 29 29 29 28 28 27 27 27 27 27 27 27 27 28 29 30 32
42 42 42 43 45 46 46 45 44 43 42 42 40 39 38 37 36 34 33 32 32 32 31 31 30 30 30 30 30 30 30 29 28 28 28 28 28 28 30 31 31 32
43 43 43 44 46 47 47 46 45 45 44 43 42 41 40 39 37 36 34 33 33 33 32 31 31 31 31 32 32 32 32 31 30 29 29 29 29 30 31 32 33 33
44 44 44 45 46 47 47 47 47 47 46 45 44 43 41 40 39 37 36 35 35 34 33 32 32 32 32 33 33 33 33 32 32 31 31 30 30 31 32 33 33 33
44 44 45 46 46 47 47 47 48 48 48 47 46 45 43 42 41 40 38 38 37 36 34 34 34 34 34 35 35 35 34 34 34 33 33 32 32 33 33 33 34 34
45 46 46 46 46 46 47 48 49 50 50 49 48 46 45 44 42 41 41 40 39 38 37 37 37 36 37 37 36 36 36 36 35 34 34 34 34 34 34 34 34 35
43 45 46 46 46 47 47 49 50 50 50 50 49 48 47 45 43 41 42 42 41 41 40 40 40 39 39 39 38 37 38 37 36 35 35 35 35 35 35 35 35 36
38 40 43 45 46 47 48 49 50 51 51 51 50 50 48 46 44 43 42 42 42 42 43 43 42 41 41 40 39 39 40 39 38 36 36 36 36 36 36 36 37 38
37 37 38 40 43 45 47 48 50 51 51 52 52 51 50 49 46 44 43 43 43 43 44 44 43 42 42 41 40 40 41 40 39 38 37 36 36 36 37 37 38 38
38 37 36 37 39 41 44 46 48 49 50 52 53 53 52 51 49 46 45 45 45 46 46 45 44 43 42 42 41 41 41 41 40 39 38 37 37 37 38 38 38 39
41 39 38 37 38 39 41 43 45 47 48 50 52 53 53 52 50 48 47 48 48 48 47 46 45 43 43 43 42 41 41 41 40 40 39 38 38 38 39 40 40 39
44 43 41 39 38 37 39 41 43 44 45 47 49 51 52 52 51 50 49 49 48 48 47 47 46 44 44 44 43 42 41 40 40 40 39 38 39 40 41 41 41 39

ECMWFNIL_250_spd_048.txt.gz
Wind_Speed
24 23 23 22 22 21 20 18 17 16 15 14 13 13 12 12 11 10 10 10 10 9 9 8 7 7 6 6 7 8 9 9 10 11 11 12 13 15 17 20 24 26
25 24 24 23 23 22 21 20 18 17 16 15 14 14 13 13 12 12 11 11 11 10 9 9 8 8 8 8 9 9 10 10 10 11 11 11 13 15 17 20 23 26
26 26 25 24 23 23 22 20 19 18 18 17 15 15 15 14 14 13 12 12 11 10 9 9 9 9 9 10 10 11 11 11 11 11 12 12 13 15 17 20 23 25
27 27 25 24 24 24 23 22 21 20 19 18 17 17 16 15 15 14 14 13 12 11 10 10 10 10 11 11 12 12 13 12 12 12 13 14 15 16 18 21 23 26
28 27 26 25 26 26 25 24 23 21 20 20 19 18 17 17 16 15 15 14 13 12 12 11 11 11 11 12 12 13 13 13 14 14 14 15 16 18 19 21 24 26
29 29 27 27 27 28 27 26 24 23 22 22 21 20 19 18 18 17 16 15 15 13 13 12 11 11 11 11 12 12 13 14 15 15 16 16 18 19 20 22 24 26
31 30 29 27 28 28 28 27 26 25 24 24 24 22 21 20 19 18 17 17 16 15 13 12 12 12 11 11 12 13 14 15 16 17 18 19 20 20 21 22 24 26
32 31 30 28 28 28 28 28 27 26 27 26 25 24 22 21 21 20 19 18 17 16 14 13 13 13 12 13 14 14 16 17 18 19 20 20 21 21 21 22 24 25
32 32 31 30 29 28 29 29 28 28 28 27 26 25 24 23 22 21 20 19 18 17 15 15 14 14 14 14 15 16 17 17 18 19 19 19 20 20 20 22 23 25
32 33 32 32 30 29 30 30 30 30 29 28 28 27 26 24 23 23 22 21 19 18 17 16 16 16 16 16 16 16 17 17 18 18 18 19 19 20 21 22 23 24
33 34 35 34 32 31 31 31 31 31 31 30 30 28 27 26 25 24 23 22 21 20 19 18 18 17 17 17 17 17 17 17 17 18 19 20 20 21 22 23 24 24
36 37 38 37 34 33 33 33 33 33 32 31 31 29 29 28 27 26 25 24 23 22 21 20 19 19 19 19 19 18 18 18 18 19 20 21 22 22 23 23 24 24
38 39 39 38 36 35 34 34 35 34 33 32 32 31 31 30 29 27 27 26 25 24 23 22 21 21 21 20 20 19 19 19 20 21 22 22 23 23 24 24 25 25
40 40 39 38 36 35 36 36 36 36 34 34 34 34 33 32 30 30 29 28 27 26 25 24 23 23 22 21 21 20 20 20 21 21 22 23 24 24 25 25 25 26
40 40 39 39 38 37 37 38 38 37 36 36 36 36 35 33 32 32 31 30 29 28 27 26 25 24 23 22 21 21 21 21 21 22 23 24 24 25 26 26 26 26
40 40 40 40 39 39 39 39 39 39 38 38 38 37 36 35 35 35 34 32 31 30 30 29 28 26 25 23 22 22 22 22 22 22 23 24 25 26 26 27 27 27
40 40 40 40 40 40 40 40 40 40 40 39 39 38 38 38 38 38 36 34 33 33 32 31 30 28 26 25 24 24 24 23 23 23 24 25 26 27 27 27 28 28
40 40 40 41 41 42 42 42 41 41 41 41 41 40 40 40 40 40 38 37 36 36 35 34 33 31 29 28 27 27 26 25 25 25 25 27 27 28 28 28 28 28
40 41 41 42 42 42 42 42 42 43 43 43 42 41 41 42 42 41 40 40 39 39 38 36 35 34 33 31 30 30 29 29 28 27 28 28 29 29 29 29 29 28
39 40 42 43 43 42 42 42 43 44 44 44 43 43 43 44 43 42 42 42 42 41 40 39 38 37 36 34 33 33 33 32 31 30 30 31 31 31 30 30 30 29
40 40 41 42 43 43 43 43 43 44 44 44 44 44 45 45 44 44 43 43 43 43 42 42 41 39 38 37 35 35 35 35 34 33 33 33 33 32 32 31 31 30
42 41 41 41 42 43 43 43 43 43 43 43 44 45 46 46 45 45 45 44 44 44 44 44 43 41 39 38 37 37 37 36 36 35 35 35 35 34 33 33 32 31
43 42 42 41 42 42 43 43 43 43 43 43 44 45 45 46 46 46 45 45 45 45 45 45 44 42 41 39 38 38 38 38 37 37 37 36 36 35 35 34 34 32
45 44 43 43 42 42 42 42 42 42 43 44 45 46 46 46 46 46 46 46 46 46 46 46 44 43 42 41 40 39 39 39 39 39 39 38 37 37 37 36 35 34
48 47 46 45 44 43 42 40 39 39 41 43 45 46 46 46 46 47 47 47 47 47 47 46 45 44 44 43 42 41 41 42 42 42 42 40 37 38 38 38 37 35
51 50 48 47 46 45 43 41 39 38 38 40 42 44 45 45 46 47 47 47 48 47 47 46 46 45 45 46 45 43 43 43 44 45 44 41 38 39 40 39 38 35

ECMWFNIL_250_spd_051.txt.gz
Wind_Speed
23 23 22 21 20 20 18 17 16 15 13 12 11 11 10 10 9 9 9 8 8 7 6 5 4 4 5 5 6 7 8 9 10 11 12 13 15 16 19 21 23 25
23 22 21 21 21 20 19 19 18 17 15 15 14 13 11 11 10 10 10 9 9 8 7 6 5 5 5 6 7 8 9 10 10 11 12 13 14 16 18 20 22 24
23 23 22 21 20 20 19 20 19 18 18 17 15 14 13 12 11 11 11 10 9 9 8 7 6 6 6 6 7 8 9 10 10 11 12 14 15 16 18 21 22 23
23 23 22 21 20 21 21 21 21 20 19 18 17 16 16 14 13 12 12 11 11 10 9 8 7 7 6 6 7 7 8 9 10 11 13 14 16 18 19 21 22 22
24 24 22 22 22 22 23 22 22 21 20 20 19 19 18 16 15 14 13 12 12 11 10 9 8 8 7 6 6 6 7 8 10 11 13 15 17 18 19 20 20 21
25 25 24 24 24 24 24 23 22 22 22 22 21 20 19 18 17 15 14 14 13 12 11 10 9 8 7 6 6 6 7 9 11 12 14 15 17 17 18 19 20 21
27 26 26 26 25 26 25 24 24 23 23 23 23 22 21 20 18 17 16 15 14 13 12 11 10 9 8 7 7 8 9 10 11 12 13 14 15 16 17 18 19 20
28 28 27 27 26 26 26 26 25 24 24 24 24 23 23 21 20 19 18 16 16 15 14 12 12 11 9 8 8 9 10 11 11 11 12 13 14 16 17 18 19 20
28 29 29 28 28 27 26 27 26 25 26 25 24 24 24 23 21 20 19 18 17 16 15 15 14 12 11 10 9 10 11 12 12 11 12 12 14 16 17 18 19 19
29 30 30 30 29 28 27 27 26 26 27 26 25 25 24 23 23 22 21 20 19 18 18 17 16 14 13 11 11 11 12 13 12 12 13 13 15 16 18 18 18 18
29 31 32 31 30 28 27 27 27 27 27 26 26 26 25 24 24 23 22 21 21 20 20 19 17 16 15 14 13 13 13 13 13 14 14 15 16 17 18 18 18 18
30 32 33 33 31 29 28 27 27 28 27 27 27 26 25 25 25 25 24 23 23 23 22 20 19 18 17 16 15 15 15 15 15 15 16 16 17 18 19 19 19 19
31 32 33 33 32 30 29 29 29 29 28 28 27 27 27 26 26 26 25 25 25 25 23 22 21 20 19 18 17 16 16 17 17 17 17 18 18 18 19 19 20 20
33 33 33 33 32 31 31 32 32 31 30 29 29 29 28 28 27 27 27 27 28 27 25 24 24 22 22 21 20 18 18 18 18 18 19 19 19 19 19 20 20 21
34 33 32 33 33 32 33 34 35 33 32 31 30 30 30 29 28 28 29 30 29 28 27 27 26 25 24 24 22 21 20 20 20 20 20 20 20 20 20 20 21 21
34 33 32 32 33 33 34 35 36 36 34 33 33 32 31 30 30 30 31 31 31 30 29 29 28 27 27 26 25 23 22 22 22 22 22 21 21 21 21 21 22 22
35 34 33 33 33 33 34 35 37 37 37 36 35 34 33 32 32 33 33 32 32 32 32 31 30 29 29 28 27 26 25 25 24 24 24 24 24 24 24 23 24 24
36 36 35 34 34 34 34 35 37 38 39 39 38 36 35 34 34 35 34 34 34 34 34 33 32 31 32 31 29 29 29 28 28 27 27 27 27 27 27 27 26 26
38 37 37 36 35 34 35 35 36 37 40 41 40 39 37 37 37 37 36 36 36 36 35 35 34 34 34 33 32 32 32 32 31 31 31 30 30 30 30 30 29 28
40 39 38 37 36 35 35 36 36 37 39 41 41 40 40 40 39 39 38 38 38 37 37 36 36 36 36 35 34 34 34 35 35 34 34 34 33 33 33 33 32 31
41 41 39 38 37 36 36 37 38 38 38 39 40 41 41 41 40 40 39 39 40 39 39 38 38 37 37 37 36 36 37 37 38 37 37 36 36 36 36 35 35 33
42 42 41 39 38 38 38 38 38 38 37 37 38 39 40 40 41 41 41 41 41 41 41 41 40 39 39 39 38 38 39 40 40 40 39 39 38 38 38 37 36 35
43 44 43 42 40 40 40 40 39 38 37 37 37 39 39 40 40 40 41 41 42 42 43 42 42 41 42 42 41 41 41 42 42 41 41 41 40 40 39 39 37 36
45 45 45 44 43 43 42 42 41 39 37 37 38 39 39 40 39 39 39 40 42 43 44 44 43 43 43 43 43 43 43 43 43 43 43 42 41 41 41 40 39 38
46 46 46 46 46 46 45 43 42 41 39 38 37 38 39 39 39 39 40 40 41 42 43 43 43 43 43 44 43 43 44 44 44 44 44 43 42 41 42 42 41 40
46 47 47 48 49 48 47 45 44 43 41 39 38 38 38 39 40 40 41 41 42 43 44 44 43 42 43 43 43 43 44 44 45 45 45 44 43 42 43 43 42 41

ECMWFNIL_250_spd_054.txt.gz
Wind_Speed
24 24 23 21 19 18 16 15 14 13 12 10 8 8 7 7 6 6 6 6 5 5 5 5 5 5 5 6 7 7 8 9 10 10 11 12 14 15 17 18 20 21
25 25 24 22 21 20 18 17 16 16 15 13 12 10 9 8 8 8 8 8 7 7 6 6 6 5 5 7 7 8 8 9 9 10 11 12 14 15 16 18 19 20
25 25 24 23 21 19 18 19 18 17 17 16 14 12 11 10 10 9 10 10 10 9 8 7 7 6 6 7 8 8 8 8 8 9 11 12 13 14 15 17 18 19
24 25 24 23 21 20 20 20 20 19 18 17 16 15 14 13 12 11 11 11 11 11 10 9 8 7 6 7 8 8 7 7 7 9 11 12 12 13 14 16 17 18
24 24 23 22 22 22 22 21 21 20 19 18 18 17 16 15 14 13 13 13 13 13 12 11 10 9 8 8 8 7 6 6 7 9 10 11 11 12 14 15 16 17
25 25 24 23 24 24 24 23 22 21 20 20 20 19 18 17 16 15 14 14 14 14 14 13 12 11 10 9 9 8 7 7 7 9 10 10 10 11 13 15 16 16
27 27 26 25 25 26 25 24 23 22 22 21 21 20 19 18 17 17 16 16 16 16 16 15 14 12 11 11 10 9 8 7 8 9 10 9 9 10 12 14 15 16
27 28 27 27 27 27 26 26 25 24 24 23 22 22 20 19 19 19 18 18 17 17 17 16 16 14 13 12 12 11 10 9 9 10 10 10 10 10 12 13 14 15
26 27 28 28 28 28 27 27 26 26 25 25 24 23 22 21 20 20 19 19 19 18 18 18 18 17 15 14 14 13 12 11 10 11 11 12 11 11 12 13 14 15
24 26 27 28 29 29 28 28 28 27 27 26 25 25 24 23 22 22 21 20 20 20 20 20 20 19 17 16 16 15 14 13 12 12 13 13 13 13 13 14 14 15
25 26 27 28 29 28 29 29 28 28 28 27 26 26 25 24 24 23 22 21 21 21 21 22 22 20 19 18 18 17 17 16 14 14 15 15 15 14 14 14 14 15
26 27 28 29 29 28 28 28 29 29 28 28 27 27 26 25 25 24 23 22 22 22 23 23 23 22 21 20 20 19 19 18 17 16 16 16 16 16 15 15 15 15
27 28 30 30 29 28 27 28 29 30 29 28 28 28 27 26 26 25 24 23 23 24 24 24 24 23 23 22 22 22 22 21 19 18 18 18 17 17 17 16 16 15
28 29 30 31 30 29 28 28 29 30 30 30 30 30 29 28 28 26 25 25 25 25 26 25 24 24 24 24 24 24 24 23 22 21 20 19 19 18 18 18 18 17
29 29 30 30 30 30 29 29 29 30 30 31 32 32 31 30 29 28 27 27 27 27 27 26 25 25 25 26 26 26 26 25 24 23 23 22 20 20 19 20 20 19
30 30 31 31 31 31 30 30 30 30 31 32 33 33 33 33 32 31 30 29 28 28 28 28 26 26 27 28 28 28 28 27 26 26 26 24 23 22 22 22 22 22
31 31 31 31 32 32 31 31 31 32 32 33 33 34 34 35 34 33 32 31 30 30 30 29 28 27 28 29 30 30 29 29 29 28 28 27 26 26 25 24 24 24
31 32 32 33 33 33 33 33 32 32 33 34 34 34 34 35 35 35 35 33 32 32 32 31 29 28 29 31 31 31 31 31 31 31 30 30 29 29 28 28 27 27
32 33 34 34 35 35 35 34 34 34 34 35 35 34 34 35 36 36 36 35 35 34 33 32 30 29 30 32 32 32 33 33 33 33 33 32 32 31 31 31 30 30
33 34 36 36 36 36 36 36 36 35 35 35 35 35 36 36 37 37 37 37 37 36 35 34 33 31 32 32 33 33 34 34 35 35 35 34 34 34 34 33 33 33
35 36 37 38 38 38 38 38 38 38 37 36 36 37 37 37 37 37 38 38 38 38 37 36 35 33 33 34 34 34 35 36 37 37 37 36 36 36 36 35 36 35
36 38 38 39 39 39 39 39 40 40 40 39 38 37 37 37 37 38 38 38 38 38 38 37 36 35 35 35 36 36 37 38 38 38 38 38 37 37 37 37 38 37
37 39 40 40 40 40 41 41 42 42 41 40 39 38 38 37 37 37 37 37 37 38 39 38 37 37 37 37 37 39 39 40 40 40 40 40 39 39 39 39 40 39
39 40 41 42 42 42 43 43 43 43 42 41 41 40 39 38 36 35 35 35 36 38 39 39 38 38 38 39 39 40 41 41 42 42 42 42 41 41 42 42 42 42
40 41 42 43 44 44 44 44 44 43 43 43 43 42 40 39 37 36 35 35 36 37 39 39 39 38 39 40 41 42 43 44 44 44 44 44 43 43 44 44 44 44
40 42 43 44 45 45 45 45 44 44 44 44 44 44 43 41 39 38 37 36 36 37 38 39 38 38 39 40 41 43 45 45 46 46 46 45 44 44 45 45 45 44

ECMWFNIL_250_spd_057.txt.gz
Wind_Speed
21 21 20 19 18 17 16 14 13 12 11 8 6 5 5 5 5 4 4 5 5 5 5 5 5 6 7 7 7 8 9 9 9 9 10 11 12 13 15 16 17 18
23 23 23 22 20 19 17 16 15 14 13 12 10 9 7 7 6 6 6 6 7 7 6 6 6 7 8 8 8 8 9 8 8 8 9 10 11 12 14 15 15 16
23 24 24 23 22 21 19 18 18 17 15 14 13 12 10 9 8 8 8 8 8 8 8 7 7 8 9 9 9 9 9 7 7 8 8 9 10 11 13 14 15 16
23 24 24 24 23 22 21 21 20 19 18 16 15 15 14 12 10 10 10 10 10 9 9 9 9 9 9 10 9 9 9 7 7 7 8 8 9 10 12 13 14 15
22 23 23 24 24 24 24 23 22 21 19 17 17 17 16 14 13 12 12 11 11 11 11 11 10 11 11 11 10 10 10 9 8 8 8 8 9 10 11 13 14 15
23 23 23 24 24 25 25 24 23 22 20 19 19 19 18 17 15 14 13 13 12 12 12 12 12 12 12 12 12 11 11 10 9 9 8 8 8 9 11 12 13 14
25 25 24 24 24 25 25 25 25 24 23 21 21 21 19 18 17 16 16 15 14 14 14 14 14 14 14 14 13 13 12 12 11 10 10 9 9 9 10 11 13 14
27 27 26 25 25 25 25 25 26 25 24 23 23 22 21 20 19 18 18 17 16 16 15 15 15 16 16 15 15 14 13 13 13 12 11 10 10 11 11 12 13 13
26 27 28 27 27 27 26 26 26 26 25 24 24 23 23 22 21 20 19 18 18 17 17 16 17 18 18 17 17 16 15 15 15 14 13 12 12 12 12 13 13 13
25 27 28 27 27 28 27 27 27 27 26 26 25 25 24 23 22 22 21 20 19 19 18 18 18 19 19 19 19 18 17 17 16 16 15 14 13 13 13 14 14 14
26 26 27 28 27 27 27 28 28 28 27 27 26 26 26 25 24 24 23 22 21 20 20 20 20 20 20 20 20 20 20 19 18 18 17 17 16 15 15 14 15 15
26 27 28 28 27 27 27 27 28 28 28 27 27 27 27 26 25 25 25 24 23 22 22 22 22 22 21 21 21 22 22 21 21 20 19 19 18 17 17 16 16 16
27 28 29 29 28 27 26 26 27 28 28 28 27 27 27 27 26 26 26 25 24 24 24 24 24 24 23 22 22 23 24 23 23 22 22 21 21 20 19 18 18 17
28 29 29 29 28 27 26 26 27 28 28 28 28 29 28 28 27 27 26 26 26 26 26 26 26 25 24 23 24 24 25 25 25 24 24 24 24 23 22 21 20 20
28 28 28 29 29 28 28 27 27 27 28 29 29 29 29 29 29 28 28 27 27 27 27 28 28 27 26 25 25 26 26 26 26 26 26 26 26 26 25 24 23 23
27 27 28 29 29 29 29 29 28 28 28 29 30 30 30 31 31 31 30 30 29 29 29 29 29 29 27 26 27 28 28 27 27 28 28 28 28 28 28 27 26 26
27 28 28 28 30 30 30 30 30 30 30 30 30 31 31 31 32 33 33 32 31 31 31 31 31 30 29 28 29 30 30 29 29 29 30 30 30 30 30 29 29 29
29 28 28 28 29 30 31 32 32 32 32 32 32 32 32 32 33 34 34 34 34 34 34 34 33 32 31 31 31 32 32 31 31 31 31 31 31 32 32 31 31 31
30 29 29 28 29 30 31 32 33 33 34 34 34 33 33 33 33 35 35 35 35 35 36 35 34 34 34 33 33 33 33 33 32 32 33 33 33 33 33 33 33 33
31 30 30 29 29 30 31 32 34 35 35 36 35 35 35 35 35 35 35 36 36 37 37 36 36 36 36 36 35 35 36 35 34 34 34 34 34 34 34 34 35 35
33 32 31 31 31 32 32 33 34 35 36 37 37 37 37 37 37 36 36 36 37 37 38 37 37 37 37 37 37 37 38 38 37 37 36 36 36 35 35 36 36 36
35 34 33 33 33 33 34 34 35 36 37 38 38 38 39 39 39 39 38 37 37 37 38 38 38 39 39 39 39 39 40 40 40 40 39 38 38 37 37 37 37 37
37 36 36 36 35 35 36 36 36 37 38 38 39 39 40 40 40 40 40 39 37 37 37 37 38 40 40 40 40 41 42 43 43 42 41 41 40 39 39 39 39 39
39 39 39 38 37 37 37 37 38 39 39 40 40 40 41 41 42 41 41 40 39 38 38 37 37 39 41 41 41 42 43 44 45 44 43 42 41 40 40 40 40 40
41 40 40 39 39 39 38 39 39 40 41 41 41 41 41 42 42 43 43 42 41 41 40 38 37 38 41 41 42 43 45 46 47 46 45 44 42 41 41 42 41 41
43 42 41 41 40 40 39 39 40 41 41 42 42 42 42 43 43 44 44 44 43 42 42 40 39 38 40 41 42 44 46 48 48 48 46 45 43 42 42 43 43 43

ECMWFNIL_250_spd_060.txt.gz
Wind_Speed
18 18 17 17 16 16 15 13 12 11 9 7 6 5 5 5 5 5 5 5 5 5 5 5 5 5 5 6 6 7 8 8 9 10 11 11 12 14 15 17 18 19
21 20 20 19 18 16 15 14 14 13 12 10 9 7 7 6 5 5 6 6 6 6 6 6 6 6 6 5 5 6 7 7 7 9 9 10 11 12 14 16 17 18
23 23 23 21 20 18 17 16 16 15 15 13 11 10 10 9 8 7 7 7 7 7 7 7 7 7 7 6 5 5 6 6 6 8 9 9 9 11 13 14 16 17
24 25 24 23 22 21 21 20 19 18 17 15 14 14 13 12 11 10 9 9 9 8 8 9 9 8 8 7 7 6 6 6 6 7 8 8 9 9 11 12 14 16
23 24 24 24 24 24 24 23 22 21 20 18 16 17 16 15 14 13 12 11 10 10 10 10 10 10 10 9 8 8 7 6 6 6 7 8 8 9 10 11 12 14
24 24 25 25 25 25 26 25 24 24 22 20 19 20 19 18 17 16 14 13 12 11 11 12 12 12 12 11 10 10 9 8 7 7 7 7 8 9 10 10 11 13
27 26 26 26 25 25 25 26 26 26 25 23 22 22 22 20 19 18 17 16 15 13 13 13 13 13 13 13 12 12 11 10 9 8 8 8 8 9 10 11 11 11
28 28 28 27 27 26 26 26 26 26 26 25 24 24 23 23 22 20 20 19 17 15 15 15 15 15 14 14 14 14 13 13 12 11 10 9 9 9 10 11 11 11
27 28 28 28 28 28 27 27 27 26 27 26 25 25 25 25 24 22 22 21 19 18 17 16 16 16 16 16 15 15 15 15 14 13 13 12 11 11 10 11 12 11
26 28 28 28 28 28 28 27 27 27 27 26 25 25 25 26 25 24 23 22 21 20 19 18 18 18 18 17 16 17 16 16 16 16 15 14 14 13 12 11 12 12
26 27 28 28 28 27 27 27 27 27 27 26 26 26 26 26 26 25 24 23 22 21 21 20 20 20 20 19 18 18 18 18 18 18 18 17 16 16 15 14 13 13
26 27 28 29 28 27 26 27 27 27 27 26 26 26 26 27 26 25 24 24 23 22 22 22 23 23 22 21 20 19 19 19 20 20 20 19 19 18 18 16 15 15
26 27 29 29 28 26 26 26 27 27 27 27 26 26 27 27 26 26 25 24 24 24 24 24 24 25 24 23 22 21 21 21 21 22 21 21 21 21 20 19 18 17
25 27 28 29 28 27 26 26 27 27 27 27 26 26 27 27 27 26 26 25 25 25 25 26 26 26 26 25 24 23 23 23 23 23 23 23 23 23 23 22 20 19
25 26 28 28 29 28 28 27 28 28 29 28 27 27 27 27 27 27 27 27 27 27 27 27 28 28 27 26 26 25 25 25 25 25 25 25 25 25 25 24 23 22
26 27 28 28 29 29 29 28 28 29 30 30 29 29 28 28 28 28 29 29 29 29 29 30 30 30 29 28 27 27 27 27 27 27 27 27 27 26 27 26 25 24
28 28 28 29 29 29 29 29 29 30 31 31 31 31 31 30 30 30 31 30 30 30 31 32 33 32 31 30 30 29 29 29 29 29 28 28 28 28 28 28 28 27
30 30 30 29 29 29 30 30 29 30 31 32 33 33 32 32 32 32 32 32 32 32 33 34 34 34 33 32 32 32 31 31 31 31 30 30 30 29 29 30 30 30
33 32 31 31 30 30 30 30 30 30 31 32 33 33 33 33 34 34 33 33 34 34 34 35 35 35 35 34 33 34 34 34 34 33 33 32 31 30 31 31 31 32
35 34 33 33 32 31 31 31 32 32 31 32 32 32 33 34 34 34 34 34 35 35 35 35 36 36 36 35 35 35 35 36 36 36 35 34 33 32 32 33 33 34
38 37 36 35 34 33 33 33 33 33 32 32 32 33 33 33 33 34 34 35 36 36 37 37 37 38 38 37 36 36 37 38 38 38 37 36 35 34 34 35 35 35
41 40 38 37 37 36 36 35 34 34 34 33 33 34 33 33 33 34 35 35 35 37 38 38 39 39 39 38 36 36 38 40 40 40 39 38 37 36 36 36 37 37
43 42 40 39 39 38 38 36 35 35 35 34 34 35 35 34 34 34 35 35 35 36 38 40 40 41 41 40 37 36 38 41 42 41 40 39 39 38 38 38 39 39
45 43 42 41 40 40 39 38 36 36 36 35 35 35 36 36 35 35 36 36 37 37 38 40 40 41 43 42 40 38 39 40 41 41 41 41 40 39 40 40 41 41
46 44 43 43 43 42 41 39 38 38 37 37 37 36 36 37 36 36 37 38 38 39 39 40 40 41 43 43 42 41 41 40 40 40 42 42 40 40 40 42 43 44
47 46 46 45 45 44 42 40 40 39 39 39 38 37 36 37 37 37 38 39 39 39 40 40 41 42 43 43 43 43 43 43 43 42 42 42 41 39 40 42 44 45

ECMWFNIL_250_spd_063.txt.gz
Wind_Speed
21 20 19 18 17 16 14 13 12 10 9 7 6 5 4 4 3 3 3 4 4 4 5 5 5 6 6 6 6 8 9 9 10 11 12 13 14 16 18 19 21 22
21 20 20 19 18 16 15 14 13 12 10 9 7 6 5 5 4 4 4 4 5 5 5 5 5 6 6 5 5 6 7 7 7 8 10 10 11 13 15 17 18 20
22 21 20 19 18 17 16 15 14 13 12 11 9 9 8 8 6 6 6 6 6 6 6 6 6 6 6 6 5 5 5 6 6 6 7 8 9 10 12 14 16 17
23 22 21 20 19 18 17 17 16 15 14 12 12 11 11 11 10 9 9 8 7 7 7 7 7 7 6 6 6 5 5 5 5 5 5 6 7 8 10 12 14 15
25 24 23 22 21 21 20 19 18 17 16 15 14 14 13 13 13 12 12 11 10 9 10 9 9 9 8 8 7 7 6 6 6 6 5 4 5 7 8 10 12 14
28 27 27 26 25 24 23 21 20 19 18 17 17 16 16 15 15 15 15 14 13 12 12 12 12 11 10 9 9 8 8 8 8 7 7 5 4 5 6 8 9 11
29 29 29 28 28 26 25 24 23 22 21 21 20 19 18 18 18 18 17 17 16 15 15 15 15 14 13 12 11 10 10 9 9 9 9 8 6 5 5 6 7 9
29 30 30 30 30 29 28 27 26 25 24 24 23 22 21 21 21 20 20 19 19 18 18 17 17 17 16 15 13 13 12 12 11 11 11 10 9 7 6 6 7 8
28 29 30 30 30 30 30 29 28 27 27 26 25 25 24 23 23 23 22 21 21 20 20 19 19 19 18 17 16 15 15 14 14 13 13 12 12 10 9 8 8 8
26 28 29 29 29 29 29 29 29 28 28 27 26 26 25 25 25 25 24 23 22 21 21 21 21 21 20 19 18 17 17 16 16 15 15 14 14 13 12 11 10 10
24 26 28 28 26 26 27 27 28 28 28 27 26 26 26 26 26 25 24 23 22 22 22 22 22 22 22 21 20 19 19 19 18 17 17 16 16 16 15 14 13 12
21 24 26 26 24 23 24 25 26 26 27 26 26 26 26 26 26 25 24 23 23 23 23 23 23 24 23 22 21 20 20 20 20 19 18 18 18 18 17 17 16 15
19 22 24 25 24 22 22 23 24 25 26 26 25 25 26 26 26 25 24 23 23 23 23 24 25 24 24 23 22 22 22 22 22 22 20 20 20 20 20 19 19 18
19 20 21 23 23 22 22 22 23 24 25 25 25 25 25 26 26 25 24 24 24 24 24 25 26 25 25 24 23 23 24 24 24 24 23 22 21 21 21 21 21 20
20 20 22 22 23 23 22 22 22 23 24 25 26 26 25 25 26 26 25 25 25 25 26 26 27 27 26 25 25 25 25 26 26 26 25 25 24 23 23 23 23 22
23 23 23 23 23 23 23 22 22 22 23 25 26 26 26 26 26 27 27 27 26 27 27 28 28 29 28 27 26 26 27 28 28 28 27 27 27 26 26 25 25 24
27 26 26 25 25 25 24 23 23 22 22 24 25 26 26 26 26 27 28 28 28 29 29 30 30 30 30 29 28 28 28 29 29 29 29 29 29 29 28 27 27 27
30 29 29 28 28 27 26 25 24 23 23 23 24 25 26 26 26 27 27 28 29 30 31 31 31 31 32 31 30 30 31 30 31 31 31 31 30 30 30 30 29 29
33 32 32 32 30 29 29 27 26 26 25 24 24 24 24 26 26 26 26 27 28 30 31 32 32 32 32 32 32 32 33 33 32 32 33 33 32 31 31 32 32 31
34 34 34 34 33 32 31 30 29 28 27 27 25 24 24 25 26 26 25 25 26 28 30 31 32 32 32 32 32 33 34 34 34 34 34 34 33 33 33 33 34 34
36 36 36 36 36 35 34 33 32 31 30 29 28 26 25 25 26 26 27 26 26 27 28 30 31 32 32 32 32 32 33 35 36 35 35 35 34 34 34 35 36 36
38 37 37 38 37 37 37 36 35 33 32 31 30 29 27 26 26 27 28 28 27 27 28 30 31 32 32 33 33 33 33 35 36 36 36 36 35 35 35 35 35 36
40 39 39 39 39 39 38 37 37 35 33 32 31 30 29 27 27 28 28 28 29 29 29 30 31 32 33 34 34 34 34 35 36 36 36 37 36 36 36 35 35 35
40 40 40 40 40 40 39 38 37 36 35 33 32 31 31 30 29 29 29 29 29 29 29 30 31 32 33 34 35 35 36 36 37 37 37 37 37 37 37 37 37 37
40 41 41 42 42 41 40 39 38 37 35 34 34 33 32 32 31 30 30 30 30 30 30 30 31 32 33 34 35 35 36 37 38 38 38 38 38 38 38 38 39 39
46 44 43 43 43 43 41 39 38 38 37 36 36 35 34 34 33 33 32 32 31 31 31 31 32 32 33 34 35 36 36 38 39 40 40 40 39 39 38 39 39 39

ECMWFNIL_250_spd_066.txt.gz
Wind_Speed
22 20 19 17 16 15 14 13 12 11 9 8 7 6 5 4 3 2 1 1 2 3 4 5 5 6 6 5 5 6 6 6 7 9 10 12 13 14 15 17 18 19
22 21 19 18 17 16 15 14 13 12 11 10 9 8 6 5 4 3 2 2 2 3 4 4 5 5 5 5 5 5 5 5 6 7 8 10 11 13 13 15 16 17
22 21 20 18 17 17 16 15 14 14 13 12 11 10 8 7 6 5 4 3 3 4 4 5 5 5 6 5 5 5 5 5 5 5 6 7 9 11 12 13 14 15
22 21 20 19 18 18 18 17 16 15 14 14 13 12 11 9 8 8 7 6 6 6 7 7 7 7 7 7 6 6 6 6 5 5 5 6 7 8 10 12 12 13
23 21 20 20 20 19 19 18 17 16 16 16 15 15 13 12 11 10 10 9 9 9 10 10 10 10 9 8 8 8 7 7 7 6 5 6 6 7 9 10 11 12
26 24 23 22 21 21 20 19 19 18 18 18 17 17 16 15 14 13 13 12 12 12 12 13 13 13 12 11 10 10 9 9 9 8 7 7 7 8 8 9 10 11
29 28 26 25 24 23 22 21 21 20 19 19 19 18 18 18 17 17 16 15 15 15 15 15 15 15 14 13 13 12 11 11 10 10 10 9 8 9 9 9 10 11
30 30 29 28 27 26 25 25 24 23 22 22 21 20 20 20 20 20 19 18 17 17 17 17 17 17 16 15 14 14 13 13 12 12 11 11 11 10 10 10 11 11
30 30 30 30 29 28 28 28 27 27 26 25 24 24 23 24 24 23 22 21 20 19 19 19 19 18 17 16 16 16 15 15 14 13 13 13 13 12 12 12 12 12
32 32 32 31 30 29 28 28 28 28 28 27 27 26 26 26 26 25 24 22 21 21 21 21 21 20 19 17 17 17 16 16 16 15 15 14 14 14 14 13 13 13
30 31 32 31 29 28 27 27 28 28 28 28 28 28 27 27 27 26 24 23 22 21 21 21 21 21 20 18 18 18 18 17 17 17 16 16 16 16 16 15 15 15
27 28 29 28 26 25 24 25 26 26 26 27 27 27 26 26 26 25 24 22 21 21 21 22 22 21 20 19 19 19 19 19 19 18 18 18 18 18 18 17 17 17
25 26 26 25 23 22 22 22 23 23 24 24 25 25 25 25 25 24 23 22 21 21 21 21 22 21 21 20 20 20 20 21 21 20 20 19 20 20 20 19 19 19
24 24 23 23 22 21 21 21 21 21 22 22 23 23 23 23 23 23 22 22 21 20 21 21 22 22 22 22 21 21 22 23 23 22 22 21 21 21 21 21 21 21
22 23 23 24 23 22 21 21 20 19 19 20 21 21 21 21 21 22 22 21 21 20 21 22 22 22 22 23 23 23 24 24 25 24 24 23 23 23 23 23 23 23
20 21 23 25 25 24 22 20 18 18 18 19 19 19 19 20 20 20 20 20 20 20 21 21 22 22 23 23 24 25 25 25 26 26 26 25 25 25 24 25 25 25
25 25 24 25 26 25 23 20 18 17 17 18 18 18 19 19 19 19 19 19 19 20 20 20 20 21 22 23 24 25 25 26 26 26 27 27 27 26 26 26 26 26
33 31 28 25 25 25 24 23 20 18 17 17 17 17 17 17 18 18 18 18 19 19 19 19 19 19 20 21 22 23 24 25 26 26 27 27 27 27 26 26 26 27
36 34 32 28 27 26 26 25 24 21 18 17 17 17 17 17 17 17 17 17 18 18 19 18 18 18 19 20 21 21 23 24 25 26 27 27 27 27 27 27 27 27
37 35 35 32 29 28 28 28 27 24 20 17 17 17 18 18 17 16 17 17 17 18 19 19 18 18 18 19 20 21 22 23 25 26 27 27 28 28 28 27 28 28
38 37 36 34 31 29 29 29 28 26 22 19 18 18 19 18 18 17 17 17 17 17 18 19 19 18 18 18 19 20 22 23 24 25 27 28 28 28 28 28 29 29
40 40 38 35 31 29 29 28 28 27 24 21 20 20 20 19 19 19 18 18 18 18 19 19 19 19 19 19 19 20 21 22 24 24 26 27 28 29 29 29 30 30
43 42 40 35 31 30 30 29 28 27 25 22 21 21 21 21 20 19 19 18 18 19 19 19 19 19 19 19 19 20 21 23 24 24 25 26 27 28 29 30 30 31
45 43 42 38 34 33 32 30 29 27 25 23 22 21 22 22 22 21 21 20 20 20 21 20 20 20 20 20 20 21 22 24 24 25 26 26 26 27 28 29 30 31
46 44 43 42 38 35 33 32 31 28 26 24 22 22 22 22 23 24 24 24 23 22 22 22 22 22 22 22 22 22 23 25 26 27 28 27 26 26 27 28 29 30
46 45 45 45 42 36 33 33 32 29 27 25 23 23 23 23 25 25 26 26 26 25 24 24 23 23 23 23 23 23 24 25 27 28 29 28 27 27 27 27 27 28

ECMWFNIL_250_spd_069.txt.gz
Wind_Speed
23 21 19 17 16 15 14 13 12 11 10 9 9 8 7 6 5 4 3 2 2 2 3 4 5 6 6 6 6 6 7 8 9 10 11 12 13 13 14 15 16 17
25 23 21 19 18 16 15 14 13 12 12 11 10 9 8 7 6 5 3 2 1 1 3 4 5 6 7 7 7 6 6 6 7 8 10 10 11 11 12 13 14 15
27 25 23 21 19 17 16 14 14 13 13 12 11 10 9 8 7 5 4 2 1 2 4 5 6 7 8 8 8 7 7 7 7 8 9 9 10 10 11 12 13 14
29 26 24 22 20 19 18 16 15 14 14 14 13 12 10 9 8 7 5 4 4 4 5 6 7 8 9 9 9 8 8 8 7 8 8 9 9 10 10 10 11 12
29 28 25 24 22 22 20 18 17 15 15 15 15 13 12 12 11 10 8 7 6 6 7 8 9 9 9 9 9 9 9 8 8 8 9 9 10 10 10 10 10 11
30 29 28 26 25 24 22 20 18 17 17 17 16 15 15 14 13 13 12 11 10 9 9 10 10 10 11 10 10 9 9 9 9 9 9 9 10 10 11 11 11 11
30 30 29 28 27 26 24 22 20 19 19 18 18 17 17 17 16 15 14 14 13 12 12 12 12 12 12 12 11 10 10 9 9 9 9 9 9 10 11 11 12 13
31 30 30 29 29 27 25 24 22 21 20 20 19 18 18 18 18 17 16 16 16 16 15 15 14 13 13 12 12 11 10 10 9 9 9 9 9 10 10 11 12 13
31 31 30 30 29 28 27 26 24 22 21 21 20 20 19 19 19 19 18 18 18 18 18 18 16 15 14 13 12 12 11 10 10 10 9 9 10 10 11 11 12 13
33 32 31 31 29 28 27 26 24 24 23 22 22 22 21 21 21 21 21 20 20 20 20 19 18 16 14 13 13 13 12 12 12 11 11 11 11 11 12 12 13 13
34 33 33 32 31 28 27 26 25 25 25 24 24 24 23 23 22 22 22 21 21 21 20 20 19 17 15 14 13 13 13 13 13 13 13 12 12 12 13 13 13 14
33 33 34 33 31 29 28 28 28 27 27 26 27 26 26 25 24 23 22 21 20 20 19 19 18 17 16 14 14 14 14 14 14 14 14 14 14 14 14 14 14 15
31 33 33 32 30 29 29 29 29 29 29 28 27 27 27 26 25 22 20 19 19 19 18 18 18 17 16 15 15 15 15 15 15 15 15 15 15 16 16 16 16 16
27 29 30 30 29 28 29 30 30 31 30 28 27 27 26 26 24 21 20 19 18 17 17 17 17 17 16 16 16 15 15 15 15 15 15 15 16 16 16 16 17 17
25 26 27 28 28 28 28 29 30 30 29 28 27 27 25 25 23 21 20 19 17 16 16 17 16 16 17 16 16 16 15 15 14 14 15 15 16 17 17 17 17 17
28 28 29 29 29 29 29 29 29 28 28 27 27 26 24 23 22 21 20 18 17 16 16 16 16 16 16 16 16 16 15 14 14 14 14 15 16 17 17 18 18 18
30 30 30 30 30 29 28 27 27 27 27 27 26 25 24 23 23 22 20 18 17 16 16 16 16 16 16 17 17 16 15 14 13 13 14 14 15 16 17 18 19 19
30 28 27 28 28 27 25 23 23 24 26 26 26 26 25 24 24 23 21 19 18 17 17 16 15 15 16 16 16 15 15 14 13 13 13 13 14 15 15 17 18 19
31 29 28 27 28 27 25 23 22 23 24 24 24 24 24 25 25 24 22 21 19 18 16 15 15 16 16 15 15 14 14 14 13 13 13 13 13 14 14 15 16 18
34 33 31 30 29 28 27 26 26 25 23 21 21 22 23 25 25 24 22 21 20 17 16 15 14 15 14 14 13 14 14 14 14 13 13 13 13 13 14 15 16 17
38 37 35 34 32 31 30 29 28 27 25 22 21 21 22 22 22 22 22 21 19 17 16 14 13 13 13 13 13 13 14 15 15 15 14 14 14 14 14 15 16 18
41 39 38 36 35 35 34 32 30 29 26 23 22 22 21 21 21 21 20 19 17 16 16 14 12 12 12 13 13 14 15 16 17 17 16 16 15 15 15 16 17 18
41 40 39 37 36 36 38 36 32 30 27 24 24 24 23 22 22 21 19 17 17 17 17 16 14 13 14 14 14 15 17 18 19 19 19 18 17 16 16 16 18 19
41 40 40 39 37 37 39 38 35 32 29 27 26 25 24 23 22 21 20 19 18 18 18 17 16 16 16 16 15 16 18 20 21 21 21 21 19 17 17 17 18 19
44 43 43 42 40 38 39 40 38 35 32 29 28 27 26 25 24 23 23 22 20 20 19 19 19 19 18 18 17 17 19 21 22 23 23 22 21 19 19 19 19 20
48 46 45 43 42 40 40 40 39 37 34 32 31 30 28 27 26 26 25 24 22 21 21 21 21 21 20 20 19 18 20 21 23 25 25 23 22 21 21 21 21 21

ECMWFNIL_250_spd_072.txt.gz
Wind_Speed
18 17 16 14 14 13 12 11 10 8 7 6 5 4 3 3 2 1 3 5 6 7 8 9 10 11 11 12 12 12 12 12 12 12 12 12 13 13 14 14 15 15
20 19 18 17 16 14 13 12 11 10 8 7 6 5 5 4 3 1 1 3 5 7 8 9 10 11 11 12 12 12 12 12 12 12 12 11 11 12 12 12 13 13
22 21 20 18 16 15 14 13 12 11 9 8 7 6 6 5 4 3 1 2 4 6 7 9 10 11 11 11 12 12 12 12 12 12 11 11 11 11 11 11 11 12
24 22 21 20 18 17 16 15 14 12 10 10 9 8 7 6 5 4 3 2 4 5 7 8 9 10 11 11 12 12 12 12 12 12 11 11 11 11 11 11 11 11
26 24 23 22 21 19 18 17 15 14 12 11 10 9 8 8 7 6 5 4 5 6 7 8 9 10 11 11 12 11 12 12 11 11 11 11 11 11 11 11 11 11
27 26 26 25 24 22 20 18 17 15 14 13 12 11 10 9 8 8 8 7 6 7 7 8 9 10 11 11 12 12 11 11 11 11 11 11 11 11 11 11 11 11
28 28 28 28 27 25 22 20 19 17 17 16 14 13 12 11 10 10 10 9 9 8 8 9 10 11 11 12 12 12 12 12 12 12 12 12 12 12 12 12 12 12
29 28 29 29 29 27 25 23 21 20 19 18 16 15 14 13 12 12 12 11 11 10 9 10 10 11 12 12 12 12 12 12 12 12 12 13 13 13 13 13 12 12
30 29 29 30 31 30 28 26 24 22 22 20 19 17 16 15 15 14 13 13 13 13 12 12 12 12 12 12 12 12 12 12 13 13 13 13 13 13 14 13 13 13
32 31 30 31 31 30 29 28 26 25 24 23 21 20 19 18 17 16 15 15 15 15 15 14 13 12 12 11 11 11 11 12 12 13 13 13 13 13 13 14 13 13
34 33 33 32 31 30 29 28 27 26 25 24 23 22 21 20 19 18 17 17 17 17 17 16 14 13 12 11 10 10 11 11 12 12 12 13 13 13 13 13 13 13
34 35 34 32 30 29 29 28 28 27 26 24 24 23 22 22 21 20 19 19 19 20 19 17 15 13 11 10 10 10 10 10 11 11 12 12 13 13 13 13 13 13
34 35 34 32 30 28 28 28 28 28 27 25 24 24 23 24 24 23 22 21 21 21 20 18 15 13 11 10 9 9 9 9 10 10 11 12 12 13 13 13 14 14
32 33 33 31 29 28 28 29 29 29 28 27 26 26 25 25 24 23 23 22 22 20 19 18 16 13 11 9 9 9 9 9 9 10 10 11 12 13 13 14 14 14
29 30 31 31 30 29 30 30 31 30 29 28 28 28 26 25 23 22 22 21 21 19 17 17 16 13 12 10 9 9 9 9 9 9 10 11 12 12 13 13 14 14
27 29 30 30 30 30 31 31 32 31 30 30 29 29 27 25 23 21 21 20 19 18 17 16 15 14 13 11 10 10 9 9 9 9 9 10 11 12 12 13 13 14
28 29 29 29 30 30 31 31 31 31 30 30 29 28 27 26 24 23 21 19 18 17 17 16 14 14 14 12 11 10 9 8 8 8 8 9 10 11 12 12 12 13
29 30 30 30 29 29 29 30 30 29 29 28 27 27 26 25 25 24 21 19 19 18 16 15 13 13 14 13 11 9 8 8 7 7 7 8 8 9 10 11 12 13
28 29 30 29 28 27 27 27 27 28 28 27 27 26 25 24 25 24 22 20 19 17 15 13 13 13 13 12 10 9 8 7 7 7 7 7 7 8 9 10 11 13
27 28 29 28 27 26 25 25 25 26 26 26 25 25 25 25 25 23 22 21 19 17 15 13 13 13 13 11 10 9 8 8 8 7 7 7 7 7 8 9 10 11
32 31 30 29 28 26 26 26 27 26 25 24 24 25 25 25 24 23 22 21 19 18 16 14 13 13 13 12 10 10 10 10 9 8 7 7 7 7 8 8 9 11
36 36 35 33 30 28 29 31 32 30 27 25 24 24 24 24 24 24 22 20 18 17 17 16 13 13 14 13 12 12 12 12 11 9 8 8 8 8 8 9 9 10
41 41 39 37 34 32 33 35 36 34 32 28 26 25 24 24 24 23 22 20 19 19 19 17 15 14 15 15 14 14 15 14 12 10 10 10 9 9 9 10 10 11
45 45 44 41 38 37 38 38 38 37 35 32 29 28 26 26 24 23 21 21 21 21 20 19 17 16 17 17 17 16 17 16 13 12 12 11 9 9 10 11 11 12
48 50 48 46 44 42 42 41 39 38 37 34 32 31 29 27 25 24 23 23 23 22 22 22 20 18 18 19 18 18 18 17 15 14 14 12 10 10 11 11 12 12
49 52 51 49 48 47 44 42 39 38 38 37 36 34 32 29 27 26 26 25 24 24 23 24 23 21 20 21 20 19 19 18 17 16 15 12 11 11 12 12 12 12

ECMWFNIL_250_spd_075.txt.gz
Wind_Speed
18 16 14 13 12 11 10 9 7 6 4 2 2 2 3 4 5 6 8 11 12 13 15 15 15 15 15 15 15 15 15 15 15 15 15 15 15 15 15 16 16 16
19 17 15 14 14 12 11 10 9 7 5 3 2 2 3 3 4 5 6 9 10 11 13 13 14 14 14 14 14 14 14 14 14 14 14 14 15 14 14 14 14 14
22 19 17 15 15 14 12 11 10 8 6 5 4 3 3 3 3 3 4 6 8 9 10 11 12 12 13 13 13 13 13 13 13 13 13 14 14 14 14 14 14 14
24 21 18 17 17 17 15 13 11 9 8 7 5 4 4 4 3 3 3 3 5 7 8 9 10 11 11 12 12 12 12 12 12 12 13 13 13 14 14 14 14 14
25 23 21 20 19 19 17 15 12 11 10 8 7 6 5 5 4 4 3 1 3 5 6 8 9 9 10 10 11 11 12 12 12 12 12 13 13 13 14 14 14 14
27 25 24 22 22 20 19 17 14 13 12 10 8 8 7 6 5 4 3 2 1 3 5 6 7 8 9 10 10 10 11 11 11 11 12 12 13 13 13 13 13 13
28 27 26 25 23 22 20 19 17 15 14 12 10 9 8 7 6 5 4 3 3 3 4 5 6 7 9 9 9 9 9 10 10 11 11 11 12 12 12 12 12 12
28 28 27 26 25 23 22 21 19 17 16 13 11 9 9 8 7 6 5 4 4 4 5 6 7 8 8 9 9 8 8 8 9 9 10 10 10 11 11 11 11 11
29 29 28 27 26 25 24 23 21 19 17 15 12 10 10 9 8 7 5 5 5 6 7 9 10 10 10 9 9 8 7 7 7 8 8 9 9 10 10 10 10 10
30 30 29 28 26 25 23 22 21 19 18 16 13 12 10 10 9 8 7 6 7 8 10 11 12 12 12 11 10 8 7 6 6 6 7 7 7 8 9 9 10 10
31 32 31 30 27 25 23 22 21 20 19 17 16 14 12 11 11 10 9 9 9 10 11 12 13 13 13 12 11 9 8 7 6 6 6 6 6 7 7 8 9 9
32 33 33 32 29 26 24 23 22 22 21 20 19 17 16 15 14 12 11 11 11 12 13 14 14 13 13 12 11 10 9 8 7 6 5 5 6 6 6 7 8 8
33 34 34 33 31 29 26 25 25 24 24 23 22 21 20 20 18 16 14 14 14 15 15 15 14 13 12 11 10 10 10 9 8 7 6 6 6 6 7 7 7 8
32 34 34 33 33 32 30 29 28 27 26 25 25 24 24 23 21 19 17 16 17 17 17 16 14 12 11 11 10 10 10 10 9 8 7 7 7 6 7 6 6 7
31 32 32 33 33 34 34 33 32 30 28 27 27 27 26 24 23 21 20 19 19 18 18 17 14 12 11 11 11 11 11 11 10 9 9 8 7 6 6 5 5 6
31 31 31 31 32 34 35 35 34 33 31 30 29 28 27 26 25 24 23 21 20 19 18 17 15 13 12 12 12 12 12 11 10 10 9 8 7 6 5 4 4 5
32 32 32 31 32 33 34 35 35 34 33 32 30 28 27 26 25 24 23 22 20 19 18 16 14 12 12 13 13 13 12 11 11 10 9 8 6 5 4 4 4 4
32 32 32 32 31 31 32 33 34 34 33 32 31 29 27 25 24 23 21 20 19 19 18 16 13 11 12 14 15 14 12 12 11 10 9 7 6 5 4 4 3 4
34 34 34 34 33 32 31 31 31 32 32 32 32 30 28 26 24 23 20 18 18 18 18 16 14 12 12 14 15 15 13 12 12 11 10 8 6 5 4 4 4 4
36 36 36 36 34 32 32 31 31 32 31 30 29 28 28 27 26 24 22 19 18 18 18 17 15 13 13 14 15 16 14 13 12 12 11 8 7 6 5 4 5 5
37 36 36 34 33 31 30 31 32 32 31 29 27 26 26 27 26 25 24 22 21 20 19 18 16 14 14 15 15 16 15 14 14 13 12 9 8 7 5 5 5 6
37 35 34 34 32 30 30 30 31 31 31 29 28 26 26 25 25 25 25 23 22 21 20 19 17 15 15 16 16 16 15 16 16 15 13 10 8 7 6 6 5 6
40 37 36 34 33 32 32 31 31 30 29 29 28 28 28 27 26 26 24 23 22 22 22 21 18 16 16 17 17 17 17 18 17 15 13 11 9 8 7 6 6 6
42 41 39 37 35 34 33 32 31 29 28 28 28 29 29 29 28 27 25 24 24 24 23 22 20 18 18 18 18 18 18 19 17 16 14 12 10 9 8 8 8 8
44 43 42 40 37 35 34 32 30 29 28 28 28 28 29 29 29 28 26 25 25 25 24 23 22 21 21 21 21 20 20 19 18 17 16 13 10 9 9 9 9 9
46 45 43 41 38 35 34 33 33 32 32 32 31 30 29 29 29 29 28 28 27 26 25 24 23 22 23 23 22 21 21 20 19 19 16 12 10 11 11 11 10 9

ECMWFNIL_250_spd_078.txt.gz
Wind_Speed
18 16 14 11 10 9 8 7 6 5 5 6 7 9 11 11 11 12 12 13 13 14 14 14 14 14 14 14 14 14 14 14 14 14 14 14 14 14 13 13 13 12
19 18 15 12 10 10 9 8 7 6 5 6 7 8 10 10 10 10 10 11 11 12 12 12 12 13 13 13 13 13 12 12 13 13 13 13 13 13 13 13 12 12
21 20 17 14 11 11 10 9 8 7 6 5 6 7 9 10 9 9 8 8 9 9 10 10 11 11 11 12 11 11 11 11 11 12 12 12 12 12 12 12 12 12
23 21 18 16 14 13 12 11 10 8 7 5 5 5 7 9 9 8 6 6 6 7 7 8 9 9 9 10 10 10 9 10 10 10 10 11 11 11 11 11 11 11
24 23 21 19 17 15 13 12 11 9 8 6 5 5 6 7 8 8 6 4 3 4 5 6 7 7 8 8 8 8 8 8 8 9 9 9 10 10 10 10 10 10
25 24 23 22 20 17 15 14 13 12 10 8 7 5 5 6 8 8 7 4 2 2 3 4 5 6 7 7 6 7 7 7 7 7 8 8 8 9 9 9 9 9
25 25 25 24 23 20 17 16 15 14 12 10 9 7 6 7 7 8 7 5 3 1 1 2 4 5 6 6 6 6 6 6 5 6 6 6 7 7 7 7 7 7
25 26 26 25 24 22 20 18 17 16 14 12 10 9 8 8 8 8 7 6 4 2 1 1 3 5 5 6 6 5 5 5 5 5 4 4 5 5 5 6 6 6
26 26 27 26 25 23 22 21 20 19 17 15 13 12 11 10 9 8 8 6 5 3 2 1 3 4 5 5 5 5 5 5 5 5 4 4 4 4 4 4 4 5
28 28 28 28 26 24 22 21 21 21 20 18 17 15 14 12 11 10 9 7 6 5 4 3 4 5 6 6 6 5 5 5 5 5 4 4 4 4 4 4 5 5
29 30 30 30 28 26 24 22 21 21 22 21 20 18 16 14 13 11 10 8 7 6 5 5 5 6 7 7 7 6 6 6 5 5 5 5 5 5 5 6 6 6
30 31 32 31 30 28 27 25 23 22 22 22 21 19 18 16 14 12 11 9 9 8 8 8 8 7 8 8 7 7 7 7 7 6 6 6 6 6 6 6 6 6
31 32 33 33 32 31 29 28 27 25 23 23 23 22 20 18 16 14 12 11 11 11 11 11 10 9 8 8 8 7 7 8 8 7 7 7 7 7 7 7 6 6
32 33 33 34 34 33 32 31 30 28 26 25 25 24 23 21 19 17 15 14 14 13 13 13 13 11 10 8 8 7 7 8 8 8 8 8 8 8 7 7 6 6
32 31 32 34 35 35 35 34 33 32 30 28 27 26 25 24 22 20 18 17 16 14 14 13 13 12 10 9 8 8 8 8 9 8 8 8 8 8 7 7 6 6
32 32 32 32 33 35 36 36 36 35 33 32 30 28 27 26 25 23 21 20 18 17 15 15 14 12 10 10 9 9 9 9 9 9 9 9 8 8 7 6 6 5
34 34 33 32 33 34 36 36 37 36 36 35 33 31 30 28 26 25 23 22 21 19 18 17 15 12 10 10 10 10 10 10 10 10 10 9 9 8 8 7 6 5
35 35 35 34 34 34 35 37 38 38 38 37 36 34 33 31 29 27 26 24 22 22 21 20 18 15 13 12 12 12 12 12 12 12 12 11 10 10 9 8 7 6
36 37 37 37 35 35 36 37 38 39 39 38 37 35 35 34 33 31 29 27 25 24 23 22 21 18 16 16 15 14 14 14 14 13 13 12 11 11 10 10 9 8
39 39 39 39 38 37 36 37 38 39 39 38 37 36 35 35 34 33 31 29 27 26 25 24 23 21 19 19 18 17 16 16 15 15 15 14 13 12 12 11 10 10
43 42 41 41 40 39 37 37 37 37 38 38 37 36 35 34 33 32 32 30 29 27 25 25 25 23 22 21 21 20 19 18 18 18 17 16 15 14 13 13 12 11
44 43 43 43 42 41 38 37 36 35 36 36 35 35 34 34 33 32 32 31 29 27 26 26 26 25 24 24 23 22 21 21 21 20 19 17 16 15 15 14 14 12
45 45 45 44 43 42 39 35 33 31 31 32 33 34 34 33 33 32 32 31 29 29 28 28 28 27 26 26 25 24 23 24 23 21 20 19 18 17 16 16 15 13
50 49 49 47 45 43 39 35 33 31 30 30 32 34 34 34 34 33 32 31 31 31 30 29 28 27 27 27 27 25 25 25 24 21 20 19 18 18 17 17 16 15
53 53 51 49 46 43 40 37 35 35 37 37 37 37 36 35 34 33 32 32 31 31 31 30 29 27 26 27 26 26 26 26 24 22 21 20 19 18 18 18 17 16
54 54 53 50 47 44 42 40 39 40 43 44 43 40 36 34 33 32 32 31 31 31 31 30 29 27 27 27 26 26 26 26 25 23 22 20 18 18 19 19 19 17

ECMWFNIL_250_spd_081.txt.gz
Wind_Speed
15 13 11 9 7 6 5 6 6 6 6 8 8 8 8 8 8 9 10 10 10 10 10 10 10 11 11 12 12 12 12 13 13 13 12 12 11 10 10 9 9 9
17 15 13 11 9 7 6 6 7 6 6 7 8 9 8 8 8 8 9 8 8 8 8 9 9 9 10 10 10 10 11 11 11 12 11 11 11 10 10 9 9 8
19 17 14 13 11 10 8 7 8 7 6 7 8 9 9 9 8 7 8 7 7 6 7 7 8 8 8 8 8 8 8 9 9 9 10 10 9 9 9 9 8 8
20 18 16 15 14 11 10 9 9 9 8 7 8 9 9 9 9 7 7 6 6 5 5 5 6 6 7 7 7 6 7 7 7 7 7 7 7 7 7 7 7 7
21 20 19 18 16 13 11 11 10 10 10 8 8 9 10 10 10 8 7 5 5 4 4 4 5 6 6 6 6 6 6 5 5 5 5 5 5 5 5 5 6 6
23 23 22 20 18 16 14 13 12 12 12 10 9 9 10 10 10 9 7 5 4 3 2 2 3 4 5 6 6 6 5 5 5 4 4 3 3 3 3 4 4 4
25 25 24 23 21 19 17 15 15 14 13 12 11 10 10 10 10 10 9 6 5 4 2 1 2 3 4 5 5 5 5 5 4 4 3 3 3 4 4 4 4 4
26 26 27 26 24 22 20 18 17 16 16 14 13 12 11 11 11 10 10 8 6 5 4 2 1 1 2 4 4 5 5 5 4 4 4 3 3 4 5 5 6 6
26 27 28 28 27 25 24 22 20 19 18 17 16 15 13 12 11 11 10 9 8 7 6 5 3 2 3 3 4 4 5 5 5 5 4 4 4 5 5 6 7 7
28 28 28 28 28 27 26 24 23 21 21 19 18 17 15 14 12 12 11 10 9 9 8 7 5 4 4 4 5 5 5 6 6 6 5 5 6 6 7 7 8 8
30 29 29 29 28 28 27 26 25 24 23 22 21 19 17 16 15 13 12 12 11 10 10 9 7 6 5 5 5 6 6 6 7 7 7 7 7 7 8 8 9 9
31 30 30 30 29 28 28 27 26 25 24 23 23 22 20 19 17 16 15 14 13 13 12 10 9 8 6 5 5 6 6 7 7 7 7 8 8 8 8 9 9 10
31 29 28 29 30 30 29 28 28 27 25 24 24 24 23 22 20 19 18 16 16 15 14 13 12 10 8 7 6 6 6 7 7 7 8 8 8 9 9 9 9 9
28 27 26 27 29 30 31 31 30 29 27 26 26 25 25 24 23 21 20 19 19 18 17 16 14 12 10 9 7 6 7 7 7 7 8 9 9 9 9 9 8 8
25 25 26 26 27 29 31 32 32 31 30 29 27 26 26 25 25 24 23 22 21 20 19 18 17 15 13 11 9 8 8 8 8 8 9 9 10 9 9 9 9 8
25 25 26 26 27 28 30 32 33 33 32 31 30 28 27 26 27 26 26 25 24 23 23 21 20 18 16 14 12 11 10 10 10 10 10 11 10 10 10 10 9 8
27 26 26 27 27 28 29 30 33 33 33 33 32 31 30 29 29 29 28 28 27 26 26 25 24 22 19 17 15 14 13 13 12 13 13 12 12 12 12 11 10 10
31 32 32 32 31 31 30 29 31 33 34 34 34 33 33 32 31 31 31 30 30 30 29 28 27 24 22 20 18 17 16 15 15 15 15 14 14 14 13 13 12 11
34 37 40 40 36 33 31 29 29 31 33 35 34 33 33 33 33 33 33 32 32 32 31 30 29 27 25 23 21 20 19 18 18 18 17 17 16 15 14 14 13 13
39 41 43 42 36 31 29 29 28 29 30 31 32 33 34 35 35 35 34 33 33 33 33 32 30 28 26 24 23 22 21 20 20 20 19 19 18 17 16 16 15 14
44 45 43 40 35 31 31 33 32 31 31 30 29 33 37 38 38 37 36 36 35 34 34 33 31 30 28 25 24 23 23 22 22 22 21 20 19 18 18 17 17 16
46 46 44 41 39 37 37 37 35 35 37 38 37 39 43 43 42 41 40 39 37 36 35 34 33 31 29 27 25 24 23 23 24 24 23 21 20 19 19 18 18 17
49 48 46 45 44 42 38 36 36 38 41 44 47 49 48 45 44 43 41 39 39 37 36 36 34 33 31 29 27 26 25 26 26 26 25 23 21 20 20 19 19 17
53 51 49 49 48 44 39 36 38 42 44 45 47 48 47 43 42 41 39 39 39 38 37 37 36 34 33 32 30 29 28 29 28 28 27 25 23 22 21 21 20 19
57 54 53 52 51 49 46 43 44 47 48 46 46 46 45 43 42 41 39 38 38 38 38 37 37 36 35 34 33 32 31 31 30 29 28 27 24 23 22 22 22 21
59 58 56 55 53 52 50 47 47 50 50 49 47 47 46 45 44 43 41 38 36 37 38 37 38 37 35 35 34 33 33 32 31 31 30 27 24 23 23 23 23 23

ECMWFNIL_250_spd_084.txt.gz
Wind_Speed
12 13 11 7 5 5 5 6 6 5 5 5 5 5 4 3 5 6 6 7 7 7 7 7 7 8 8 7 7 6 6 6 6 6 6 7 7 7 8 8 8 7
14 14 13 10 8 7 7 8 7 6 6 7 6 6 5 4 3 4 5 6 6 6 7 7 7 7 7 7 6 7 7 6 7 7 7 8 8 8 8 8 8 8
14 15 15 14 11 9 9 9 9 8 7 7 8 7 7 6 4 3 3 3 4 5 6 7 7 7 7 7 7 8 8 8 8 9 9 9 10 9 9 9 9 9
15 17 18 17 15 12 11 11 11 10 9 8 9 9 8 7 6 4 2 1 2 4 5 6 7 7 7 7 8 8 8 8 9 9 10 10 11 11 11 11 11 12
17 18 20 20 18 15 14 14 14 13 11 10 9 10 10 9 8 7 4 2 0 2 3 5 6 7 7 7 7 7 7 8 8 9 9 10 11 11 12 12 13 13
19 19 20 22 21 19 17 16 16 15 14 12 11 10 11 11 10 9 7 4 2 1 1 3 4 5 6 6 7 7 7 7 8 8 9 10 11 11 12 13 13 14
20 19 20 22 22 21 20 19 19 18 17 15 13 12 12 12 12 11 10 7 5 4 3 1 2 3 5 6 7 7 7 7 8 8 9 10 11 11 12 13 13 14
21 21 20 21 23 23 22 21 20 20 20 18 16 15 14 13 13 13 12 10 8 6 5 4 2 2 4 5 6 7 7 7 7 8 8 9 10 11 12 12 13 14
21 22 22 22 23 24 24 22 21 21 21 20 19 18 17 16 15 15 14 13 11 9 8 7 5 3 2 4 5 5 6 6 7 7 8 8 9 10 11 11 12 13
20 22 23 23 24 25 26 24 23 22 22 22 21 20 19 18 17 17 16 15 14 12 11 10 8 5 4 2 3 4 5 5 6 6 6 7 8 8 9 10 11 11
18 21 24 25 25 26 27 27 25 24 24 23 23 23 22 21 20 19 18 17 16 15 14 12 11 9 7 5 3 3 4 5 5 5 6 6 7 8 8 9 9 9
18 20 24 26 27 27 28 29 28 27 26 25 25 25 24 23 22 21 20 20 19 18 17 15 14 12 10 8 6 5 5 5 5 6 6 6 7 8 8 8 8 8
17 18 23 26 27 28 29 30 31 30 28 27 26 26 26 25 24 23 22 22 21 20 19 18 17 15 13 11 9 8 7 7 7 7 7 7 8 8 8 8 8 7
21 22 27 29 29 29 30 31 32 32 31 30 29 28 28 27 26 26 25 24 24 23 22 20 19 17 15 13 12 11 10 10 10 9 9 9 9 9 9 9 9 8
28 29 34 36 33 31 30 30 32 34 33 32 31 30 29 28 28 27 27 26 26 24 23 22 21 19 17 15 14 13 13 12 12 12 11 11 11 10 10 10 10 9
33 35 38 39 38 34 32 31 32 33 35 35 34 33 31 30 29 29 28 28 27 26 24 24 22 21 19 17 16 15 14 14 14 14 14 14 13 12 11 11 11 10
38 39 40 41 40 37 34 32 30 31 33 36 37 36 35 33 31 30 29 28 28 27 26 25 24 23 21 19 18 17 17 17 16 16 16 16 15 14 13 13 12 11
43 42 41 41 40 38 36 34 32 31 33 35 37 37 37 36 34 33 31 30 30 29 28 28 27 25 24 22 20 19 19 18 18 19 19 18 17 16 15 14 13 12
45 43 43 44 42 39 39 39 37 34 34 35 35 35 36 37 37 36 35 34 33 32 31 31 30 28 27 25 23 21 20 20 20 21 21 21 20 18 17 16 15 15
45 41 42 45 46 43 42 41 39 35 34 33 32 32 33 35 36 37 37 37 36 35 34 34 33 31 30 28 25 23 22 22 22 22 23 23 22 21 19 18 17 17
47 43 41 43 47 48 45 43 41 38 35 34 33 34 34 34 35 36 37 36 35 35 35 35 34 32 31 29 26 24 22 23 23 24 25 24 23 23 21 20 19 19
51 49 46 44 46 49 48 45 44 42 39 38 38 37 35 35 36 36 36 35 34 34 34 35 34 33 31 29 26 24 22 23 25 26 26 26 24 24 23 21 20 20
54 53 51 49 50 51 50 48 47 47 44 42 41 38 35 36 37 36 36 36 34 33 33 34 33 32 30 30 28 25 24 24 26 28 28 28 27 24 24 23 22 21
55 51 51 52 54 53 51 49 48 49 48 46 43 40 38 38 37 36 38 38 36 34 32 32 31 30 29 29 29 28 26 26 28 29 31 31 29 26 24 23 23 23
59 54 52 54 56 55 52 50 48 48 49 49 46 43 42 42 41 39 39 39 38 36 32 30 30 30 28 28 29 30 30 29 30 31 33 35 33 29 25 24 24 24
61 58 56 57 58 57 55 51 48 48 50 49 47 46 45 44 43 41 40 39 39 37 32 28 28 27 26 27 30 32 31 31 32 33 35 37 37 33 29 26 25 25

ECMWFNIL_250_spd_090.txt.gz
Wind_Speed
6 7 9 11 11 10 9 8 7 6 5 4 3 3 4 5 5 5 6 6 7 7 7 8 9 9 10 10 11 12 12 12 13 14 14 15 15 15 15 15 15 15
7 7 8 11 12 12 12 10 9 8 7 6 5 4 3 4 3 3 4 4 5 6 6 7 7 8 8 9 9 10 11 11 12 13 13 14 14 14 14 14 14 15
9 7 8 10 12 14 14 13 11 10 9 9 8 6 5 4 4 2 2 3 4 5 5 6 7 8 8 8 8 9 10 10 10 11 12 12 13 13 13 13 14 15
11 9 7 8 12 14 16 16 14 13 12 11 10 9 8 7 5 4 2 0 1 3 5 6 7 8 8 8 8 8 9 9 9 10 10 11 12 12 12 13 14 15
11 10 9 8 10 14 17 18 17 16 15 14 12 11 10 9 8 6 4 3 2 2 3 5 7 7 8 8 8 8 8 8 9 9 9 10 11 12 13 13 14 15
10 10 10 10 10 13 16 19 20 18 17 16 15 13 13 12 10 9 7 6 5 3 3 4 5 6 7 8 8 7 7 8 8 8 8 10 11 12 13 14 15 16
14 12 11 11 11 12 15 18 20 20 19 18 17 16 15 13 13 12 11 9 8 7 6 5 5 5 6 7 8 8 7 7 7 7 8 9 11 11 13 14 15 16
19 17 14 13 13 12 14 17 20 22 21 20 19 18 17 16 15 14 14 13 12 11 10 8 6 6 6 7 7 8 8 8 7 7 7 9 10 11 12 14 15 16
24 23 20 18 16 14 14 16 19 22 23 23 22 20 19 18 17 16 16 16 15 14 13 12 10 8 8 8 8 8 9 9 8 8 8 9 10 11 12 13 15 15
24 24 23 20 18 15 15 16 18 21 24 25 25 23 22 21 19 18 18 18 17 17 16 15 13 12 11 10 9 8 8 9 9 9 9 9 9 10 11 13 14 14
25 24 23 20 18 16 15 17 18 20 23 26 27 26 25 24 22 21 20 20 19 18 18 17 16 15 13 12 11 10 9 9 8 8 9 9 9 9 10 11 12 13
27 25 23 22 20 18 16 17 19 20 23 25 27 28 28 27 25 24 23 22 21 20 18 18 17 16 15 14 13 12 11 10 9 8 8 8 8 8 9 10 11 11
27 25 24 24 23 19 17 18 19 21 23 24 27 29 29 29 28 27 26 25 23 22 20 19 17 17 16 15 14 13 12 11 10 9 9 8 8 8 8 8 9 10
28 26 25 25 25 22 20 19 20 22 23 24 26 28 29 30 29 29 28 27 26 24 23 21 19 17 16 15 15 14 13 12 11 10 9 9 9 8 8 8 8 8
30 29 29 30 30 27 24 23 23 23 25 25 25 26 27 28 29 29 29 28 27 26 25 24 21 19 17 16 16 15 15 14 13 12 10 9 9 8 8 7 7 7
33 32 33 35 35 32 30 30 28 26 27 27 26 25 25 25 27 28 29 29 28 28 27 25 23 21 19 18 17 16 16 15 14 13 12 11 10 9 8 7 7 6
36 35 36 38 37 35 34 34 32 29 29 29 28 27 26 25 25 26 27 28 29 28 27 26 25 23 22 20 19 18 17 16 16 15 14 13 12 10 9 8 7 6
39 39 40 39 38 36 36 36 34 32 31 31 30 30 29 27 26 25 26 27 28 28 28 27 25 24 24 23 22 20 19 18 18 17 17 15 14 12 11 9 8 7
44 43 43 41 40 38 37 37 37 35 34 33 31 31 32 31 28 27 26 26 27 28 28 27 27 26 26 25 25 24 23 22 21 20 18 17 16 14 12 10 9 8
47 45 44 42 42 41 40 40 40 37 35 33 32 32 33 33 31 30 29 28 27 27 27 28 28 28 27 28 28 27 26 25 24 22 20 18 17 15 13 11 9 9
51 48 45 44 44 44 43 43 42 39 37 35 34 34 34 34 34 33 32 31 29 28 27 28 29 30 30 30 30 29 28 27 25 24 22 20 19 17 15 14 12 11
53 50 48 47 46 45 45 45 44 42 39 38 38 38 37 36 35 35 34 33 31 29 28 29 30 30 31 31 31 30 30 28 27 26 24 23 22 20 20 19 18 16
58 56 55 53 49 47 47 48 48 46 43 41 41 41 40 37 35 34 33 32 32 31 30 31 32 32 31 30 30 31 31 31 30 29 27 26 25 23 23 22 21 20
64 62 62 60 55 51 50 51 52 53 50 46 44 44 44 41 36 32 30 30 32 33 34 35 36 35 33 31 30 31 31 32 32 32 31 30 28 26 25 24 23 21
66 65 66 64 60 56 55 54 55 56 56 52 49 47 47 45 40 34 32 33 34 36 37 38 38 37 35 33 33 32 32 33 34 34 34 33 31 30 28 27 25 23
68 68 68 67 64 61 59 58 57 57 57 56 53 51 49 47 43 38 37 37 37 38 40 40 40 40 38 37 37 36 35 35 34 35 35 34 33 34 32 29 27 25

ECMWFNIL_250_spd_096.txt.gz
Wind_Speed
13 12 13 14 15 15 16 16 16 16 15 15 14 13 13 14 15 16 17 18 19 20 21 21 21 20 19 19 18 17 17 17 16 16 16 17 17 17 17 16 16 17
13 13 11 12 13 14 16 16 16 16 15 14 14 13 13 13 14 15 16 16 18 19 21 22 22 22 21 20 19 18 17 17 17 17 17 17 17 17 17 17 18 18
10 12 10 10 13 14 15 16 17 16 15 15 14 14 13 13 13 14 15 15 16 18 20 21 23 23 23 22 21 19 19 18 17 17 17 17 18 18 18 18 19 19
8 9 8 9 12 14 15 16 16 16 15 15 14 14 14 13 13 14 15 15 16 17 18 20 21 23 24 24 22 21 20 19 18 17 18 18 18 18 19 19 20 20
9 8 7 8 11 13 14 15 16 16 15 14 14 14 14 14 13 14 14 15 16 16 17 18 19 21 22 23 23 22 20 19 18 18 17 18 18 18 19 19 20 21
12 10 7 7 9 11 13 14 14 15 15 14 14 13 13 13 13 13 14 15 16 16 16 16 17 18 19 20 21 21 20 19 18 18 17 17 17 18 18 19 19 20
14 12 10 9 8 9 11 13 13 14 14 15 14 13 12 12 12 13 13 14 15 15 15 15 15 15 16 16 18 19 18 18 17 17 16 16 16 16 17 17 18 18
14 13 12 11 9 9 10 12 13 14 14 14 15 15 13 12 12 12 13 13 13 14 15 15 14 13 13 13 14 15 15 16 16 16 15 15 15 15 15 15 15 16
13 12 11 11 10 9 9 11 11 13 14 14 14 15 14 13 12 12 13 12 12 13 14 14 14 13 12 11 11 11 12 12 13 13 13 13 13 13 13 13 13 13
13 13 12 12 12 11 10 10 10 11 13 12 12 13 14 13 12 12 13 13 13 12 13 13 13 13 12 10 9 9 9 9 10 11 11 11 11 11 10 10 10 10
15 15 15 15 15 14 12 11 10 11 13 13 11 11 12 13 12 11 12 13 13 13 12 12 12 13 12 11 9 7 7 7 7 8 9 9 9 9 9 8 8 9
18 18 17 17 17 16 14 12 11 11 14 15 13 10 10 11 11 11 11 11 12 12 12 12 12 12 12 11 10 8 6 5 5 5 6 6 7 7 7 7 7 7
23 22 21 19 18 17 16 15 13 12 14 16 16 13 11 10 10 11 11 10 11 11 11 11 11 11 11 11 10 9 7 6 4 3 3 4 5 5 5 6 5 5
27 26 24 22 20 20 19 18 15 14 15 16 17 16 15 13 12 11 11 10 9 10 10 10 10 11 11 11 11 10 9 8 6 5 4 3 3 3 4 5 5 5
28 29 27 25 24 22 22 21 18 17 16 17 18 18 18 17 15 14 13 11 10 10 10 10 10 10 11 11 11 11 11 10 9 8 7 5 4 4 3 3 4 4
31 31 28 27 26 25 24 23 22 20 19 19 20 21 22 21 20 18 15 14 13 12 11 10 10 10 11 11 12 11 11 11 11 10 9 8 7 6 5 4 3 3
36 34 30 28 27 25 25 25 24 23 22 22 23 24 24 24 24 21 18 16 16 15 15 13 12 12 12 12 13 13 12 12 12 12 11 9 8 8 7 6 5 5
40 38 34 31 29 28 27 26 28 27 26 24 24 25 25 26 26 25 21 19 19 19 19 17 15 14 14 13 14 16 15 14 13 13 12 12 11 10 9 8 8 7
42 39 37 35 34 33 31 29 30 30 29 28 27 26 26 27 27 26 24 22 22 22 22 21 19 18 17 16 16 17 18 18 15 13 13 12 12 11 11 11 10 10
41 39 39 39 37 36 33 32 33 33 32 32 30 27 28 28 29 29 27 25 25 25 24 23 22 20 20 20 19 18 19 20 19 16 14 13 13 13 12 13 13 13
42 41 40 40 39 38 36 35 35 35 35 33 31 29 29 30 31 31 29 28 28 28 27 26 25 24 24 23 22 21 20 21 21 20 18 16 15 14 14 14 15 15
43 42 41 41 42 42 41 39 37 36 35 33 32 31 31 31 31 30 29 29 30 31 31 29 27 27 27 27 26 25 23 22 23 23 22 20 18 17 17 17 17 17
45 43 43 43 43 45 45 42 39 37 36 35 33 33 33 32 32 32 32 32 32 34 33 31 30 29 29 30 30 29 28 26 25 25 23 22 20 19 19 19 19 19
46 44 43 44 44 45 45 43 40 39 40 38 35 34 35 34 33 33 34 35 36 38 36 33 33 33 31 32 33 32 32 31 29 27 25 23 22 21 21 21 20 20
51 47 44 44 44 43 42 41 40 40 42 42 39 37 37 37 36 35 36 37 41 44 42 39 39 38 35 33 34 34 35 34 32 31 29 26 25 25 24 23 23 22
57 53 49 47 47 46 44 42 42 43 45 45 43 39 38 38 37 36 37 38 41 45 45 43 42 42 39 37 37 37 37 36 35 35 34 32 30 28 28 27 26 25

ECMWFNIL_250_spd_099.txt.gz
Wind_Speed
11 11 13 16 17 16 15 14 14 14 14 14 15 15 16 16 17 18 20 21 24 25 26 25 24 23 22 21 20 20 20 20 21 21 21 21 22 23 23 23 23 23
11 10 10 13 15 15 15 14 13 13 12 13 14 14 14 15 16 17 17 19 21 22 24 24 24 23 22 21 20 20 20 20 20 20 20 21 21 22 23 23 24 24
11 10 8 10 13 14 15 14 14 13 12 12 12 12 13 14 15 16 16 17 18 19 21 22 23 22 21 21 20 20 20 20 19 19 19 19 20 21 21 22 23 24
10 10 8 8 11 12 13 14 14 15 14 13 11 11 12 12 14 15 16 16 17 17 18 19 20 21 20 19 19 19 19 19 18 18 18 18 18 19 20 21 22 22
10 10 9 8 10 11 11 12 14 15 16 15 13 11 11 11 12 14 15 16 16 16 16 17 17 18 18 18 18 18 18 18 17 17 16 16 17 17 18 19 20 21
9 10 9 8 8 9 8 10 12 13 15 16 16 13 11 11 11 12 14 15 16 16 16 15 15 15 16 16 16 16 16 16 16 15 15 15 15 16 17 18 20 21
9 8 7 6 6 6 6 7 9 10 12 13 15 15 13 11 11 11 12 13 15 15 15 15 14 13 13 13 14 15 15 14 14 14 14 14 14 15 16 17 19 20
9 7 7 7 5 4 5 6 7 8 9 10 11 13 13 12 11 10 10 11 13 14 14 14 13 13 12 11 11 12 13 13 13 13 13 13 13 14 15 16 17 19
10 9 8 7 6 5 6 6 6 6 7 8 9 9 11 11 10 10 9 9 10 11 12 12 12 12 11 10 9 10 11 11 11 12 12 12 12 12 13 14 15 17
11 11 10 10 10 9 9 7 6 4 4 6 7 8 8 9 9 9 8 8 8 8 9 10 10 10 10 9 8 8 8 8 9 10 10 10 10 11 11 12 13 15
14 14 13 13 14 14 13 11 8 6 5 4 5 7 8 8 7 7 7 6 6 6 7 8 8 8 8 7 7 7 6 6 6 7 7 8 9 9 9 10 11 12
19 18 17 17 17 17 16 14 12 10 8 7 6 7 8 8 8 7 7 6 5 4 4 5 6 6 6 6 5 5 4 4 3 4 4 5 6 7 7 7 8 8
22 22 22 22 21 19 19 18 17 15 12 10 9 8 9 9 10 8 7 7 6 4 3 3 3 3 4 4 3 3 3 2 1 1 2 2 3 4 5 5 5 5
23 23 23 24 25 25 23 21 19 18 16 14 13 11 10 11 11 11 9 7 7 6 5 2 1 1 1 2 2 1 0 1 1 1 1 1 0 1 1 2 2 3
28 27 27 27 27 27 27 25 22 20 19 17 16 14 13 13 14 14 13 11 9 8 7 6 4 2 2 2 2 1 1 2 3 3 3 3 3 3 2 2 2 2
34 32 30 29 28 28 29 28 24 22 21 20 18 17 17 17 17 17 16 15 14 12 10 9 7 6 5 5 5 4 3 3 4 5 5 5 4 4 4 3 3 3
37 33 31 31 30 30 31 30 26 23 22 21 21 20 19 20 19 19 20 19 18 16 14 11 10 10 9 8 7 6 6 5 4 5 6 7 7 6 5 5 4 4
38 35 33 32 31 32 34 34 30 26 25 25 23 22 22 22 23 22 23 23 22 20 18 15 13 13 13 12 11 9 9 8 7 5 5 7 8 8 8 8 8 8
38 37 37 36 34 34 37 38 36 32 30 29 27 25 24 24 24 25 26 26 26 24 23 20 18 16 16 16 15 13 12 11 9 8 7 7 8 9 10 11 11 11
39 38 40 40 38 37 38 40 40 38 36 33 31 30 28 26 26 28 28 29 29 28 26 24 22 21 19 19 18 18 17 14 12 10 8 8 8 9 10 12 13 13
40 39 40 40 40 39 40 41 42 42 42 39 36 33 31 30 29 30 30 30 31 30 29 27 26 25 23 22 21 20 20 19 17 14 11 10 10 10 11 12 13 14
41 41 42 42 41 41 43 45 44 44 45 44 40 36 34 33 32 31 32 32 32 31 30 30 30 29 27 26 25 24 22 21 20 19 16 14 13 13 13 13 14 14
43 44 44 44 43 42 43 43 44 44 46 46 44 39 37 36 34 34 35 34 33 32 31 31 31 31 30 28 27 26 26 24 23 22 21 20 18 17 16 16 16 16
48 48 46 44 43 42 43 43 42 43 44 46 46 42 39 37 37 38 38 38 37 35 33 32 31 32 33 32 29 28 27 26 26 25 25 24 23 21 20 19 19 18
52 52 51 49 47 46 46 44 43 41 41 43 45 45 42 41 41 41 40 40 42 41 37 34 35 36 35 34 33 31 30 29 29 29 28 27 27 26 25 23 22 20
53 54 54 53 53 53 52 50 47 44 43 44 47 48 47 46 46 45 43 42 44 44 41 38 39 38 36 36 36 35 35 34 34 33 32 30 29 29 28 27 25 24

ECMWFNIL_250_spd_102.txt.gz
Wind_Speed
10 12 14 15 14 14 14 14 14 15 15 16 17 17 17 17 17 18 18 19 19 18 18 18 18 19 19 19 20 20 21 21 21 22 22 22 22 22 22 22 22 22
9 9 10 12 14 14 14 13 13 14 14 15 16 16 16 16 16 16 16 17 18 18 18 18 17 18 18 18 19 20 20 21 21 22 22 23 23 23 23 23 23 23
7 7 7 9 11 12 13 14 14 14 14 14 14 15 15 16 16 16 15 15 16 17 17 17 17 17 17 18 18 19 19 20 21 22 23 23 24 24 24 24 24 25
5 6 6 6 8 9 11 13 13 13 13 13 13 13 14 14 15 15 15 14 14 15 16 16 17 17 17 17 17 17 18 19 20 21 22 23 24 24 24 25 25 25
2 4 4 4 5 6 8 11 12 13 13 13 13 12 12 13 13 14 14 13 13 13 13 14 16 16 16 16 16 16 17 17 18 19 20 21 22 23 24 24 24 25
1 2 2 2 3 3 6 9 11 12 12 13 13 12 11 11 11 12 13 13 12 12 12 12 13 14 15 15 16 16 16 16 17 17 18 19 20 21 22 23 24 24
3 1 0 1 2 2 4 6 8 9 10 11 12 11 10 9 9 10 11 11 11 11 10 10 10 11 12 13 14 15 15 15 15 15 16 17 18 19 20 21 22 23
6 5 3 2 2 2 2 2 4 6 7 9 9 9 9 8 8 8 8 9 10 9 9 9 9 9 10 10 11 12 13 13 14 14 15 15 16 17 18 19 20 21
9 8 7 6 4 4 3 1 0 2 3 4 6 7 7 7 7 6 6 6 7 8 8 7 7 7 7 8 8 9 10 11 11 12 13 13 14 14 15 16 17 18
12 12 12 9 7 7 7 6 4 3 2 1 0 2 4 5 5 5 4 5 5 5 6 6 6 6 5 5 5 6 6 7 8 9 10 11 11 12 13 13 14 16
17 15 13 12 10 10 11 10 8 6 5 5 5 4 2 1 2 3 3 3 3 4 4 5 5 5 4 3 3 3 3 4 4 6 7 8 9 10 10 11 12 13
20 16 14 15 14 14 14 12 11 9 8 8 8 7 6 5 4 3 2 2 3 3 4 5 5 5 5 4 3 1 1 1 2 3 4 5 6 7 8 9 10 10
24 20 18 18 19 18 17 15 13 12 10 11 11 10 9 8 8 7 5 4 3 3 4 5 5 6 6 6 5 4 3 2 1 1 2 2 3 4 4 6 7 7
28 26 25 24 23 22 20 18 17 16 15 15 15 14 13 12 11 11 9 7 6 5 5 5 6 6 6 7 7 6 5 4 3 3 3 3 3 2 2 2 3 3
29 29 29 28 27 25 22 20 20 20 20 18 17 17 17 16 15 13 12 11 10 9 8 7 7 7 7 7 7 7 7 7 6 5 5 5 5 5 4 3 2 2
32 31 30 30 29 27 25 23 22 23 23 22 20 20 20 20 18 16 14 13 13 12 11 10 10 10 10 9 8 8 8 8 8 8 7 7 8 8 7 7 6 5
35 34 32 32 32 31 29 28 27 27 27 25 23 22 22 22 20 18 17 16 15 15 14 13 12 12 13 13 12 11 10 9 9 9 10 9 9 9 9 9 9 9
39 38 36 35 35 35 35 33 32 31 31 29 26 23 23 23 21 20 19 19 17 17 18 17 16 16 16 16 15 14 13 12 12 11 11 11 11 11 11 10 10 11
43 41 40 38 37 38 39 39 37 34 33 31 29 27 26 25 24 23 23 22 21 21 21 20 21 21 21 20 19 17 16 14 14 14 13 13 13 12 12 12 12 12
47 44 42 40 40 41 42 40 38 36 34 32 31 30 30 28 27 27 28 27 26 26 25 25 25 24 24 24 23 21 19 17 16 16 16 16 15 15 14 13 13 13
48 46 44 42 41 43 42 40 37 35 33 33 32 32 32 32 31 31 31 31 31 30 28 28 28 27 26 27 27 25 23 21 19 19 18 18 18 17 17 16 14 14
44 42 43 43 43 44 42 39 36 35 35 36 36 36 35 35 35 35 35 35 35 34 33 32 32 30 29 29 29 29 28 25 23 22 21 20 20 20 20 19 18 16
47 41 39 41 42 43 41 39 36 37 40 42 41 40 38 37 37 37 38 39 37 37 38 38 35 34 32 31 30 31 31 29 27 25 24 23 23 22 22 22 21 20
56 49 45 44 43 42 42 41 40 40 43 45 45 43 41 40 39 40 41 41 40 41 43 42 39 38 35 34 33 32 32 32 30 29 27 26 26 25 25 24 24 23
63 59 57 53 49 46 45 44 43 43 44 45 45 46 44 43 43 44 45 43 41 42 45 43 41 40 39 38 38 36 34 33 32 31 29 28 28 28 28 27 26 26
67 65 64 59 52 48 46 45 43 44 45 46 46 47 46 45 45 46 48 46 44 44 45 43 42 43 42 42 42 41 38 36 35 34 33 31 31 31 30 29 29 29

ECMWFNIL_250_spd_105.txt.gz
Wind_Speed
9 10 9 9 10 10 9 9 9 10 11 12 12 13 14 15 17 18 19 19 19 19 19 19 19 20 21 22 22 22 23 23 23 23 23 23 22 22 22 22 22 22
6 7 9 10 10 10 9 9 9 9 10 10 11 11 11 12 14 15 17 18 18 18 18 18 18 19 20 21 21 21 22 23 23 23 23 23 23 23 24 24 23 23
4 5 6 8 9 9 9 8 8 9 9 8 10 9 9 10 11 13 14 15 16 17 17 17 17 18 19 19 19 20 21 22 23 23 23 23 23 24 24 24 24 24
2 3 4 5 6 8 9 8 7 8 8 7 8 8 7 8 9 10 11 12 13 15 15 16 16 17 18 17 18 19 20 21 22 22 23 23 23 24 24 24 25 24
1 2 2 3 4 6 8 9 7 7 7 7 6 6 6 6 7 7 9 10 11 12 13 14 14 15 16 16 16 16 16 18 20 20 21 22 22 22 23 23 24 24
1 2 1 2 3 4 5 7 8 7 7 7 6 5 4 4 4 5 6 7 8 9 10 11 12 13 14 14 15 15 14 14 17 18 18 20 20 21 22 22 22 23
4 3 2 2 4 4 3 3 5 5 6 6 5 4 3 2 2 3 4 5 5 6 7 8 9 10 11 11 12 13 13 13 14 14 16 17 18 20 20 21 21 22
8 6 5 5 5 5 5 4 2 2 2 3 3 3 2 2 1 2 2 3 4 4 5 6 6 7 8 8 9 11 11 11 12 12 13 15 17 18 18 19 20 20
11 10 10 9 7 7 7 5 4 3 1 1 1 1 2 2 2 2 3 4 5 5 5 5 5 5 6 6 7 8 9 9 9 9 10 12 14 15 16 17 18 18
13 12 12 12 10 10 9 7 6 5 4 4 3 3 2 3 4 4 4 5 6 7 7 7 6 5 4 5 5 6 6 7 7 6 7 9 11 12 13 14 15 15
16 14 14 14 13 12 12 10 9 7 7 7 6 5 5 4 4 5 5 6 6 7 8 8 8 8 6 5 5 5 5 5 5 5 5 6 7 8 9 10 11 12
20 17 17 17 15 14 15 13 12 10 9 9 9 8 7 7 6 6 6 6 6 6 7 7 8 10 10 8 7 6 5 5 5 5 5 5 5 6 6 7 8 9
27 23 22 21 18 16 17 17 15 14 12 11 11 10 9 9 10 9 8 7 7 7 7 6 7 9 11 11 10 9 8 7 6 6 6 6 6 5 6 6 5 6
31 29 27 25 23 20 20 20 19 17 16 15 14 13 12 11 11 12 11 10 9 8 7 7 7 8 10 11 11 11 11 9 8 8 7 7 7 6 6 6 6 5
32 32 30 28 27 25 24 24 23 21 20 19 18 17 15 14 13 14 14 13 12 11 10 9 8 9 9 10 11 12 12 12 11 11 10 9 8 7 6 5 5 5
34 34 33 31 30 29 28 28 27 26 24 23 21 19 18 16 16 16 16 16 15 14 13 12 12 11 11 11 11 11 12 14 14 13 13 12 12 10 8 7 6 5
36 35 36 35 33 31 32 32 31 30 29 27 24 21 19 19 20 19 19 19 19 18 17 16 15 15 14 14 14 13 12 13 14 15 15 15 15 14 12 11 9 8
39 38 39 39 37 34 33 34 34 33 32 30 28 25 23 23 24 24 22 22 22 22 20 18 17 17 16 16 16 16 15 15 15 16 16 17 17 17 16 15 14 13
42 42 42 42 40 37 35 36 36 35 34 33 31 30 28 28 28 28 26 24 24 24 22 20 20 20 19 18 18 18 18 18 17 17 17 18 18 18 18 18 17 16
45 46 45 44 43 40 38 39 39 37 36 35 34 34 34 34 33 32 31 29 27 25 24 23 24 25 24 23 22 21 20 20 20 20 20 19 19 19 19 20 19 18
44 47 48 47 48 46 42 41 41 41 39 38 38 37 37 37 36 35 34 33 30 28 26 27 28 29 28 27 26 26 24 23 23 23 22 22 21 21 21 21 21 21
44 47 49 46 45 45 43 41 41 43 43 42 42 41 39 37 35 35 36 35 34 32 30 30 31 31 29 30 30 29 28 28 26 25 25 25 24 24 23 23 23 24
46 47 49 45 40 39 40 41 42 44 45 45 45 43 40 36 34 36 37 36 36 35 32 32 33 32 32 33 33 31 30 31 31 29 27 26 27 27 26 26 27 27
49 47 49 48 41 37 37 38 39 44 47 47 45 44 40 36 36 39 40 38 38 38 36 35 36 36 36 37 35 33 33 34 35 34 31 28 28 28 28 30 32 31
55 52 54 52 47 42 40 38 38 42 45 45 44 43 40 39 39 41 41 40 40 41 41 41 41 40 39 39 37 36 37 37 38 39 36 32 30 29 31 34 36 35
61 60 60 61 59 55 51 49 49 48 45 41 40 41 41 41 42 42 41 42 42 43 45 46 44 42 41 40 39 39 40 41 42 43 41 39 37 35 36 38 38 37

ECMWFNIL_250_spd_108.txt.gz
Wind_Speed
8 9 8 7 7 8 9 10 11 13 14 15 16 17 17 18 17 17 17 17 16 16 17 18 19 20 21 21 21 21 22 23 23 22 22 22 21 21 20 19 19 18
6 7 7 6 6 5 5 7 9 11 13 15 15 14 16 16 16 15 15 15 15 15 15 16 17 18 20 22 21 21 21 21 22 21 22 23 22 21 21 21 21 20
4 5 6 6 5 4 3 5 7 9 10 12 14 14 15 16 15 14 14 13 14 14 14 14 15 16 17 20 20 20 20 20 20 21 21 22 22 22 21 21 21 21
2 2 3 4 4 4 4 3 5 7 8 10 12 13 14 14 14 14 13 13 12 12 13 13 13 13 14 15 16 18 19 19 19 20 20 20 22 22 21 21 21 21
1 0 1 1 1 2 3 3 4 6 7 8 9 11 12 14 14 14 14 14 13 12 12 11 12 12 13 13 14 15 17 18 18 18 19 19 20 22 22 22 21 21
4 3 3 3 2 1 1 2 3 5 6 7 8 9 11 12 14 15 15 14 14 13 12 11 11 11 11 11 12 13 14 16 17 17 17 18 19 21 21 21 21 21
7 6 5 5 5 3 2 0 2 3 5 7 8 8 9 10 12 14 15 15 15 15 14 13 12 11 10 9 10 11 12 13 15 16 16 16 18 19 19 20 20 20
10 9 7 6 7 6 5 3 2 2 3 5 7 8 8 9 10 12 13 14 15 16 15 14 14 13 12 10 9 10 10 10 11 13 14 15 16 17 18 18 19 19
13 12 10 8 8 7 7 6 5 4 4 5 6 7 8 8 9 10 11 12 13 14 14 14 14 14 14 13 11 10 10 10 10 11 11 12 13 15 16 17 17 17
16 14 13 11 10 9 9 9 8 6 6 7 7 7 8 8 8 8 9 10 11 11 12 12 13 13 13 13 13 12 12 11 11 10 9 10 11 12 14 15 15 15
19 17 15 14 13 12 11 11 11 9 8 9 9 8 8 8 8 8 9 9 10 10 10 11 11 11 12 12 12 13 12 12 12 11 10 9 9 10 11 12 12 12
22 20 18 16 14 14 13 13 14 13 12 11 10 9 10 10 9 10 10 10 10 10 10 10 10 10 11 11 11 11 12 12 12 12 11 10 10 9 9 9 9 9
27 24 22 20 18 17 16 15 15 16 16 15 12 11 12 11 11 10 11 11 11 11 11 11 10 10 11 11 10 10 11 11 12 12 12 12 10 9 8 7 6 7
31 29 28 26 24 22 21 19 17 18 19 18 16 15 14 14 13 13 12 12 12 12 12 12 11 11 11 11 11 11 11 11 11 12 12 13 12 10 9 7 5 4
35 33 33 32 30 29 27 25 23 21 21 22 21 19 18 17 17 17 16 14 13 13 13 13 13 13 12 12 12 12 12 12 12 12 12 13 13 12 11 10 8 6
39 38 36 36 36 36 34 33 30 26 24 24 24 23 21 21 21 21 20 17 15 15 14 14 15 15 15 14 13 13 12 12 12 13 13 14 14 15 13 12 10 8
42 42 40 39 39 39 38 36 34 31 28 27 27 26 26 25 24 24 23 21 18 16 16 17 17 17 18 17 16 15 14 13 12 13 14 14 15 16 16 15 13 11
45 45 44 43 42 41 39 37 35 33 31 29 27 27 28 29 29 28 26 25 22 19 19 20 20 19 20 20 18 17 15 14 14 14 14 15 16 17 18 18 17 15
48 47 46 45 44 43 40 38 36 33 32 30 28 27 29 31 31 30 29 29 27 23 23 24 24 23 23 23 20 19 18 17 17 17 16 16 17 18 18 19 20 20
50 48 46 44 44 44 42 40 38 35 34 32 30 29 30 31 31 31 32 32 30 28 29 29 27 26 26 25 23 22 21 21 20 20 20 19 19 19 19 19 22 23
51 50 47 45 45 46 45 43 41 39 38 37 34 33 31 29 30 33 34 34 33 33 33 32 29 28 28 28 27 25 24 24 24 23 23 23 22 21 21 21 23 24
54 52 50 47 46 46 46 46 45 43 43 42 40 39 37 33 32 35 36 36 36 36 35 33 32 31 29 29 30 29 28 28 27 27 26 25 24 25 25 25 26 26
56 55 53 51 49 48 47 46 47 48 49 48 47 45 43 40 40 41 40 39 40 40 38 36 35 34 32 31 32 32 31 31 31 30 29 29 28 29 29 29 29 29
57 57 56 54 52 52 49 48 49 50 52 53 53 51 49 49 48 46 44 44 44 42 41 38 36 35 35 33 33 33 33 33 33 33 33 33 33 32 33 33 32 31
58 58 58 56 56 55 53 51 52 51 50 51 51 51 51 53 53 49 47 47 46 45 43 41 38 37 37 36 36 36 35 35 36 37 37 38 37 35 36 37 36 34
61 61 61 59 58 57 55 53 52 53 52 49 47 45 44 47 50 49 48 48 48 46 43 41 41 40 39 38 39 39 39 39 39 40 40 41 39 37 36 39 40 39

ECMWFNIL_250_spd_114.txt.gz
Wind_Speed
11 11 12 14 15 16 17 18 19 20 21 22 23 24 24 24 24 23 23 23 23 23 24 26 28 29 31 32 32 31 29 29 29 29 29 28 27 27 27 28 29 29
10 9 9 10 12 14 15 16 17 18 18 19 20 22 23 24 24 24 24 24 23 23 23 24 25 27 29 30 31 30 28 26 26 27 27 27 27 27 28 29 29 30
10 9 8 8 9 11 12 13 14 16 16 17 18 19 20 21 22 23 24 24 24 23 23 22 23 24 26 27 29 29 28 26 24 24 25 26 26 26 27 28 28 29
9 9 9 8 7 8 9 10 11 13 14 15 15 16 17 18 19 21 22 22 23 23 23 22 22 23 23 24 26 27 27 26 24 23 24 25 25 25 26 27 27 27
8 9 9 9 8 7 7 8 9 10 11 12 13 14 14 15 16 17 19 20 21 22 22 22 22 22 22 22 22 23 25 24 23 23 22 22 23 23 23 24 24 24
10 9 9 9 9 9 7 6 7 8 8 9 10 11 12 13 14 15 16 17 18 19 20 21 22 22 21 21 20 20 21 21 21 20 19 19 19 19 19 19 18 18
14 12 11 10 10 10 9 7 7 7 7 7 7 9 10 11 12 13 13 14 15 16 17 19 20 20 20 20 19 18 18 18 18 18 17 16 14 13 13 12 12 12
18 16 15 13 12 12 11 10 9 8 8 7 6 7 7 9 10 11 12 13 13 14 14 16 17 18 18 19 18 18 16 15 15 15 15 14 13 12 11 10 9 10
22 21 20 18 15 14 13 12 11 10 10 8 8 7 7 6 7 9 10 11 11 12 12 13 14 14 15 16 17 17 16 15 14 13 13 12 12 12 11 10 10 10
25 25 23 21 19 17 16 15 14 13 12 11 10 9 9 8 7 7 8 9 10 11 11 11 11 12 12 13 14 14 14 14 13 12 12 12 11 11 10 10 10 9
26 27 27 24 23 21 19 17 16 15 15 15 14 12 11 10 9 8 8 8 9 10 11 11 10 10 10 10 10 11 11 11 11 11 10 10 10 10 10 9 8 8
28 29 28 26 25 23 21 19 17 16 16 16 16 15 13 12 11 11 10 10 10 10 11 11 11 9 9 8 7 7 8 7 8 8 8 8 8 8 9 8 8 9
32 31 29 28 27 25 23 21 19 18 17 17 17 16 15 14 13 12 12 11 12 12 11 11 12 11 9 8 7 6 6 5 5 5 5 5 5 5 5 6 8 9
36 34 31 31 30 28 26 24 21 19 19 19 19 18 17 17 15 14 13 13 14 14 13 12 12 12 11 10 9 8 7 6 5 4 3 2 2 3 3 4 5 6
39 38 34 33 32 30 27 25 22 22 21 21 21 21 20 20 19 18 16 16 16 17 16 15 14 13 13 13 12 9 9 9 9 8 7 5 3 3 3 2 1 1
42 42 38 35 34 34 32 29 27 25 24 24 24 24 24 24 24 23 21 20 20 20 19 19 18 17 17 16 15 13 11 11 12 12 12 11 8 5 4 4 3 1
44 44 41 38 38 38 39 38 35 32 29 26 26 27 27 28 29 28 26 25 24 23 22 22 22 22 21 19 19 18 17 15 15 16 16 15 13 10 7 7 6 3
46 46 44 42 42 42 43 43 41 38 35 30 28 29 30 30 31 30 29 28 27 26 25 25 25 25 24 23 22 21 21 19 19 20 19 18 17 15 14 12 10 8
44 45 44 44 45 47 48 47 45 43 40 36 33 33 33 33 33 32 32 31 30 29 27 27 27 27 26 25 24 23 24 24 23 23 22 21 20 20 19 18 16 13
42 42 43 45 47 49 50 49 48 47 44 41 38 37 36 36 36 36 35 34 33 31 31 29 27 26 26 26 25 24 26 27 26 25 25 23 23 23 23 22 20 18
48 46 46 49 51 52 52 51 50 49 48 46 43 41 40 39 39 39 38 38 36 35 34 32 29 27 27 27 26 27 28 29 27 27 27 26 26 27 26 25 24 22
49 49 49 48 50 51 52 53 54 54 53 52 48 46 45 43 42 42 41 42 41 40 38 36 32 30 29 29 29 30 31 31 29 28 28 28 28 30 30 29 28 27
48 47 47 48 51 53 52 53 56 57 58 57 53 50 50 47 45 44 45 45 45 44 42 39 36 35 34 34 33 33 33 33 32 31 32 32 32 32 33 33 33 31
55 52 50 51 55 58 58 60 64 65 63 61 58 54 52 50 47 45 47 49 48 46 44 42 39 38 38 38 38 37 37 37 37 36 36 36 37 37 38 38 37 36
60 57 55 53 52 55 59 61 65 67 65 61 59 56 53 50 47 45 48 50 49 45 44 43 41 41 41 41 41 41 40 41 41 41 41 40 40 41 42 42 42 42
65 63 61 58 54 54 57 59 60 64 65 62 59 56 51 47 45 46 49 50 47 43 41 41 41 41 42 43 43 43 44 45 45 45 46 45 44 44 46 47 48 47

ECMWFNIL_250_spd_117.txt.gz
Wind_Speed
13 12 13 15 16 17 18 19 21 21 22 23 24 25 26 27 27 27 26 26 27 27 28 28 28 26 25 25 25 25 26 27 29 29 30 31 31 29 28 27 26 25
12 12 11 11 13 14 15 17 18 19 20 20 21 22 24 25 26 27 26 26 26 25 25 26 27 26 25 24 23 23 24 25 27 28 28 29 30 29 28 27 25 24
11 11 11 11 10 11 12 14 15 16 18 19 19 20 21 22 23 24 25 25 25 25 24 24 24 25 24 23 23 23 23 23 24 25 26 27 27 27 26 25 24 23
9 10 11 11 10 9 9 10 12 14 15 16 17 18 18 20 21 21 23 24 24 24 24 23 22 22 22 21 21 21 21 21 21 22 24 25 25 24 23 21 20 20
8 8 9 10 11 11 9 8 9 10 12 13 14 16 16 17 18 19 19 20 21 22 23 22 22 21 20 19 18 18 18 18 19 19 19 19 19 19 19 19 18 18
9 9 9 9 10 11 10 9 8 8 9 10 11 13 14 15 16 17 17 18 18 19 20 21 21 20 19 18 17 16 15 14 14 14 14 13 12 14 15 16 16 16
13 11 11 10 10 11 11 10 9 8 8 8 9 10 11 13 14 15 15 16 16 16 17 17 18 18 18 18 17 15 14 13 12 12 11 10 10 11 13 13 14 15
15 14 13 13 13 12 13 12 12 10 9 8 7 8 8 10 11 12 14 14 15 15 15 15 15 15 16 16 16 15 15 14 13 13 12 11 11 11 12 12 12 12
18 17 15 15 15 14 13 14 13 12 11 10 8 7 6 6 7 9 11 12 13 14 13 13 12 12 12 13 13 14 13 13 13 13 13 12 12 12 12 12 11 10
21 19 17 16 17 17 16 15 15 15 14 12 11 9 7 6 4 5 7 8 10 11 12 12 11 10 10 10 10 11 11 12 12 12 12 12 12 12 12 12 11 10
24 22 20 18 19 19 19 18 16 15 15 15 14 12 10 8 6 4 3 5 6 7 8 9 10 10 9 8 8 8 8 9 10 11 11 12 12 12 11 10 9 9
25 24 23 21 20 20 21 20 18 17 17 17 17 15 13 10 9 7 6 5 6 7 7 7 9 9 9 8 7 6 7 7 8 9 10 11 11 11 10 9 9 8
27 26 25 23 22 21 22 23 23 21 19 19 19 18 16 14 12 10 9 8 8 8 9 9 10 10 10 9 7 7 6 6 7 8 8 8 8 8 8 9 10 10
29 29 28 26 25 23 22 25 26 25 23 21 21 20 18 16 15 14 13 11 10 9 9 11 12 13 13 12 10 9 8 7 6 8 8 7 5 5 6 8 9 9
32 32 30 29 28 26 25 26 27 28 27 24 22 22 21 19 18 17 16 15 14 13 13 14 15 15 15 15 14 13 12 10 9 8 8 8 7 6 6 7 7 7
34 33 31 30 30 30 30 29 28 30 30 28 25 24 22 20 19 19 19 19 18 17 17 17 18 18 17 17 17 16 15 14 12 10 9 9 9 8 8 8 8 8
35 32 30 27 27 30 33 33 32 31 32 32 30 28 25 23 22 21 21 21 21 21 21 21 20 21 19 18 18 18 18 18 16 13 12 12 11 10 10 10 11 11
36 32 29 26 26 30 34 36 36 35 35 36 34 33 32 30 27 25 24 23 22 22 24 24 24 23 22 21 20 20 20 19 18 16 15 15 14 14 13 13 14 13
36 35 34 32 32 34 35 36 37 38 38 39 39 38 36 34 32 30 28 27 26 25 26 27 27 27 25 24 23 23 22 21 20 18 17 17 16 16 16 17 17 17
41 40 42 43 41 39 39 39 39 39 38 38 41 41 40 39 36 34 33 32 31 30 29 30 30 30 29 28 27 27 26 24 23 21 20 19 19 18 18 19 19 19
45 44 47 51 49 47 46 45 43 42 41 40 40 40 39 39 39 39 38 37 36 35 35 34 32 32 32 32 32 31 30 29 28 26 24 23 22 21 21 20 21 21
47 46 49 54 55 53 52 49 46 44 44 43 41 38 37 35 35 38 41 41 39 38 38 37 36 34 35 36 36 35 35 33 32 30 29 27 26 25 25 25 25 24
48 48 51 54 56 55 54 52 48 46 45 44 40 38 37 34 33 36 41 41 41 40 40 40 40 40 40 41 40 39 38 37 36 35 34 32 31 30 30 30 30 30
50 51 53 55 57 56 52 49 47 47 47 45 42 39 39 41 43 46 47 46 44 42 41 41 42 43 43 42 40 40 39 38 38 37 36 36 35 34 33 34 35 35
49 50 50 51 55 55 51 46 44 46 47 47 44 43 44 48 51 52 53 51 48 45 43 44 45 46 45 43 42 41 41 40 40 39 38 37 37 36 36 36 37 37
51 51 49 49 51 52 52 48 45 46 49 50 49 48 49 54 56 53 51 50 50 50 49 46 45 46 46 43 42 42 41 39 38 38 37 36 36 37 38 38 38 38

ECMWFNIL_250_spd_120.txt.gz
Wind_Speed
14 15 15 17 18 19 20 21 22 23 24 25 27 28 29 29 29 28 27 27 27 26 25 25 25 26 28 29 30 31 31 31 29 28 27 26 25 24 24 24 24 24
13 14 14 14 15 16 17 18 19 20 22 23 24 25 26 27 28 28 27 26 25 25 24 24 24 24 25 25 27 28 29 29 28 27 25 24 23 23 22 22 22 23
10 11 12 13 13 13 14 15 16 17 19 20 21 22 23 24 24 25 26 26 25 24 23 22 22 22 22 22 23 24 26 26 26 24 23 22 21 21 21 21 21 21
7 8 8 10 11 11 11 12 13 14 15 17 18 19 20 21 21 22 23 24 24 24 22 21 20 19 19 19 19 20 21 21 21 21 20 18 18 18 19 19 18 18
5 5 6 6 8 9 10 9 10 10 11 13 15 16 17 18 19 19 20 20 21 22 22 21 20 18 17 16 16 15 15 14 14 15 17 16 15 15 17 17 17 16
6 5 4 4 5 6 8 8 8 8 8 9 10 12 14 16 17 17 17 18 18 19 19 20 20 19 18 16 14 13 12 11 11 12 14 14 13 13 14 15 15 15
6 7 7 5 4 4 5 7 7 6 5 6 7 8 9 11 13 15 15 15 15 15 16 17 17 18 18 17 16 14 13 12 12 13 13 13 12 12 12 13 13 13
9 8 8 8 7 5 4 5 6 6 5 5 4 4 5 7 9 11 12 13 13 13 13 13 14 15 15 16 16 15 15 14 14 14 13 13 12 11 10 10 10 11
12 11 10 10 10 9 7 6 5 6 6 6 5 4 3 3 3 5 7 9 10 10 11 11 11 11 12 13 13 13 14 14 14 14 14 13 11 10 9 8 7 7
16 14 13 12 12 12 11 10 8 6 6 6 6 6 4 4 3 1 2 4 6 7 8 8 9 8 8 9 9 10 11 11 12 13 13 13 12 11 10 9 8 7
20 19 16 15 15 15 15 14 12 10 8 7 7 7 7 6 5 4 3 2 2 4 5 5 6 7 6 6 6 6 7 8 9 10 10 10 11 11 11 11 9 8
24 23 20 18 18 18 17 17 16 15 12 10 9 10 9 8 7 6 6 5 4 3 3 3 4 5 6 5 4 4 5 6 6 6 6 7 7 9 10 10 10 9
27 27 25 22 21 20 20 19 19 18 17 14 12 11 11 12 11 9 8 7 6 5 4 3 3 4 5 5 5 5 6 7 6 5 3 4 5 6 7 7 8 9
31 32 30 28 26 24 23 22 21 21 20 19 16 13 13 14 14 13 11 10 9 8 7 6 6 6 7 6 6 6 7 7 6 5 5 5 5 5 5 6 6 7
35 35 34 33 32 29 26 24 23 23 23 22 18 15 14 14 15 15 15 14 12 11 10 10 9 9 9 8 8 7 8 8 6 5 5 6 6 6 6 7 7 7
34 36 36 36 37 36 33 29 27 27 26 25 20 15 14 14 15 16 17 18 17 15 13 13 13 13 11 10 10 9 9 9 9 9 9 8 8 7 7 7 7 8
33 34 35 37 39 41 39 34 30 29 29 29 25 19 17 18 18 18 19 20 19 17 16 16 16 16 14 12 12 12 11 10 10 11 12 12 12 11 10 10 9 9
33 33 36 39 41 40 38 35 33 30 29 31 31 25 21 22 23 23 23 24 23 21 19 19 19 19 17 15 14 15 15 15 13 13 14 14 14 14 14 13 12 12
35 36 39 41 41 38 34 33 33 32 32 36 36 30 26 25 25 25 27 29 29 28 27 25 24 23 21 20 19 19 19 18 17 17 17 17 17 17 17 16 15 14
39 39 42 43 41 38 34 33 34 34 36 39 37 32 29 28 26 27 30 32 32 32 31 30 29 28 27 24 23 23 22 21 20 20 21 21 21 21 20 19 19 18
44 43 44 45 43 40 37 34 34 36 38 39 37 33 32 31 30 31 31 33 34 33 32 33 33 34 33 29 27 26 25 24 23 23 24 25 25 25 24 24 23 23
48 48 48 47 46 43 41 38 37 36 38 39 39 37 37 36 35 35 34 33 34 32 31 32 34 36 37 35 32 29 28 28 28 28 28 28 28 27 27 27 27 27
49 50 50 50 50 48 45 44 43 40 40 41 43 44 45 43 41 39 37 37 37 35 32 33 35 36 36 35 34 33 31 31 31 31 31 30 29 27 27 28 28 28
51 51 52 52 52 51 48 48 48 46 43 42 43 47 50 49 46 44 43 41 40 38 37 37 37 35 32 32 32 33 32 33 33 33 33 32 30 30 30 30 30 30
52 53 54 53 51 50 50 50 50 50 48 46 45 47 50 49 47 46 46 45 43 40 39 39 39 37 36 36 38 38 37 36 35 34 33 32 31 31 31 30 31 31
48 51 53 52 50 49 51 51 51 52 52 53 53 53 53 52 50 48 48 48 46 44 42 43 44 44 44 44 45 45 43 39 36 35 33 30 29 30 31 31 31 31

ECMWFNIL_250_spd_123.txt.gz
Wind_Speed
14 15 16 17 18 19 20 21 22 24 25 26 26 26 25 24 24 23 23 23 24 25 26 27 27 27 27 26 26 25 24 23 23 23 24 24 24 24 24 24 24 24
12 12 13 14 15 16 17 18 19 20 22 23 24 25 25 24 23 22 21 21 21 21 22 23 24 24 25 24 23 23 22 21 21 21 21 21 21 21 21 21 21 21
9 10 11 12 12 13 14 15 16 17 18 19 21 22 23 24 23 22 21 20 19 18 18 19 20 20 21 21 21 20 19 19 19 19 19 19 19 19 19 19 18 18
7 8 8 9 10 10 11 12 13 14 14 16 17 19 20 21 21 22 21 20 18 17 16 15 15 15 16 16 16 17 16 16 15 16 16 16 16 16 16 16 16 16
5 5 6 6 7 8 9 9 9 10 11 12 13 15 16 17 18 19 19 19 19 18 16 15 14 12 12 12 12 13 14 13 13 13 14 14 14 14 14 13 13 14
2 2 3 4 4 5 6 7 7 7 8 9 10 11 12 14 15 16 17 17 17 17 16 16 15 14 13 12 12 13 13 13 12 12 12 13 13 12 12 12 12 12
3 2 1 1 2 3 3 4 4 5 5 5 6 7 8 9 11 12 13 14 14 14 14 14 14 14 14 14 14 14 14 14 13 11 11 11 11 11 10 10 10 10
6 5 4 4 3 2 2 2 2 2 2 2 3 3 4 5 6 8 9 10 11 12 12 12 12 11 12 13 14 14 15 14 14 12 10 9 8 8 7 7 7 7
9 8 7 7 6 6 5 4 3 3 2 1 1 1 1 2 2 3 4 6 7 8 9 10 11 10 9 10 11 12 13 14 14 13 12 10 7 6 5 5 4 4
13 12 11 10 9 9 9 8 7 5 5 4 3 2 2 1 1 2 1 1 3 4 5 7 9 10 9 8 8 9 10 10 11 12 12 11 9 8 6 6 5 4
16 15 15 13 12 12 12 11 10 9 7 6 6 5 4 4 4 4 3 3 2 1 1 3 5 7 9 8 7 7 7 8 8 10 10 10 9 8 8 8 7 6
19 18 18 17 16 16 15 14 13 12 10 9 8 8 8 7 7 6 6 6 5 4 3 2 1 2 5 7 6 5 5 6 6 7 8 8 8 8 8 8 8 8
21 21 21 20 20 20 19 17 15 14 13 12 11 11 11 11 11 10 9 9 8 7 6 5 4 3 3 4 5 5 4 3 2 3 3 4 5 5 5 6 7 7
23 23 22 21 22 23 22 21 19 18 17 16 15 14 14 14 13 12 12 11 11 10 9 8 7 5 4 4 4 3 3 4 4 4 4 3 1 1 2 3 4 4
23 23 23 23 23 24 25 25 25 23 22 21 17 15 17 17 16 14 13 13 13 13 12 10 9 8 7 6 5 4 3 4 5 7 7 6 5 4 3 3 4 3
25 23 23 24 24 25 26 28 29 28 27 25 22 19 20 21 21 19 17 15 14 14 15 14 13 10 9 8 8 8 7 5 5 6 8 8 8 8 7 7 8 6
27 27 27 27 26 27 29 29 28 27 27 27 29 29 28 25 24 24 23 20 17 16 16 17 17 14 11 10 11 11 10 8 8 8 8 8 8 9 9 10 10 10
31 32 32 30 29 29 30 32 30 27 26 28 31 34 35 31 26 25 25 24 21 19 18 18 18 17 16 15 15 15 14 12 11 11 10 10 10 10 11 11 12 13
34 35 33 32 32 32 31 32 32 31 30 30 30 31 32 32 29 26 27 27 26 24 21 20 20 20 21 22 22 21 19 18 16 16 14 13 13 13 13 13 14 14
36 36 34 32 33 35 34 33 34 34 34 34 34 33 32 31 30 29 30 31 32 30 27 24 23 22 22 24 26 26 26 24 22 21 19 18 17 18 17 16 16 16
36 36 35 32 32 34 35 35 35 35 36 38 38 39 37 34 32 31 33 35 36 36 34 29 26 24 24 25 26 27 28 27 26 26 25 23 22 21 21 21 19 18
38 37 34 31 32 34 35 37 37 36 38 40 41 41 41 39 37 35 37 38 39 40 37 33 29 28 27 26 25 25 27 27 27 28 29 28 27 26 25 24 23 21
39 38 36 34 36 38 39 39 38 37 39 42 42 43 43 43 42 40 39 40 42 43 40 35 34 33 31 29 27 27 28 29 29 30 31 32 32 30 29 28 26 24
41 41 42 40 39 40 41 42 40 40 42 44 44 45 46 46 46 45 43 43 44 46 44 40 39 39 37 35 32 30 31 32 33 33 33 33 32 31 30 29 27 26
46 47 47 45 41 41 43 44 44 42 42 44 46 46 46 47 47 47 47 46 45 46 47 47 45 45 44 42 39 36 35 36 37 37 35 33 32 32 31 29 29 29
51 52 52 49 46 45 45 44 44 42 40 41 43 43 43 45 46 47 48 48 48 49 50 51 49 48 47 46 45 42 39 39 40 41 39 36 35 36 37 35 34 33

ECMWFNIL_250_spd_126.txt.gz
Wind_Speed
16 17 18 19 20 21 23 24 25 24 24 23 22 22 23 23 24 24 25 26 26 26 25 24 24 23 22 21 20 20 19 19 19 19 19 19 19 19 20 20 21 22
13 14 15 16 17 18 20 21 22 23 23 23 22 21 21 21 21 21 21 22 22 23 23 22 22 21 20 19 18 17 17 17 16 16 16 16 16 16 17 18 18 19
12 12 13 14 15 15 17 17 19 20 21 21 22 21 20 19 19 19 18 18 18 19 19 19 19 18 18 17 16 15 14 14 14 14 13 13 13 14 14 15 16 17
11 11 11 12 12 13 13 14 15 16 17 18 19 19 19 19 18 18 17 16 15 15 15 15 15 15 15 14 13 13 12 12 12 12 11 11 12 12 12 12 13 14
9 9 9 10 10 11 11 11 12 12 13 15 16 16 17 17 17 16 16 15 14 14 13 13 13 13 13 12 11 11 10 10 10 10 10 10 10 10 11 11 11 12
8 7 7 8 8 9 9 9 9 10 10 11 12 13 13 14 14 14 14 14 13 13 13 13 13 13 13 12 11 10 9 9 9 9 9 8 9 9 9 9 9 10
9 8 7 6 6 7 7 7 8 8 8 8 8 9 9 10 11 11 11 12 11 11 11 11 12 12 12 12 12 11 10 9 8 8 7 7 7 7 7 7 7 7
10 9 7 6 5 5 5 5 5 6 6 6 6 6 6 6 7 7 8 8 9 9 9 9 9 9 10 11 11 12 11 10 9 7 6 6 5 5 4 4 4 4
11 9 8 7 6 5 4 4 3 3 3 4 4 3 3 3 3 3 4 5 6 6 6 6 6 6 7 7 9 10 10 10 10 9 8 7 6 6 5 5 4 4
12 11 9 8 7 6 5 4 4 3 1 1 1 2 2 2 1 1 0 1 2 3 3 4 4 3 4 4 5 7 8 8 8 8 8 8 8 8 8 8 7 7
14 13 12 11 9 8 8 7 6 5 3 2 2 2 2 3 3 4 4 3 3 2 1 1 1 2 2 2 3 3 4 5 5 5 5 6 8 9 10 10 9 9
17 16 15 14 13 12 11 10 9 8 7 6 5 4 4 4 4 5 6 6 6 6 5 4 2 1 1 1 2 2 2 2 3 4 3 3 4 6 7 7 7 7
21 20 19 17 16 15 15 14 13 12 11 10 9 8 7 7 6 6 7 8 8 8 8 7 6 4 3 1 1 1 1 2 2 3 2 1 2 1 3 4 5 5
25 23 21 20 18 17 17 17 16 15 15 14 12 11 10 9 9 9 9 9 10 10 11 10 9 8 7 4 3 2 2 4 5 4 2 3 4 3 1 2 3 5
29 26 24 23 20 18 18 17 17 18 18 18 17 16 15 14 13 12 11 11 13 13 13 13 13 13 11 9 8 6 5 6 7 6 4 4 4 4 4 2 1 4
31 30 28 26 23 20 19 19 18 18 19 20 20 21 22 22 20 16 14 14 15 16 17 17 17 16 15 13 12 11 9 7 7 7 6 6 5 5 4 3 3 4
34 33 31 29 27 23 21 21 21 20 20 21 22 22 23 24 23 20 21 22 21 19 19 20 20 19 18 16 15 14 12 11 10 9 9 9 8 7 6 5 5 4
37 36 34 31 29 27 25 25 26 26 25 24 24 24 23 23 22 22 26 31 31 27 23 22 24 23 21 20 19 17 15 13 13 13 13 12 12 10 10 9 8 6
38 37 36 34 31 29 28 28 28 29 30 29 28 27 26 25 25 25 26 29 32 31 27 25 26 25 23 22 22 21 19 17 18 18 17 17 16 14 13 12 11 10
40 38 37 36 33 31 30 30 30 30 33 34 33 32 31 30 29 29 29 26 27 28 29 28 28 26 24 24 24 24 23 22 21 20 20 21 21 20 18 16 15 13
41 39 38 37 35 33 33 33 32 33 34 35 35 36 35 34 32 32 33 31 28 27 28 30 30 28 28 28 28 28 27 25 23 23 22 23 23 24 23 20 18 16
41 40 38 37 37 37 36 37 37 37 37 37 36 35 35 35 34 34 36 36 34 33 33 33 33 33 33 32 32 32 32 29 26 25 24 25 25 25 24 23 21 20
41 40 39 39 39 40 41 42 42 40 40 40 38 35 33 33 34 35 37 38 37 37 38 39 38 37 37 36 36 36 36 34 30 28 26 27 28 28 27 26 26 26
42 42 42 42 42 43 45 47 45 43 42 43 42 39 34 32 33 35 37 39 40 41 42 42 41 41 42 42 41 41 40 38 36 33 31 29 30 31 32 32 32 32
45 45 45 46 44 43 47 50 48 46 45 45 45 43 39 37 37 38 39 41 43 43 44 45 44 44 46 47 46 44 43 42 42 41 37 34 32 33 34 35 35 36
49 47 46 49 48 45 47 51 52 50 48 47 47 45 43 42 43 42 44 46 46 44 45 47 47 46 46 48 48 47 45 45 46 47 46 42 39 37 37 37 37 38

ECMWFNIL_250_spd_129.txt.gz
Wind_Speed
19 21 22 22 22 22 21 21 21 21 21 21 22 23 24 24 24 24 24 23 23 22 22 22 21 20 20 19 19 19 19 19 19 19 19 20 22 23 24 25 25 26
16 18 19 20 21 21 21 21 20 20 19 19 19 20 20 21 21 22 22 21 21 20 20 20 19 18 18 18 17 17 17 17 17 17 17 18 19 20 21 21 22 22
14 15 16 17 18 19 20 20 20 20 19 19 18 18 18 18 18 18 19 19 19 18 18 17 17 16 16 16 16 16 15 15 16 16 16 16 17 17 18 18 18 19
12 12 13 14 15 16 17 18 18 18 18 18 18 18 17 16 16 16 16 16 16 16 16 15 14 14 14 14 13 13 13 14 14 14 14 15 15 15 15 15 16 16
11 11 11 11 12 13 14 15 15 16 16 17 17 17 17 16 16 15 15 15 15 15 14 13 13 12 11 11 11 11 11 11 11 12 12 12 12 13 13 13 13 13
11 11 10 10 10 10 11 12 13 13 14 14 14 15 15 15 15 15 14 14 14 14 14 13 12 11 11 10 9 9 9 9 9 9 9 9 9 9 10 10 10 10
11 10 10 10 10 9 9 9 10 10 10 11 11 11 12 12 13 13 13 13 13 12 12 13 13 12 11 10 9 8 7 7 7 7 7 7 7 7 7 7 7 7
11 11 10 9 9 9 8 8 7 7 7 7 8 8 9 9 9 10 10 10 11 10 10 10 11 11 11 10 10 9 9 8 7 8 7 7 7 7 6 6 6 6
13 12 11 10 9 8 8 7 6 6 5 5 4 5 5 6 5 6 6 7 7 8 8 8 7 8 8 8 8 8 9 9 9 9 9 10 10 10 9 8 8 7
16 14 13 11 10 9 8 7 7 6 5 4 4 3 3 3 2 3 3 3 4 5 5 6 6 5 5 5 5 6 6 6 7 8 8 9 10 10 10 10 10 9
19 17 15 14 13 11 10 9 8 8 7 6 5 5 5 4 3 2 1 1 0 1 3 3 4 5 4 3 2 3 3 3 4 4 4 5 7 8 9 9 9 9
22 21 20 19 18 17 15 14 12 11 9 9 8 7 7 7 6 5 4 4 3 2 2 2 3 3 4 3 2 1 1 1 1 0 0 0 2 4 6 7 7 7
25 24 24 24 23 22 20 18 17 15 13 11 10 9 9 9 8 8 7 7 6 5 5 4 4 4 4 3 3 3 4 5 5 4 4 4 4 2 1 3 5 5
29 28 28 27 26 24 21 19 18 17 15 12 10 10 10 10 10 10 10 10 9 8 7 7 7 7 7 6 5 5 6 8 8 7 6 7 8 7 5 4 2 2
33 33 32 31 29 26 22 21 21 20 17 14 12 13 14 14 14 14 14 13 11 10 10 9 9 9 9 9 9 8 9 9 10 9 7 7 8 9 8 8 6 2
37 36 36 34 32 29 26 24 24 23 21 19 18 19 20 19 19 20 20 17 15 13 12 10 11 13 14 14 13 12 11 11 10 10 9 8 9 10 10 8 8 7
41 39 38 37 34 32 30 28 27 26 24 23 23 24 24 23 22 21 22 21 20 18 15 14 16 17 17 18 18 16 14 13 13 13 12 11 13 14 13 11 11 10
42 41 40 39 37 35 34 32 31 29 28 26 26 26 26 24 22 20 20 21 22 22 21 22 23 21 20 21 21 20 18 17 16 16 15 15 17 18 18 16 15 14
43 42 42 40 40 39 37 35 33 32 31 30 30 29 27 26 24 21 21 22 22 22 24 28 29 27 26 25 22 21 22 21 19 19 18 18 20 23 23 22 20 18
45 45 44 43 43 42 40 38 36 35 34 33 33 33 31 29 28 25 25 25 25 25 27 30 30 28 28 27 25 24 25 23 21 20 20 21 22 24 26 27 26 24
47 47 47 47 46 46 45 43 40 39 38 37 37 35 34 33 31 29 29 28 27 27 29 32 31 27 26 28 28 28 26 24 22 21 21 22 23 25 28 30 30 29
47 48 49 50 49 49 48 47 44 43 42 41 40 38 37 36 34 32 33 32 31 30 30 32 33 31 28 28 29 28 26 25 25 24 23 23 25 27 30 32 33 32
50 50 51 51 51 51 51 50 48 46 44 43 42 41 39 39 37 36 35 36 35 34 34 35 36 35 34 33 31 29 27 27 28 28 27 27 29 31 33 34 35 35
53 52 53 52 51 52 52 51 50 48 47 45 44 43 42 42 43 41 39 38 37 35 34 35 36 35 36 36 36 35 31 30 32 33 32 30 30 32 35 36 37 38
55 54 55 54 54 53 54 53 52 50 48 47 47 47 46 45 45 46 44 42 41 39 36 35 35 35 35 36 39 39 37 36 37 38 37 35 32 33 36 37 39 41
56 56 57 58 57 55 54 54 53 50 48 48 50 51 50 48 47 48 48 47 45 43 41 39 38 37 37 38 40 40 40 41 42 41 40 40 39 39 40 39 41 45

ECMWFNIL_250_spd_132.txt.gz
Wind_Speed
14 14 14 14 15 16 17 18 19 20 20 20 21 21 21 21 21 20 20 19 18 18 17 17 17 16 15 16 17 17 17 18 18 18 17 17 18 19 21 22 21 21
13 13 13 14 14 15 15 16 17 18 18 18 18 18 18 18 18 18 18 18 17 16 16 15 14 13 12 13 13 14 14 15 15 15 15 15 15 17 18 19 19 19
11 12 13 13 14 14 15 15 16 16 16 17 16 16 16 16 16 16 16 16 15 15 14 13 12 11 11 11 11 11 12 12 12 12 12 13 13 14 15 16 17 17
9 10 11 12 13 13 14 15 16 16 16 16 15 15 14 14 14 13 13 13 13 13 12 12 11 10 10 9 9 10 10 10 10 10 10 11 11 12 13 13 14 14
8 9 10 11 12 12 13 14 15 16 16 16 16 15 14 13 13 12 11 11 10 10 10 9 9 8 8 8 7 7 7 7 8 8 8 9 9 10 10 10 11 11
9 9 10 10 11 11 11 12 13 14 15 15 16 15 15 14 13 12 11 10 9 8 7 7 6 6 6 6 5 5 5 5 5 5 6 6 6 7 7 7 8 8
10 10 10 11 11 10 10 11 11 12 13 14 14 15 14 14 13 12 11 10 9 8 7 7 6 5 5 4 4 4 4 4 4 4 4 4 4 4 5 5 5 6
11 11 11 11 11 11 11 10 10 10 11 11 12 13 13 13 13 12 11 10 10 9 8 8 7 7 6 5 5 5 5 4 4 3 3 3 3 3 4 4 4 5
14 12 11 11 11 11 11 11 10 10 9 10 10 11 12 12 11 11 10 10 9 8 8 7 7 7 7 7 7 6 6 6 5 4 3 3 3 4 5 5 5 6
17 15 13 12 12 11 11 12 12 11 11 11 10 10 11 11 11 11 10 9 8 7 7 6 6 5 5 5 5 6 5 5 5 4 4 3 3 4 5 6 6 7
19 18 17 15 14 13 12 11 11 12 12 12 12 12 12 11 12 11 10 9 8 7 6 6 5 5 4 4 4 3 3 3 3 3 3 3 3 3 4 5 5 6
23 22 20 19 17 16 15 14 14 13 13 13 13 14 14 14 13 13 12 11 10 8 7 6 4 3 4 3 3 3 3 2 2 1 2 2 1 1 2 2 3 4
28 26 24 22 21 20 20 18 17 17 16 15 15 15 15 15 14 13 13 13 12 9 7 7 6 5 5 5 5 5 4 2 1 2 2 3 4 4 4 3 2 2
31 30 27 26 25 24 24 22 21 20 19 18 18 17 17 16 15 14 13 12 11 9 8 8 8 8 9 8 7 6 5 4 3 3 4 5 6 6 6 6 5 6
35 32 30 30 29 28 27 26 25 24 23 22 21 20 19 18 17 15 14 13 13 12 11 12 12 12 13 12 10 10 9 8 7 6 3 3 4 6 6 7 7 8
38 36 34 33 33 32 31 29 28 28 27 25 24 23 22 21 19 17 16 16 15 15 15 18 18 16 14 14 14 14 13 12 12 10 7 5 6 6 6 7 7 8
41 39 37 37 37 36 35 33 32 31 30 29 28 26 25 24 23 22 20 19 19 19 19 20 19 16 14 15 17 18 18 17 16 13 10 10 11 10 9 9 8 9
41 39 41 42 42 41 39 37 35 34 34 33 31 30 28 27 26 25 24 23 24 25 23 22 22 19 18 19 20 22 22 21 20 18 14 13 14 13 13 12 12 12
42 45 48 48 46 44 43 41 39 38 38 36 35 34 32 30 28 28 28 29 29 28 26 25 24 24 24 25 24 25 25 24 23 22 20 19 18 17 17 17 15 13
48 52 52 50 48 46 44 44 43 42 41 40 39 38 36 34 31 31 32 33 33 31 28 26 24 25 27 28 28 27 27 27 27 27 27 26 23 21 21 19 17 16
53 53 50 49 49 47 45 45 45 44 44 44 43 40 38 37 36 34 34 35 36 35 32 29 26 25 27 29 30 29 28 29 30 30 31 31 28 26 25 23 22 21
58 56 53 51 51 50 49 47 46 46 47 47 46 45 42 40 38 37 36 37 38 38 37 36 32 30 29 30 33 33 31 30 30 30 32 33 32 31 29 27 27 26
60 59 56 55 54 55 53 51 49 49 48 47 47 47 47 45 43 41 40 39 40 41 42 42 40 36 34 33 33 34 34 34 34 33 33 33 34 36 35 32 31 30
63 61 59 57 57 57 56 54 53 52 50 49 49 48 49 50 49 47 44 42 42 44 45 47 45 41 39 37 35 34 34 36 39 40 38 35 34 36 38 38 36 35
64 63 61 60 59 59 58 56 56 54 51 51 52 50 49 50 51 50 49 47 46 46 47 49 48 44 43 42 40 39 38 37 39 41 42 41 38 36 37 40 41 40
65 65 64 62 61 60 60 59 58 56 53 51 52 52 50 49 48 47 48 49 50 49 49 51 50 48 47 46 46 45 42 39 39 40 41 43 42 40 39 41 43 44